﻿<?xml version="1.0" encoding="utf-8" standalone="yes"?>
<gpx version="1.0" creator="CanWay - http://www.canwaygps.com" xmlns:xsi="http://www.w3.org/2001/XMLSchema-instance" xmlns="http://www.topografix.com/GPX/1/0" xsi:schemaLocation="http://www.topografix.com/GPX/1/0 http://www.topografix.com/GPX/1/0/gpx.xsd">
<time>2014-05-01T20:16:41Z</time>
<bounds minlat="47.362053" minlon="10.164516" maxlat="47.425031" maxlon="10.273392" />
<trk>
<name>2014-05-01 06-28</name>
<trkseg>
<trkpt lat="47.404457" lon="10.273392">
<ele>808.4</ele>
<time>2014-05-01T06:30:40Z</time>
<speed>6.1</speed>
</trkpt>
<trkpt lat="47.404307" lon="10.273225">
<ele>807.8</ele>
<time>2014-05-01T06:30:45Z</time>
<speed>4.1</speed>
</trkpt>
<trkpt lat="47.404397" lon="10.272808">
<ele>805.4</ele>
<time>2014-05-01T06:30:50Z</time>
<speed>5.9</speed>
</trkpt>
<trkpt lat="47.404439" lon="10.272343">
<ele>807.4</ele>
<time>2014-05-01T06:30:55Z</time>
<speed>6.8</speed>
</trkpt>
<trkpt lat="47.404519" lon="10.271874">
<ele>808.2</ele>
<time>2014-05-01T06:31:00Z</time>
<speed>7.1</speed>
</trkpt>
<trkpt lat="47.404647" lon="10.271431">
<ele>805.6</ele>
<time>2014-05-01T06:31:05Z</time>
<speed>7.3</speed>
</trkpt>
<trkpt lat="47.404779" lon="10.270961">
<ele>805.4</ele>
<time>2014-05-01T06:31:10Z</time>
<speed>7.5</speed>
</trkpt>
<trkpt lat="47.404884" lon="10.270542">
<ele>807.6</ele>
<time>2014-05-01T06:31:15Z</time>
<speed>6.2</speed>
</trkpt>
<trkpt lat="47.405006" lon="10.270227">
<ele>802.4</ele>
<time>2014-05-01T06:31:20Z</time>
<speed>5.1</speed>
</trkpt>
<trkpt lat="47.405019" lon="10.269902">
<ele>802.6</ele>
<time>2014-05-01T06:31:25Z</time>
<speed>5.1</speed>
</trkpt>
<trkpt lat="47.404815" lon="10.269557">
<ele>800.8</ele>
<time>2014-05-01T06:31:30Z</time>
<speed>6.5</speed>
</trkpt>
<trkpt lat="47.404633" lon="10.269209">
<ele>800.0</ele>
<time>2014-05-01T06:31:35Z</time>
<speed>6.5</speed>
</trkpt>
<trkpt lat="47.404420" lon="10.268896">
<ele>798.4</ele>
<time>2014-05-01T06:31:40Z</time>
<speed>6.8</speed>
</trkpt>
<trkpt lat="47.404202" lon="10.268552">
<ele>799.8</ele>
<time>2014-05-01T06:31:45Z</time>
<speed>7.0</speed>
</trkpt>
<trkpt lat="47.404160" lon="10.268087">
<ele>798.0</ele>
<time>2014-05-01T06:31:50Z</time>
<speed>7.1</speed>
</trkpt>
<trkpt lat="47.404129" lon="10.267601">
<ele>798.8</ele>
<time>2014-05-01T06:31:55Z</time>
<speed>7.1</speed>
</trkpt>
<trkpt lat="47.404070" lon="10.267144">
<ele>797.4</ele>
<time>2014-05-01T06:32:00Z</time>
<speed>6.6</speed>
</trkpt>
<trkpt lat="47.404010" lon="10.266688">
<ele>797.8</ele>
<time>2014-05-01T06:32:05Z</time>
<speed>6.9</speed>
</trkpt>
<trkpt lat="47.403956" lon="10.266270">
<ele>796.2</ele>
<time>2014-05-01T06:32:10Z</time>
<speed>6.0</speed>
</trkpt>
<trkpt lat="47.403903" lon="10.265877">
<ele>797.4</ele>
<time>2014-05-01T06:32:15Z</time>
<speed>6.2</speed>
</trkpt>
<trkpt lat="47.403724" lon="10.265555">
<ele>796.6</ele>
<time>2014-05-01T06:32:20Z</time>
<speed>6.6</speed>
</trkpt>
<trkpt lat="47.403438" lon="10.265311">
<ele>800.6</ele>
<time>2014-05-01T06:32:25Z</time>
<speed>7.3</speed>
</trkpt>
<trkpt lat="47.403230" lon="10.264941">
<ele>799.0</ele>
<time>2014-05-01T06:32:30Z</time>
<speed>7.2</speed>
</trkpt>
<trkpt lat="47.403074" lon="10.264534">
<ele>801.4</ele>
<time>2014-05-01T06:32:35Z</time>
<speed>6.9</speed>
</trkpt>
<trkpt lat="47.402860" lon="10.264206">
<ele>799.4</ele>
<time>2014-05-01T06:32:40Z</time>
<speed>6.6</speed>
</trkpt>
<trkpt lat="47.402631" lon="10.263953">
<ele>798.2</ele>
<time>2014-05-01T06:32:45Z</time>
<speed>6.0</speed>
</trkpt>
<trkpt lat="47.402528" lon="10.263765">
<ele>800.2</ele>
<time>2014-05-01T06:32:50Z</time>
<speed>1.8</speed>
</trkpt>
<trkpt lat="47.402774" lon="10.263773">
<ele>798.4</ele>
<time>2014-05-01T06:32:55Z</time>
<speed>5.2</speed>
</trkpt>
<trkpt lat="47.403086" lon="10.263805">
<ele>798.4</ele>
<time>2014-05-01T06:33:00Z</time>
<speed>6.6</speed>
</trkpt>
<trkpt lat="47.403386" lon="10.263879">
<ele>797.4</ele>
<time>2014-05-01T06:33:05Z</time>
<speed>6.3</speed>
</trkpt>
<trkpt lat="47.403674" lon="10.263991">
<ele>797.4</ele>
<time>2014-05-01T06:33:10Z</time>
<speed>5.9</speed>
</trkpt>
<trkpt lat="47.403932" lon="10.264064">
<ele>798.0</ele>
<time>2014-05-01T06:33:15Z</time>
<speed>5.6</speed>
</trkpt>
<trkpt lat="47.404224" lon="10.264041">
<ele>796.0</ele>
<time>2014-05-01T06:33:20Z</time>
<speed>6.6</speed>
</trkpt>
<trkpt lat="47.404520" lon="10.263980">
<ele>795.6</ele>
<time>2014-05-01T06:33:25Z</time>
<speed>6.3</speed>
</trkpt>
<trkpt lat="47.404804" lon="10.263906">
<ele>795.0</ele>
<time>2014-05-01T06:33:30Z</time>
<speed>6.4</speed>
</trkpt>
<trkpt lat="47.405097" lon="10.263835">
<ele>792.4</ele>
<time>2014-05-01T06:33:35Z</time>
<speed>6.4</speed>
</trkpt>
<trkpt lat="47.405403" lon="10.263760">
<ele>795.6</ele>
<time>2014-05-01T06:33:40Z</time>
<speed>6.5</speed>
</trkpt>
<trkpt lat="47.405701" lon="10.263683">
<ele>793.8</ele>
<time>2014-05-01T06:33:45Z</time>
<speed>6.8</speed>
</trkpt>
<trkpt lat="47.405986" lon="10.263564">
<ele>794.0</ele>
<time>2014-05-01T06:33:50Z</time>
<speed>6.5</speed>
</trkpt>
<trkpt lat="47.406264" lon="10.263403">
<ele>797.4</ele>
<time>2014-05-01T06:33:55Z</time>
<speed>6.7</speed>
</trkpt>
<trkpt lat="47.406528" lon="10.263175">
<ele>797.8</ele>
<time>2014-05-01T06:34:00Z</time>
<speed>6.7</speed>
</trkpt>
<trkpt lat="47.406782" lon="10.262931">
<ele>794.0</ele>
<time>2014-05-01T06:34:05Z</time>
<speed>6.7</speed>
</trkpt>
<trkpt lat="47.407045" lon="10.262705">
<ele>796.2</ele>
<time>2014-05-01T06:34:10Z</time>
<speed>6.9</speed>
</trkpt>
<trkpt lat="47.407341" lon="10.262587">
<ele>794.4</ele>
<time>2014-05-01T06:34:15Z</time>
<speed>7.0</speed>
</trkpt>
<trkpt lat="47.407646" lon="10.262590">
<ele>797.0</ele>
<time>2014-05-01T06:34:20Z</time>
<speed>6.8</speed>
</trkpt>
<trkpt lat="47.408017" lon="10.262648">
<ele>792.8</ele>
<time>2014-05-01T06:34:26Z</time>
<speed>6.8</speed>
</trkpt>
<trkpt lat="47.408298" lon="10.262682">
<ele>797.0</ele>
<time>2014-05-01T06:34:31Z</time>
<speed>5.8</speed>
</trkpt>
<trkpt lat="47.408555" lon="10.262663">
<ele>794.0</ele>
<time>2014-05-01T06:34:36Z</time>
<speed>5.9</speed>
</trkpt>
<trkpt lat="47.408838" lon="10.262627">
<ele>795.2</ele>
<time>2014-05-01T06:34:41Z</time>
<speed>6.1</speed>
</trkpt>
<trkpt lat="47.409121" lon="10.262581">
<ele>795.0</ele>
<time>2014-05-01T06:34:46Z</time>
<speed>6.0</speed>
</trkpt>
<trkpt lat="47.409416" lon="10.262589">
<ele>794.6</ele>
<time>2014-05-01T06:34:51Z</time>
<speed>5.9</speed>
</trkpt>
<trkpt lat="47.409619" lon="10.262639">
<ele>796.8</ele>
<time>2014-05-01T06:34:56Z</time>
<speed>3.9</speed>
</trkpt>
<trkpt lat="47.409628" lon="10.262419">
<ele>794.2</ele>
<time>2014-05-01T06:35:01Z</time>
<speed>3.0</speed>
</trkpt>
<trkpt lat="47.409504" lon="10.262234">
<ele>791.8</ele>
<time>2014-05-01T06:35:06Z</time>
<speed>4.1</speed>
</trkpt>
<trkpt lat="47.409293" lon="10.262049">
<ele>792.6</ele>
<time>2014-05-01T06:35:11Z</time>
<speed>5.5</speed>
</trkpt>
<trkpt lat="47.409041" lon="10.261900">
<ele>794.8</ele>
<time>2014-05-01T06:35:16Z</time>
<speed>5.5</speed>
</trkpt>
<trkpt lat="47.408796" lon="10.261773">
<ele>796.4</ele>
<time>2014-05-01T06:35:21Z</time>
<speed>5.6</speed>
</trkpt>
<trkpt lat="47.408544" lon="10.261681">
<ele>796.4</ele>
<time>2014-05-01T06:35:26Z</time>
<speed>5.6</speed>
</trkpt>
<trkpt lat="47.408334" lon="10.261537">
<ele>798.6</ele>
<time>2014-05-01T06:35:31Z</time>
<speed>4.8</speed>
</trkpt>
<trkpt lat="47.408130" lon="10.261397">
<ele>797.2</ele>
<time>2014-05-01T06:35:36Z</time>
<speed>4.8</speed>
</trkpt>
<trkpt lat="47.407931" lon="10.261265">
<ele>798.0</ele>
<time>2014-05-01T06:35:41Z</time>
<speed>4.6</speed>
</trkpt>
<trkpt lat="47.407747" lon="10.261102">
<ele>797.0</ele>
<time>2014-05-01T06:35:46Z</time>
<speed>4.4</speed>
</trkpt>
<trkpt lat="47.407550" lon="10.260924">
<ele>799.0</ele>
<time>2014-05-01T06:35:51Z</time>
<speed>4.9</speed>
</trkpt>
<trkpt lat="47.407356" lon="10.260756">
<ele>797.0</ele>
<time>2014-05-01T06:35:56Z</time>
<speed>4.4</speed>
</trkpt>
<trkpt lat="47.407190" lon="10.260614">
<ele>798.2</ele>
<time>2014-05-01T06:36:01Z</time>
<speed>3.6</speed>
</trkpt>
<trkpt lat="47.407076" lon="10.260493">
<ele>801.2</ele>
<time>2014-05-01T06:36:06Z</time>
<speed>2.8</speed>
</trkpt>
<trkpt lat="47.406999" lon="10.260385">
<ele>800.0</ele>
<time>2014-05-01T06:36:11Z</time>
<speed>2.2</speed>
</trkpt>
<trkpt lat="47.406918" lon="10.260296">
<ele>804.4</ele>
<time>2014-05-01T06:36:16Z</time>
<speed>2.4</speed>
</trkpt>
<trkpt lat="47.406832" lon="10.260195">
<ele>805.4</ele>
<time>2014-05-01T06:36:21Z</time>
<speed>2.2</speed>
</trkpt>
<trkpt lat="47.406754" lon="10.260109">
<ele>806.4</ele>
<time>2014-05-01T06:36:26Z</time>
<speed>2.3</speed>
</trkpt>
<trkpt lat="47.406680" lon="10.260028">
<ele>809.0</ele>
<time>2014-05-01T06:36:31Z</time>
<speed>2.0</speed>
</trkpt>
<trkpt lat="47.406616" lon="10.259940">
<ele>809.6</ele>
<time>2014-05-01T06:36:36Z</time>
<speed>2.0</speed>
</trkpt>
<trkpt lat="47.406535" lon="10.259868">
<ele>815.6</ele>
<time>2014-05-01T06:36:41Z</time>
<speed>2.0</speed>
</trkpt>
<trkpt lat="47.406456" lon="10.259796">
<ele>814.4</ele>
<time>2014-05-01T06:36:46Z</time>
<speed>2.0</speed>
</trkpt>
<trkpt lat="47.406380" lon="10.259722">
<ele>816.0</ele>
<time>2014-05-01T06:36:51Z</time>
<speed>2.0</speed>
</trkpt>
<trkpt lat="47.406301" lon="10.259651">
<ele>817.0</ele>
<time>2014-05-01T06:36:56Z</time>
<speed>1.9</speed>
</trkpt>
<trkpt lat="47.406234" lon="10.259573">
<ele>815.4</ele>
<time>2014-05-01T06:37:01Z</time>
<speed>1.8</speed>
</trkpt>
<trkpt lat="47.406174" lon="10.259491">
<ele>819.6</ele>
<time>2014-05-01T06:37:06Z</time>
<speed>2.0</speed>
</trkpt>
<trkpt lat="47.406099" lon="10.259424">
<ele>824.6</ele>
<time>2014-05-01T06:37:11Z</time>
<speed>1.8</speed>
</trkpt>
<trkpt lat="47.406020" lon="10.259355">
<ele>825.2</ele>
<time>2014-05-01T06:37:16Z</time>
<speed>1.9</speed>
</trkpt>
<trkpt lat="47.405946" lon="10.259269">
<ele>824.6</ele>
<time>2014-05-01T06:37:21Z</time>
<speed>2.0</speed>
</trkpt>
<trkpt lat="47.405882" lon="10.259176">
<ele>828.0</ele>
<time>2014-05-01T06:37:26Z</time>
<speed>2.0</speed>
</trkpt>
<trkpt lat="47.405840" lon="10.259133">
<ele>830.4</ele>
<time>2014-05-01T06:37:31Z</time>
<speed>1.8</speed>
</trkpt>
<trkpt lat="47.405762" lon="10.259043">
<ele>831.8</ele>
<time>2014-05-01T06:37:36Z</time>
<speed>1.7</speed>
</trkpt>
<trkpt lat="47.405693" lon="10.258965">
<ele>830.6</ele>
<time>2014-05-01T06:37:41Z</time>
<speed>1.8</speed>
</trkpt>
<trkpt lat="47.405635" lon="10.258850">
<ele>831.6</ele>
<time>2014-05-01T06:37:46Z</time>
<speed>1.8</speed>
</trkpt>
<trkpt lat="47.405602" lon="10.258719">
<ele>831.8</ele>
<time>2014-05-01T06:37:51Z</time>
<speed>1.7</speed>
</trkpt>
<trkpt lat="47.405609" lon="10.258598">
<ele>832.2</ele>
<time>2014-05-01T06:37:56Z</time>
<speed>1.7</speed>
</trkpt>
<trkpt lat="47.405652" lon="10.258488">
<ele>830.4</ele>
<time>2014-05-01T06:38:01Z</time>
<speed>1.6</speed>
</trkpt>
<trkpt lat="47.405666" lon="10.258376">
<ele>833.4</ele>
<time>2014-05-01T06:38:06Z</time>
<speed>1.6</speed>
</trkpt>
<trkpt lat="47.405696" lon="10.258258">
<ele>837.0</ele>
<time>2014-05-01T06:38:11Z</time>
<speed>1.8</speed>
</trkpt>
<trkpt lat="47.405726" lon="10.258144">
<ele>833.4</ele>
<time>2014-05-01T06:38:16Z</time>
<speed>1.8</speed>
</trkpt>
<trkpt lat="47.405731" lon="10.258027">
<ele>835.8</ele>
<time>2014-05-01T06:38:21Z</time>
<speed>1.5</speed>
</trkpt>
<trkpt lat="47.405698" lon="10.257904">
<ele>834.2</ele>
<time>2014-05-01T06:38:26Z</time>
<speed>2.1</speed>
</trkpt>
<trkpt lat="47.405686" lon="10.257779">
<ele>835.8</ele>
<time>2014-05-01T06:38:31Z</time>
<speed>1.5</speed>
</trkpt>
<trkpt lat="47.405687" lon="10.257678">
<ele>835.6</ele>
<time>2014-05-01T06:38:36Z</time>
<speed>1.3</speed>
</trkpt>
<trkpt lat="47.405671" lon="10.257551">
<ele>835.8</ele>
<time>2014-05-01T06:38:41Z</time>
<speed>1.5</speed>
</trkpt>
<trkpt lat="47.405665" lon="10.257438">
<ele>839.8</ele>
<time>2014-05-01T06:38:46Z</time>
<speed>1.4</speed>
</trkpt>
<trkpt lat="47.405634" lon="10.257315">
<ele>837.4</ele>
<time>2014-05-01T06:38:51Z</time>
<speed>1.5</speed>
</trkpt>
<trkpt lat="47.405585" lon="10.257210">
<ele>837.2</ele>
<time>2014-05-01T06:38:56Z</time>
<speed>1.6</speed>
</trkpt>
<trkpt lat="47.405522" lon="10.257136">
<ele>839.4</ele>
<time>2014-05-01T06:39:01Z</time>
<speed>1.4</speed>
</trkpt>
<trkpt lat="47.405444" lon="10.257094">
<ele>843.4</ele>
<time>2014-05-01T06:39:06Z</time>
<speed>1.4</speed>
</trkpt>
<trkpt lat="47.405367" lon="10.257045">
<ele>845.8</ele>
<time>2014-05-01T06:39:11Z</time>
<speed>1.5</speed>
</trkpt>
<trkpt lat="47.405313" lon="10.257047">
<ele>845.0</ele>
<time>2014-05-01T06:39:16Z</time>
<speed>1.2</speed>
</trkpt>
<trkpt lat="47.405251" lon="10.257029">
<ele>847.8</ele>
<time>2014-05-01T06:39:21Z</time>
<speed>1.2</speed>
</trkpt>
<trkpt lat="47.405181" lon="10.256995">
<ele>847.6</ele>
<time>2014-05-01T06:39:26Z</time>
<speed>1.3</speed>
</trkpt>
<trkpt lat="47.405111" lon="10.256951">
<ele>848.6</ele>
<time>2014-05-01T06:39:31Z</time>
<speed>1.7</speed>
</trkpt>
<trkpt lat="47.405047" lon="10.256916">
<ele>852.6</ele>
<time>2014-05-01T06:39:36Z</time>
<speed>1.1</speed>
</trkpt>
<trkpt lat="47.404981" lon="10.256877">
<ele>853.6</ele>
<time>2014-05-01T06:39:41Z</time>
<speed>1.4</speed>
</trkpt>
<trkpt lat="47.404921" lon="10.256840">
<ele>857.2</ele>
<time>2014-05-01T06:39:46Z</time>
<speed>1.3</speed>
</trkpt>
<trkpt lat="47.404857" lon="10.256793">
<ele>858.0</ele>
<time>2014-05-01T06:39:51Z</time>
<speed>1.2</speed>
</trkpt>
<trkpt lat="47.404799" lon="10.256772">
<ele>860.6</ele>
<time>2014-05-01T06:39:56Z</time>
<speed>0.8</speed>
</trkpt>
<trkpt lat="47.404744" lon="10.256753">
<ele>863.2</ele>
<time>2014-05-01T06:40:01Z</time>
<speed>0.8</speed>
</trkpt>
<trkpt lat="47.404671" lon="10.256728">
<ele>862.8</ele>
<time>2014-05-01T06:40:06Z</time>
<speed>1.4</speed>
</trkpt>
<trkpt lat="47.404570" lon="10.256693">
<ele>864.4</ele>
<time>2014-05-01T06:40:11Z</time>
<speed>1.6</speed>
</trkpt>
<trkpt lat="47.404493" lon="10.256677">
<ele>867.4</ele>
<time>2014-05-01T06:40:16Z</time>
<speed>1.2</speed>
</trkpt>
<trkpt lat="47.404422" lon="10.256663">
<ele>868.2</ele>
<time>2014-05-01T06:40:21Z</time>
<speed>1.2</speed>
</trkpt>
<trkpt lat="47.404355" lon="10.256634">
<ele>868.4</ele>
<time>2014-05-01T06:40:26Z</time>
<speed>1.2</speed>
</trkpt>
<trkpt lat="47.404280" lon="10.256589">
<ele>871.6</ele>
<time>2014-05-01T06:40:31Z</time>
<speed>1.4</speed>
</trkpt>
<trkpt lat="47.404223" lon="10.256532">
<ele>871.6</ele>
<time>2014-05-01T06:40:36Z</time>
<speed>0.9</speed>
</trkpt>
<trkpt lat="47.404160" lon="10.256481">
<ele>873.0</ele>
<time>2014-05-01T06:40:41Z</time>
<speed>1.2</speed>
</trkpt>
<trkpt lat="47.404096" lon="10.256438">
<ele>873.6</ele>
<time>2014-05-01T06:40:46Z</time>
<speed>1.1</speed>
</trkpt>
<trkpt lat="47.404045" lon="10.256401">
<ele>874.4</ele>
<time>2014-05-01T06:40:51Z</time>
<speed>0.9</speed>
</trkpt>
<trkpt lat="47.403995" lon="10.256340">
<ele>876.4</ele>
<time>2014-05-01T06:40:56Z</time>
<speed>1.4</speed>
</trkpt>
<trkpt lat="47.403927" lon="10.256254">
<ele>877.6</ele>
<time>2014-05-01T06:41:01Z</time>
<speed>1.2</speed>
</trkpt>
<trkpt lat="47.403865" lon="10.256175">
<ele>879.6</ele>
<time>2014-05-01T06:41:06Z</time>
<speed>1.0</speed>
</trkpt>
<trkpt lat="47.403805" lon="10.256115">
<ele>877.2</ele>
<time>2014-05-01T06:41:11Z</time>
<speed>1.3</speed>
</trkpt>
<trkpt lat="47.403755" lon="10.256060">
<ele>880.8</ele>
<time>2014-05-01T06:41:16Z</time>
<speed>0.9</speed>
</trkpt>
<trkpt lat="47.403693" lon="10.256013">
<ele>881.2</ele>
<time>2014-05-01T06:41:21Z</time>
<speed>1.0</speed>
</trkpt>
<trkpt lat="47.403614" lon="10.255962">
<ele>881.4</ele>
<time>2014-05-01T06:41:26Z</time>
<speed>1.4</speed>
</trkpt>
<trkpt lat="47.403553" lon="10.255917">
<ele>885.2</ele>
<time>2014-05-01T06:41:31Z</time>
<speed>1.0</speed>
</trkpt>
<trkpt lat="47.403490" lon="10.255887">
<ele>884.6</ele>
<time>2014-05-01T06:41:36Z</time>
<speed>1.5</speed>
</trkpt>
<trkpt lat="47.403421" lon="10.255837">
<ele>884.8</ele>
<time>2014-05-01T06:41:41Z</time>
<speed>1.1</speed>
</trkpt>
<trkpt lat="47.403324" lon="10.255772">
<ele>888.4</ele>
<time>2014-05-01T06:41:46Z</time>
<speed>1.8</speed>
</trkpt>
<trkpt lat="47.403225" lon="10.255694">
<ele>888.4</ele>
<time>2014-05-01T06:41:51Z</time>
<speed>1.8</speed>
</trkpt>
<trkpt lat="47.403148" lon="10.255632">
<ele>888.8</ele>
<time>2014-05-01T06:41:56Z</time>
<speed>1.8</speed>
</trkpt>
<trkpt lat="47.403082" lon="10.255571">
<ele>890.6</ele>
<time>2014-05-01T06:42:01Z</time>
<speed>1.6</speed>
</trkpt>
<trkpt lat="47.403009" lon="10.255508">
<ele>889.2</ele>
<time>2014-05-01T06:42:06Z</time>
<speed>1.9</speed>
</trkpt>
<trkpt lat="47.402941" lon="10.255446">
<ele>891.6</ele>
<time>2014-05-01T06:42:11Z</time>
<speed>1.8</speed>
</trkpt>
<trkpt lat="47.402849" lon="10.255391">
<ele>891.2</ele>
<time>2014-05-01T06:42:16Z</time>
<speed>1.9</speed>
</trkpt>
<trkpt lat="47.402768" lon="10.255358">
<ele>892.4</ele>
<time>2014-05-01T06:42:21Z</time>
<speed>1.7</speed>
</trkpt>
<trkpt lat="47.402686" lon="10.255326">
<ele>895.0</ele>
<time>2014-05-01T06:42:26Z</time>
<speed>1.8</speed>
</trkpt>
<trkpt lat="47.402610" lon="10.255299">
<ele>894.2</ele>
<time>2014-05-01T06:42:31Z</time>
<speed>1.6</speed>
</trkpt>
<trkpt lat="47.402524" lon="10.255273">
<ele>896.4</ele>
<time>2014-05-01T06:42:36Z</time>
<speed>1.9</speed>
</trkpt>
<trkpt lat="47.402446" lon="10.255245">
<ele>895.4</ele>
<time>2014-05-01T06:42:41Z</time>
<speed>1.5</speed>
</trkpt>
<trkpt lat="47.402377" lon="10.255222">
<ele>898.0</ele>
<time>2014-05-01T06:42:46Z</time>
<speed>1.2</speed>
</trkpt>
<trkpt lat="47.402319" lon="10.255198">
<ele>899.6</ele>
<time>2014-05-01T06:42:51Z</time>
<speed>1.1</speed>
</trkpt>
<trkpt lat="47.402262" lon="10.255167">
<ele>901.0</ele>
<time>2014-05-01T06:42:56Z</time>
<speed>1.0</speed>
</trkpt>
<trkpt lat="47.402207" lon="10.255152">
<ele>900.0</ele>
<time>2014-05-01T06:43:01Z</time>
<speed>1.1</speed>
</trkpt>
<trkpt lat="47.402143" lon="10.255143">
<ele>902.0</ele>
<time>2014-05-01T06:43:06Z</time>
<speed>0.9</speed>
</trkpt>
<trkpt lat="47.402070" lon="10.255123">
<ele>902.0</ele>
<time>2014-05-01T06:43:11Z</time>
<speed>1.2</speed>
</trkpt>
<trkpt lat="47.401993" lon="10.255127">
<ele>904.8</ele>
<time>2014-05-01T06:43:16Z</time>
<speed>1.3</speed>
</trkpt>
<trkpt lat="47.401898" lon="10.255127">
<ele>905.6</ele>
<time>2014-05-01T06:43:21Z</time>
<speed>1.3</speed>
</trkpt>
<trkpt lat="47.401845" lon="10.255082">
<ele>906.2</ele>
<time>2014-05-01T06:43:26Z</time>
<speed>0.8</speed>
</trkpt>
<trkpt lat="47.401784" lon="10.255034">
<ele>907.4</ele>
<time>2014-05-01T06:43:31Z</time>
<speed>1.3</speed>
</trkpt>
<trkpt lat="47.401715" lon="10.254999">
<ele>907.6</ele>
<time>2014-05-01T06:43:36Z</time>
<speed>1.3</speed>
</trkpt>
<trkpt lat="47.401646" lon="10.254961">
<ele>910.6</ele>
<time>2014-05-01T06:43:41Z</time>
<speed>0.6</speed>
</trkpt>
<trkpt lat="47.401579" lon="10.254914">
<ele>907.8</ele>
<time>2014-05-01T06:43:46Z</time>
<speed>0.6</speed>
</trkpt>
<trkpt lat="47.401512" lon="10.254862">
<ele>910.2</ele>
<time>2014-05-01T06:43:51Z</time>
<speed>1.0</speed>
</trkpt>
<trkpt lat="47.401427" lon="10.254816">
<ele>910.0</ele>
<time>2014-05-01T06:43:56Z</time>
<speed>1.3</speed>
</trkpt>
<trkpt lat="47.401330" lon="10.254779">
<ele>911.6</ele>
<time>2014-05-01T06:44:02Z</time>
<speed>1.4</speed>
</trkpt>
<trkpt lat="47.401254" lon="10.254747">
<ele>915.6</ele>
<time>2014-05-01T06:44:07Z</time>
<speed>1.2</speed>
</trkpt>
<trkpt lat="47.401179" lon="10.254688">
<ele>915.8</ele>
<time>2014-05-01T06:44:12Z</time>
<speed>1.4</speed>
</trkpt>
<trkpt lat="47.401123" lon="10.254635">
<ele>915.2</ele>
<time>2014-05-01T06:44:17Z</time>
<speed>1.3</speed>
</trkpt>
<trkpt lat="47.401039" lon="10.254581">
<ele>920.0</ele>
<time>2014-05-01T06:44:22Z</time>
<speed>1.2</speed>
</trkpt>
<trkpt lat="47.400978" lon="10.254544">
<ele>919.2</ele>
<time>2014-05-01T06:44:27Z</time>
<speed>0.6</speed>
</trkpt>
<trkpt lat="47.400944" lon="10.254520">
<ele>921.4</ele>
<time>2014-05-01T06:44:32Z</time>
<speed>0.8</speed>
</trkpt>
<trkpt lat="47.400879" lon="10.254491">
<ele>924.0</ele>
<time>2014-05-01T06:44:37Z</time>
<speed>1.1</speed>
</trkpt>
<trkpt lat="47.400788" lon="10.254433">
<ele>926.4</ele>
<time>2014-05-01T06:44:42Z</time>
<speed>1.3</speed>
</trkpt>
<trkpt lat="47.400702" lon="10.254384">
<ele>927.4</ele>
<time>2014-05-01T06:44:47Z</time>
<speed>1.3</speed>
</trkpt>
<trkpt lat="47.400610" lon="10.254332">
<ele>930.0</ele>
<time>2014-05-01T06:44:52Z</time>
<speed>1.3</speed>
</trkpt>
<trkpt lat="47.400537" lon="10.254270">
<ele>931.0</ele>
<time>2014-05-01T06:44:57Z</time>
<speed>1.2</speed>
</trkpt>
<trkpt lat="47.400486" lon="10.254231">
<ele>931.8</ele>
<time>2014-05-01T06:45:02Z</time>
<speed>1.4</speed>
</trkpt>
<trkpt lat="47.400407" lon="10.254215">
<ele>931.6</ele>
<time>2014-05-01T06:45:07Z</time>
<speed>1.4</speed>
</trkpt>
<trkpt lat="47.400343" lon="10.254182">
<ele>933.2</ele>
<time>2014-05-01T06:45:12Z</time>
<speed>1.3</speed>
</trkpt>
<trkpt lat="47.400260" lon="10.254114">
<ele>935.6</ele>
<time>2014-05-01T06:45:17Z</time>
<speed>1.7</speed>
</trkpt>
<trkpt lat="47.400200" lon="10.254040">
<ele>938.4</ele>
<time>2014-05-01T06:45:22Z</time>
<speed>1.4</speed>
</trkpt>
<trkpt lat="47.400170" lon="10.253945">
<ele>940.8</ele>
<time>2014-05-01T06:45:27Z</time>
<speed>1.2</speed>
</trkpt>
<trkpt lat="47.400135" lon="10.253861">
<ele>941.2</ele>
<time>2014-05-01T06:45:32Z</time>
<speed>1.1</speed>
</trkpt>
<trkpt lat="47.400118" lon="10.253781">
<ele>945.2</ele>
<time>2014-05-01T06:45:37Z</time>
<speed>0.8</speed>
</trkpt>
<trkpt lat="47.400099" lon="10.253709">
<ele>944.2</ele>
<time>2014-05-01T06:45:42Z</time>
<speed>1.1</speed>
</trkpt>
<trkpt lat="47.400026" lon="10.253673">
<ele>945.6</ele>
<time>2014-05-01T06:45:47Z</time>
<speed>1.6</speed>
</trkpt>
<trkpt lat="47.399963" lon="10.253660">
<ele>946.4</ele>
<time>2014-05-01T06:45:52Z</time>
<speed>1.3</speed>
</trkpt>
<trkpt lat="47.399898" lon="10.253651">
<ele>946.4</ele>
<time>2014-05-01T06:45:57Z</time>
<speed>0.9</speed>
</trkpt>
<trkpt lat="47.399852" lon="10.253595">
<ele>945.8</ele>
<time>2014-05-01T06:46:02Z</time>
<speed>1.1</speed>
</trkpt>
<trkpt lat="47.399800" lon="10.253525">
<ele>948.4</ele>
<time>2014-05-01T06:46:07Z</time>
<speed>1.2</speed>
</trkpt>
<trkpt lat="47.399755" lon="10.253448">
<ele>947.8</ele>
<time>2014-05-01T06:46:12Z</time>
<speed>0.8</speed>
</trkpt>
<trkpt lat="47.399701" lon="10.253386">
<ele>948.0</ele>
<time>2014-05-01T06:46:17Z</time>
<speed>1.1</speed>
</trkpt>
<trkpt lat="47.399629" lon="10.253314">
<ele>951.6</ele>
<time>2014-05-01T06:46:22Z</time>
<speed>1.1</speed>
</trkpt>
<trkpt lat="47.399558" lon="10.253258">
<ele>953.4</ele>
<time>2014-05-01T06:46:27Z</time>
<speed>0.9</speed>
</trkpt>
<trkpt lat="47.399491" lon="10.253193">
<ele>953.0</ele>
<time>2014-05-01T06:46:32Z</time>
<speed>1.0</speed>
</trkpt>
<trkpt lat="47.399436" lon="10.253134">
<ele>955.4</ele>
<time>2014-05-01T06:46:37Z</time>
<speed>1.2</speed>
</trkpt>
<trkpt lat="47.399372" lon="10.253079">
<ele>957.4</ele>
<time>2014-05-01T06:46:42Z</time>
<speed>1.1</speed>
</trkpt>
<trkpt lat="47.399296" lon="10.253066">
<ele>960.4</ele>
<time>2014-05-01T06:46:47Z</time>
<speed>1.4</speed>
</trkpt>
<trkpt lat="47.399217" lon="10.253027">
<ele>962.2</ele>
<time>2014-05-01T06:46:52Z</time>
<speed>1.2</speed>
</trkpt>
<trkpt lat="47.399148" lon="10.252997">
<ele>964.4</ele>
<time>2014-05-01T06:46:57Z</time>
<speed>1.0</speed>
</trkpt>
<trkpt lat="47.399094" lon="10.252992">
<ele>967.0</ele>
<time>2014-05-01T06:47:02Z</time>
<speed>0.4</speed>
</trkpt>
<trkpt lat="47.399040" lon="10.253019">
<ele>967.0</ele>
<time>2014-05-01T06:47:07Z</time>
<speed>1.3</speed>
</trkpt>
<trkpt lat="47.398964" lon="10.253064">
<ele>970.0</ele>
<time>2014-05-01T06:47:12Z</time>
<speed>1.1</speed>
</trkpt>
<trkpt lat="47.398897" lon="10.253099">
<ele>967.8</ele>
<time>2014-05-01T06:47:17Z</time>
<speed>1.3</speed>
</trkpt>
<trkpt lat="47.398834" lon="10.253098">
<ele>968.2</ele>
<time>2014-05-01T06:47:22Z</time>
<speed>1.0</speed>
</trkpt>
<trkpt lat="47.398764" lon="10.253048">
<ele>973.4</ele>
<time>2014-05-01T06:47:27Z</time>
<speed>1.1</speed>
</trkpt>
<trkpt lat="47.398708" lon="10.252970">
<ele>969.4</ele>
<time>2014-05-01T06:47:32Z</time>
<speed>0.8</speed>
</trkpt>
<trkpt lat="47.398674" lon="10.252901">
<ele>970.2</ele>
<time>2014-05-01T06:47:37Z</time>
<speed>1.0</speed>
</trkpt>
<trkpt lat="47.398611" lon="10.252828">
<ele>973.8</ele>
<time>2014-05-01T06:47:42Z</time>
<speed>1.4</speed>
</trkpt>
<trkpt lat="47.398512" lon="10.252718">
<ele>977.0</ele>
<time>2014-05-01T06:47:47Z</time>
<speed>1.3</speed>
</trkpt>
<trkpt lat="47.398461" lon="10.252647">
<ele>975.0</ele>
<time>2014-05-01T06:47:52Z</time>
<speed>1.3</speed>
</trkpt>
<trkpt lat="47.398408" lon="10.252582">
<ele>976.8</ele>
<time>2014-05-01T06:47:57Z</time>
<speed>1.1</speed>
</trkpt>
<trkpt lat="47.398352" lon="10.252528">
<ele>979.0</ele>
<time>2014-05-01T06:48:02Z</time>
<speed>1.2</speed>
</trkpt>
<trkpt lat="47.398299" lon="10.252507">
<ele>979.2</ele>
<time>2014-05-01T06:48:07Z</time>
<speed>1.0</speed>
</trkpt>
<trkpt lat="47.398234" lon="10.252475">
<ele>979.8</ele>
<time>2014-05-01T06:48:13Z</time>
<speed>0.9</speed>
</trkpt>
<trkpt lat="47.398190" lon="10.252473">
<ele>981.6</ele>
<time>2014-05-01T06:48:18Z</time>
<speed>0.8</speed>
</trkpt>
<trkpt lat="47.398122" lon="10.252458">
<ele>983.4</ele>
<time>2014-05-01T06:48:23Z</time>
<speed>0.9</speed>
</trkpt>
<trkpt lat="47.398079" lon="10.252426">
<ele>985.8</ele>
<time>2014-05-01T06:48:28Z</time>
<speed>0.8</speed>
</trkpt>
<trkpt lat="47.398017" lon="10.252413">
<ele>981.4</ele>
<time>2014-05-01T06:48:34Z</time>
<speed>0.8</speed>
</trkpt>
<trkpt lat="47.397942" lon="10.252409">
<ele>985.8</ele>
<time>2014-05-01T06:48:39Z</time>
<speed>0.9</speed>
</trkpt>
<trkpt lat="47.397869" lon="10.252421">
<ele>987.0</ele>
<time>2014-05-01T06:48:44Z</time>
<speed>1.1</speed>
</trkpt>
<trkpt lat="47.397790" lon="10.252431">
<ele>987.0</ele>
<time>2014-05-01T06:48:49Z</time>
<speed>1.3</speed>
</trkpt>
<trkpt lat="47.397718" lon="10.252423">
<ele>985.4</ele>
<time>2014-05-01T06:48:54Z</time>
<speed>0.9</speed>
</trkpt>
<trkpt lat="47.397640" lon="10.252418">
<ele>987.6</ele>
<time>2014-05-01T06:48:59Z</time>
<speed>1.1</speed>
</trkpt>
<trkpt lat="47.397552" lon="10.252427">
<ele>986.2</ele>
<time>2014-05-01T06:49:04Z</time>
<speed>1.3</speed>
</trkpt>
<trkpt lat="47.397484" lon="10.252412">
<ele>990.2</ele>
<time>2014-05-01T06:49:09Z</time>
<speed>1.3</speed>
</trkpt>
<trkpt lat="47.397395" lon="10.252381">
<ele>986.4</ele>
<time>2014-05-01T06:49:14Z</time>
<speed>1.6</speed>
</trkpt>
<trkpt lat="47.397322" lon="10.252357">
<ele>987.6</ele>
<time>2014-05-01T06:49:19Z</time>
<speed>1.6</speed>
</trkpt>
<trkpt lat="47.397236" lon="10.252348">
<ele>990.6</ele>
<time>2014-05-01T06:49:24Z</time>
<speed>1.2</speed>
</trkpt>
<trkpt lat="47.397158" lon="10.252333">
<ele>990.0</ele>
<time>2014-05-01T06:49:29Z</time>
<speed>1.5</speed>
</trkpt>
<trkpt lat="47.397082" lon="10.252332">
<ele>990.2</ele>
<time>2014-05-01T06:49:34Z</time>
<speed>1.4</speed>
</trkpt>
<trkpt lat="47.397022" lon="10.252308">
<ele>988.8</ele>
<time>2014-05-01T06:49:39Z</time>
<speed>1.4</speed>
</trkpt>
<trkpt lat="47.396965" lon="10.252257">
<ele>990.8</ele>
<time>2014-05-01T06:49:44Z</time>
<speed>1.3</speed>
</trkpt>
<trkpt lat="47.396915" lon="10.252199">
<ele>989.6</ele>
<time>2014-05-01T06:49:49Z</time>
<speed>1.0</speed>
</trkpt>
<trkpt lat="47.396849" lon="10.252126">
<ele>993.8</ele>
<time>2014-05-01T06:49:54Z</time>
<speed>1.0</speed>
</trkpt>
<trkpt lat="47.396777" lon="10.252056">
<ele>994.6</ele>
<time>2014-05-01T06:49:59Z</time>
<speed>1.0</speed>
</trkpt>
<trkpt lat="47.396737" lon="10.252014">
<ele>994.0</ele>
<time>2014-05-01T06:50:04Z</time>
<speed>0.9</speed>
</trkpt>
<trkpt lat="47.396695" lon="10.251984">
<ele>996.4</ele>
<time>2014-05-01T06:50:09Z</time>
<speed>0.9</speed>
</trkpt>
<trkpt lat="47.396643" lon="10.251951">
<ele>997.6</ele>
<time>2014-05-01T06:50:14Z</time>
<speed>1.2</speed>
</trkpt>
<trkpt lat="47.396587" lon="10.251909">
<ele>997.4</ele>
<time>2014-05-01T06:50:19Z</time>
<speed>1.1</speed>
</trkpt>
<trkpt lat="47.396520" lon="10.251882">
<ele>1000.4</ele>
<time>2014-05-01T06:50:24Z</time>
<speed>1.3</speed>
</trkpt>
<trkpt lat="47.396445" lon="10.251822">
<ele>1001.8</ele>
<time>2014-05-01T06:50:29Z</time>
<speed>1.3</speed>
</trkpt>
<trkpt lat="47.396371" lon="10.251776">
<ele>1000.0</ele>
<time>2014-05-01T06:50:34Z</time>
<speed>1.0</speed>
</trkpt>
<trkpt lat="47.396291" lon="10.251730">
<ele>1003.6</ele>
<time>2014-05-01T06:50:39Z</time>
<speed>1.1</speed>
</trkpt>
<trkpt lat="47.396232" lon="10.251677">
<ele>1005.6</ele>
<time>2014-05-01T06:50:44Z</time>
<speed>0.9</speed>
</trkpt>
<trkpt lat="47.396161" lon="10.251624">
<ele>1006.8</ele>
<time>2014-05-01T06:50:49Z</time>
<speed>1.3</speed>
</trkpt>
<trkpt lat="47.396076" lon="10.251579">
<ele>1008.6</ele>
<time>2014-05-01T06:50:54Z</time>
<speed>1.4</speed>
</trkpt>
<trkpt lat="47.396009" lon="10.251541">
<ele>1009.6</ele>
<time>2014-05-01T06:50:59Z</time>
<speed>1.3</speed>
</trkpt>
<trkpt lat="47.395943" lon="10.251511">
<ele>1007.6</ele>
<time>2014-05-01T06:51:04Z</time>
<speed>1.5</speed>
</trkpt>
<trkpt lat="47.395868" lon="10.251492">
<ele>1011.6</ele>
<time>2014-05-01T06:51:09Z</time>
<speed>1.4</speed>
</trkpt>
<trkpt lat="47.395803" lon="10.251474">
<ele>1014.8</ele>
<time>2014-05-01T06:51:14Z</time>
<speed>1.3</speed>
</trkpt>
<trkpt lat="47.395731" lon="10.251434">
<ele>1014.4</ele>
<time>2014-05-01T06:51:19Z</time>
<speed>1.6</speed>
</trkpt>
<trkpt lat="47.395661" lon="10.251392">
<ele>1016.6</ele>
<time>2014-05-01T06:51:24Z</time>
<speed>1.6</speed>
</trkpt>
<trkpt lat="47.395601" lon="10.251337">
<ele>1016.6</ele>
<time>2014-05-01T06:51:29Z</time>
<speed>1.5</speed>
</trkpt>
<trkpt lat="47.395539" lon="10.251280">
<ele>1017.4</ele>
<time>2014-05-01T06:51:34Z</time>
<speed>1.5</speed>
</trkpt>
<trkpt lat="47.395467" lon="10.251241">
<ele>1020.8</ele>
<time>2014-05-01T06:51:39Z</time>
<speed>1.6</speed>
</trkpt>
<trkpt lat="47.395403" lon="10.251233">
<ele>1023.2</ele>
<time>2014-05-01T06:51:44Z</time>
<speed>1.5</speed>
</trkpt>
<trkpt lat="47.395338" lon="10.251198">
<ele>1021.8</ele>
<time>2014-05-01T06:51:49Z</time>
<speed>1.6</speed>
</trkpt>
<trkpt lat="47.395274" lon="10.251163">
<ele>1025.8</ele>
<time>2014-05-01T06:51:54Z</time>
<speed>1.5</speed>
</trkpt>
<trkpt lat="47.395222" lon="10.251099">
<ele>1024.4</ele>
<time>2014-05-01T06:51:59Z</time>
<speed>1.7</speed>
</trkpt>
<trkpt lat="47.395170" lon="10.251029">
<ele>1026.2</ele>
<time>2014-05-01T06:52:04Z</time>
<speed>1.7</speed>
</trkpt>
<trkpt lat="47.395127" lon="10.250943">
<ele>1027.6</ele>
<time>2014-05-01T06:52:09Z</time>
<speed>1.6</speed>
</trkpt>
<trkpt lat="47.395084" lon="10.250860">
<ele>1025.6</ele>
<time>2014-05-01T06:52:14Z</time>
<speed>1.6</speed>
</trkpt>
<trkpt lat="47.395040" lon="10.250781">
<ele>1026.8</ele>
<time>2014-05-01T06:52:19Z</time>
<speed>1.6</speed>
</trkpt>
<trkpt lat="47.394972" lon="10.250728">
<ele>1031.0</ele>
<time>2014-05-01T06:52:24Z</time>
<speed>1.5</speed>
</trkpt>
<trkpt lat="47.394905" lon="10.250701">
<ele>1029.2</ele>
<time>2014-05-01T06:52:29Z</time>
<speed>1.5</speed>
</trkpt>
<trkpt lat="47.394835" lon="10.250701">
<ele>1031.8</ele>
<time>2014-05-01T06:52:34Z</time>
<speed>1.5</speed>
</trkpt>
<trkpt lat="47.394765" lon="10.250709">
<ele>1031.6</ele>
<time>2014-05-01T06:52:39Z</time>
<speed>1.5</speed>
</trkpt>
<trkpt lat="47.394700" lon="10.250732">
<ele>1031.0</ele>
<time>2014-05-01T06:52:44Z</time>
<speed>1.3</speed>
</trkpt>
<trkpt lat="47.394627" lon="10.250723">
<ele>1033.2</ele>
<time>2014-05-01T06:52:49Z</time>
<speed>1.7</speed>
</trkpt>
<trkpt lat="47.394534" lon="10.250733">
<ele>1033.2</ele>
<time>2014-05-01T06:52:54Z</time>
<speed>2.4</speed>
</trkpt>
<trkpt lat="47.394402" lon="10.250844">
<ele>1032.8</ele>
<time>2014-05-01T06:52:59Z</time>
<speed>3.5</speed>
</trkpt>
<trkpt lat="47.394186" lon="10.250967">
<ele>1033.0</ele>
<time>2014-05-01T06:53:04Z</time>
<speed>5.2</speed>
</trkpt>
<trkpt lat="47.393920" lon="10.251141">
<ele>1032.0</ele>
<time>2014-05-01T06:53:09Z</time>
<speed>5.6</speed>
</trkpt>
<trkpt lat="47.393660" lon="10.251419">
<ele>1032.2</ele>
<time>2014-05-01T06:53:14Z</time>
<speed>6.3</speed>
</trkpt>
<trkpt lat="47.393388" lon="10.251819">
<ele>1030.2</ele>
<time>2014-05-01T06:53:19Z</time>
<speed>8.0</speed>
</trkpt>
<trkpt lat="47.393103" lon="10.252094">
<ele>1027.8</ele>
<time>2014-05-01T06:53:24Z</time>
<speed>7.2</speed>
</trkpt>
<trkpt lat="47.392813" lon="10.252065">
<ele>1027.0</ele>
<time>2014-05-01T06:53:29Z</time>
<speed>6.2</speed>
</trkpt>
<trkpt lat="47.392469" lon="10.252027">
<ele>1026.2</ele>
<time>2014-05-01T06:53:34Z</time>
<speed>6.7</speed>
</trkpt>
<trkpt lat="47.392108" lon="10.252141">
<ele>1024.2</ele>
<time>2014-05-01T06:53:39Z</time>
<speed>7.8</speed>
</trkpt>
<trkpt lat="47.391756" lon="10.252180">
<ele>1025.2</ele>
<time>2014-05-01T06:53:44Z</time>
<speed>7.4</speed>
</trkpt>
<trkpt lat="47.391403" lon="10.252484">
<ele>1021.4</ele>
<time>2014-05-01T06:53:49Z</time>
<speed>8.4</speed>
</trkpt>
<trkpt lat="47.391098" lon="10.252735">
<ele>1020.4</ele>
<time>2014-05-01T06:53:54Z</time>
<speed>7.8</speed>
</trkpt>
<trkpt lat="47.390762" lon="10.252997">
<ele>1016.6</ele>
<time>2014-05-01T06:53:59Z</time>
<speed>8.1</speed>
</trkpt>
<trkpt lat="47.390474" lon="10.253360">
<ele>1012.4</ele>
<time>2014-05-01T06:54:04Z</time>
<speed>8.2</speed>
</trkpt>
<trkpt lat="47.390248" lon="10.253791">
<ele>1012.0</ele>
<time>2014-05-01T06:54:09Z</time>
<speed>7.9</speed>
</trkpt>
<trkpt lat="47.389976" lon="10.254072">
<ele>1009.2</ele>
<time>2014-05-01T06:54:14Z</time>
<speed>7.5</speed>
</trkpt>
<trkpt lat="47.389724" lon="10.254206">
<ele>1009.0</ele>
<time>2014-05-01T06:54:19Z</time>
<speed>6.9</speed>
</trkpt>
<trkpt lat="47.389449" lon="10.254321">
<ele>1006.8</ele>
<time>2014-05-01T06:54:24Z</time>
<speed>7.2</speed>
</trkpt>
<trkpt lat="47.389146" lon="10.254528">
<ele>1006.4</ele>
<time>2014-05-01T06:54:29Z</time>
<speed>7.3</speed>
</trkpt>
<trkpt lat="47.388858" lon="10.254775">
<ele>1006.4</ele>
<time>2014-05-01T06:54:34Z</time>
<speed>6.9</speed>
</trkpt>
<trkpt lat="47.388610" lon="10.255005">
<ele>999.8</ele>
<time>2014-05-01T06:54:39Z</time>
<speed>6.2</speed>
</trkpt>
<trkpt lat="47.388372" lon="10.255133">
<ele>1003.2</ele>
<time>2014-05-01T06:54:44Z</time>
<speed>5.5</speed>
</trkpt>
<trkpt lat="47.388121" lon="10.255007">
<ele>1005.0</ele>
<time>2014-05-01T06:54:49Z</time>
<speed>5.1</speed>
</trkpt>
<trkpt lat="47.387957" lon="10.254931">
<ele>1005.0</ele>
<time>2014-05-01T06:54:54Z</time>
<speed>3.5</speed>
</trkpt>
<trkpt lat="47.388002" lon="10.255044">
<ele>1005.0</ele>
<time>2014-05-01T06:54:59Z</time>
<speed>2.0</speed>
</trkpt>
<trkpt lat="47.387782" lon="10.255057">
<ele>1003.2</ele>
<time>2014-05-01T06:55:04Z</time>
<speed>4.5</speed>
</trkpt>
<trkpt lat="47.387518" lon="10.255029">
<ele>1002.0</ele>
<time>2014-05-01T06:55:09Z</time>
<speed>5.2</speed>
</trkpt>
<trkpt lat="47.387317" lon="10.255165">
<ele>1000.6</ele>
<time>2014-05-01T06:55:14Z</time>
<speed>4.3</speed>
</trkpt>
<trkpt lat="47.387161" lon="10.255532">
<ele>999.2</ele>
<time>2014-05-01T06:55:19Z</time>
<speed>6.2</speed>
</trkpt>
<trkpt lat="47.386936" lon="10.255769">
<ele>999.6</ele>
<time>2014-05-01T06:55:24Z</time>
<speed>5.8</speed>
</trkpt>
<trkpt lat="47.386716" lon="10.255973">
<ele>997.4</ele>
<time>2014-05-01T06:55:29Z</time>
<speed>6.0</speed>
</trkpt>
<trkpt lat="47.386535" lon="10.256215">
<ele>998.0</ele>
<time>2014-05-01T06:55:34Z</time>
<speed>5.1</speed>
</trkpt>
<trkpt lat="47.386320" lon="10.256290">
<ele>1000.0</ele>
<time>2014-05-01T06:55:39Z</time>
<speed>5.2</speed>
</trkpt>
<trkpt lat="47.386020" lon="10.256477">
<ele>996.2</ele>
<time>2014-05-01T06:55:44Z</time>
<speed>5.5</speed>
</trkpt>
<trkpt lat="47.385766" lon="10.256646">
<ele>994.8</ele>
<time>2014-05-01T06:55:49Z</time>
<speed>6.6</speed>
</trkpt>
<trkpt lat="47.385408" lon="10.256821">
<ele>990.8</ele>
<time>2014-05-01T06:55:54Z</time>
<speed>8.0</speed>
</trkpt>
<trkpt lat="47.385077" lon="10.256962">
<ele>989.4</ele>
<time>2014-05-01T06:55:59Z</time>
<speed>6.9</speed>
</trkpt>
<trkpt lat="47.384755" lon="10.256946">
<ele>989.8</ele>
<time>2014-05-01T06:56:04Z</time>
<speed>7.0</speed>
</trkpt>
<trkpt lat="47.384435" lon="10.256828">
<ele>987.6</ele>
<time>2014-05-01T06:56:09Z</time>
<speed>6.6</speed>
</trkpt>
<trkpt lat="47.384242" lon="10.256875">
<ele>988.2</ele>
<time>2014-05-01T06:56:14Z</time>
<speed>4.2</speed>
</trkpt>
<trkpt lat="47.384193" lon="10.256960">
<ele>984.6</ele>
<time>2014-05-01T06:56:19Z</time>
<speed>2.3</speed>
</trkpt>
<trkpt lat="47.384140" lon="10.257198">
<ele>985.6</ele>
<time>2014-05-01T06:56:24Z</time>
<speed>3.3</speed>
</trkpt>
<trkpt lat="47.383993" lon="10.257561">
<ele>982.0</ele>
<time>2014-05-01T06:56:29Z</time>
<speed>4.6</speed>
</trkpt>
<trkpt lat="47.383870" lon="10.258113">
<ele>982.6</ele>
<time>2014-05-01T06:56:34Z</time>
<speed>6.3</speed>
</trkpt>
<trkpt lat="47.383800" lon="10.258602">
<ele>981.2</ele>
<time>2014-05-01T06:56:39Z</time>
<speed>6.1</speed>
</trkpt>
<trkpt lat="47.383718" lon="10.259005">
<ele>981.6</ele>
<time>2014-05-01T06:56:44Z</time>
<speed>5.8</speed>
</trkpt>
<trkpt lat="47.383548" lon="10.259406">
<ele>979.8</ele>
<time>2014-05-01T06:56:49Z</time>
<speed>6.0</speed>
</trkpt>
<trkpt lat="47.383453" lon="10.259848">
<ele>980.4</ele>
<time>2014-05-01T06:56:54Z</time>
<speed>6.2</speed>
</trkpt>
<trkpt lat="47.383346" lon="10.260268">
<ele>982.2</ele>
<time>2014-05-01T06:56:59Z</time>
<speed>5.0</speed>
</trkpt>
<trkpt lat="47.383195" lon="10.260736">
<ele>980.0</ele>
<time>2014-05-01T06:57:04Z</time>
<speed>5.9</speed>
</trkpt>
<trkpt lat="47.383014" lon="10.261142">
<ele>980.4</ele>
<time>2014-05-01T06:57:09Z</time>
<speed>6.4</speed>
</trkpt>
<trkpt lat="47.382861" lon="10.261497">
<ele>977.6</ele>
<time>2014-05-01T06:57:14Z</time>
<speed>6.0</speed>
</trkpt>
<trkpt lat="47.382718" lon="10.261755">
<ele>977.6</ele>
<time>2014-05-01T06:57:19Z</time>
<speed>4.7</speed>
</trkpt>
<trkpt lat="47.382551" lon="10.261987">
<ele>975.0</ele>
<time>2014-05-01T06:57:24Z</time>
<speed>4.5</speed>
</trkpt>
<trkpt lat="47.382416" lon="10.262186">
<ele>971.4</ele>
<time>2014-05-01T06:57:29Z</time>
<speed>4.0</speed>
</trkpt>
<trkpt lat="47.382189" lon="10.262363">
<ele>967.8</ele>
<time>2014-05-01T06:57:34Z</time>
<speed>4.3</speed>
</trkpt>
<trkpt lat="47.382276" lon="10.262511">
<ele>967.2</ele>
<time>2014-05-01T06:57:39Z</time>
<speed>2.6</speed>
</trkpt>
<trkpt lat="47.382454" lon="10.262680">
<ele>967.4</ele>
<time>2014-05-01T06:57:44Z</time>
<speed>3.3</speed>
</trkpt>
<trkpt lat="47.382624" lon="10.262883">
<ele>966.4</ele>
<time>2014-05-01T06:57:49Z</time>
<speed>4.0</speed>
</trkpt>
<trkpt lat="47.382843" lon="10.263077">
<ele>964.8</ele>
<time>2014-05-01T06:57:54Z</time>
<speed>4.1</speed>
</trkpt>
<trkpt lat="47.383055" lon="10.263306">
<ele>964.4</ele>
<time>2014-05-01T06:57:59Z</time>
<speed>4.0</speed>
</trkpt>
<trkpt lat="47.383211" lon="10.263613">
<ele>963.0</ele>
<time>2014-05-01T06:58:04Z</time>
<speed>4.3</speed>
</trkpt>
<trkpt lat="47.383191" lon="10.263883">
<ele>962.0</ele>
<time>2014-05-01T06:58:09Z</time>
<speed>3.4</speed>
</trkpt>
<trkpt lat="47.382955" lon="10.264151">
<ele>960.6</ele>
<time>2014-05-01T06:58:14Z</time>
<speed>4.2</speed>
</trkpt>
<trkpt lat="47.382719" lon="10.264360">
<ele>956.6</ele>
<time>2014-05-01T06:58:19Z</time>
<speed>4.8</speed>
</trkpt>
<trkpt lat="47.382387" lon="10.264439">
<ele>956.2</ele>
<time>2014-05-01T06:58:24Z</time>
<speed>5.9</speed>
</trkpt>
<trkpt lat="47.382193" lon="10.264600">
<ele>954.8</ele>
<time>2014-05-01T06:58:29Z</time>
<speed>4.4</speed>
</trkpt>
<trkpt lat="47.382011" lon="10.264534">
<ele>958.2</ele>
<time>2014-05-01T06:58:34Z</time>
<speed>4.3</speed>
</trkpt>
<trkpt lat="47.381853" lon="10.264304">
<ele>954.0</ele>
<time>2014-05-01T06:58:39Z</time>
<speed>3.8</speed>
</trkpt>
<trkpt lat="47.381631" lon="10.264145">
<ele>955.0</ele>
<time>2014-05-01T06:58:44Z</time>
<speed>5.2</speed>
</trkpt>
<trkpt lat="47.381420" lon="10.264002">
<ele>956.8</ele>
<time>2014-05-01T06:58:49Z</time>
<speed>4.5</speed>
</trkpt>
<trkpt lat="47.381183" lon="10.263909">
<ele>956.0</ele>
<time>2014-05-01T06:58:54Z</time>
<speed>5.3</speed>
</trkpt>
<trkpt lat="47.380927" lon="10.263715">
<ele>958.2</ele>
<time>2014-05-01T06:58:59Z</time>
<speed>5.8</speed>
</trkpt>
<trkpt lat="47.380710" lon="10.263434">
<ele>951.8</ele>
<time>2014-05-01T06:59:04Z</time>
<speed>6.0</speed>
</trkpt>
<trkpt lat="47.380447" lon="10.263284">
<ele>953.8</ele>
<time>2014-05-01T06:59:09Z</time>
<speed>6.2</speed>
</trkpt>
<trkpt lat="47.380168" lon="10.263231">
<ele>952.6</ele>
<time>2014-05-01T06:59:14Z</time>
<speed>6.2</speed>
</trkpt>
<trkpt lat="47.379899" lon="10.263333">
<ele>953.6</ele>
<time>2014-05-01T06:59:19Z</time>
<speed>5.7</speed>
</trkpt>
<trkpt lat="47.379633" lon="10.263451">
<ele>952.6</ele>
<time>2014-05-01T06:59:24Z</time>
<speed>5.9</speed>
</trkpt>
<trkpt lat="47.379350" lon="10.263784">
<ele>954.0</ele>
<time>2014-05-01T06:59:30Z</time>
<speed>6.2</speed>
</trkpt>
<trkpt lat="47.379173" lon="10.264052">
<ele>955.4</ele>
<time>2014-05-01T06:59:35Z</time>
<speed>5.2</speed>
</trkpt>
<trkpt lat="47.379001" lon="10.264341">
<ele>956.2</ele>
<time>2014-05-01T06:59:40Z</time>
<speed>5.5</speed>
</trkpt>
<trkpt lat="47.378924" lon="10.264598">
<ele>957.2</ele>
<time>2014-05-01T06:59:45Z</time>
<speed>4.0</speed>
</trkpt>
<trkpt lat="47.378830" lon="10.264827">
<ele>959.4</ele>
<time>2014-05-01T06:59:51Z</time>
<speed>2.6</speed>
</trkpt>
<trkpt lat="47.378699" lon="10.265023">
<ele>963.8</ele>
<time>2014-05-01T06:59:57Z</time>
<speed>2.9</speed>
</trkpt>
<trkpt lat="47.378613" lon="10.265203">
<ele>961.6</ele>
<time>2014-05-01T07:00:02Z</time>
<speed>2.8</speed>
</trkpt>
<trkpt lat="47.378468" lon="10.265377">
<ele>962.0</ele>
<time>2014-05-01T07:00:07Z</time>
<speed>3.7</speed>
</trkpt>
<trkpt lat="47.378308" lon="10.265560">
<ele>961.6</ele>
<time>2014-05-01T07:00:12Z</time>
<speed>3.8</speed>
</trkpt>
<trkpt lat="47.378120" lon="10.265551">
<ele>961.2</ele>
<time>2014-05-01T07:00:17Z</time>
<speed>4.2</speed>
</trkpt>
<trkpt lat="47.377860" lon="10.265478">
<ele>957.8</ele>
<time>2014-05-01T07:00:22Z</time>
<speed>5.6</speed>
</trkpt>
<trkpt lat="47.377604" lon="10.265463">
<ele>958.8</ele>
<time>2014-05-01T07:00:27Z</time>
<speed>5.4</speed>
</trkpt>
<trkpt lat="47.377501" lon="10.265476">
<ele>961.4</ele>
<time>2014-05-01T07:00:32Z</time>
<speed>2.1</speed>
</trkpt>
<trkpt lat="47.377433" lon="10.265489">
<ele>961.6</ele>
<time>2014-05-01T07:00:37Z</time>
<speed>1.9</speed>
</trkpt>
<trkpt lat="47.377345" lon="10.265536">
<ele>964.6</ele>
<time>2014-05-01T07:00:42Z</time>
<speed>1.9</speed>
</trkpt>
<trkpt lat="47.377278" lon="10.265619">
<ele>968.0</ele>
<time>2014-05-01T07:00:47Z</time>
<speed>1.8</speed>
</trkpt>
<trkpt lat="47.377214" lon="10.265732">
<ele>966.2</ele>
<time>2014-05-01T07:00:52Z</time>
<speed>1.4</speed>
</trkpt>
<trkpt lat="47.377171" lon="10.265818">
<ele>971.6</ele>
<time>2014-05-01T07:00:57Z</time>
<speed>0.9</speed>
</trkpt>
<trkpt lat="47.377127" lon="10.265895">
<ele>975.8</ele>
<time>2014-05-01T07:01:02Z</time>
<speed>1.4</speed>
</trkpt>
<trkpt lat="47.377078" lon="10.265956">
<ele>975.4</ele>
<time>2014-05-01T07:01:07Z</time>
<speed>1.4</speed>
</trkpt>
<trkpt lat="47.377022" lon="10.266071">
<ele>974.6</ele>
<time>2014-05-01T07:01:12Z</time>
<speed>1.8</speed>
</trkpt>
<trkpt lat="47.376916" lon="10.266207">
<ele>974.2</ele>
<time>2014-05-01T07:01:17Z</time>
<speed>2.4</speed>
</trkpt>
<trkpt lat="47.376795" lon="10.266330">
<ele>972.4</ele>
<time>2014-05-01T07:01:22Z</time>
<speed>2.7</speed>
</trkpt>
<trkpt lat="47.376709" lon="10.266316">
<ele>972.0</ele>
<time>2014-05-01T07:01:27Z</time>
<speed>1.7</speed>
</trkpt>
<trkpt lat="47.376567" lon="10.266248">
<ele>975.0</ele>
<time>2014-05-01T07:01:32Z</time>
<speed>3.1</speed>
</trkpt>
<trkpt lat="47.376409" lon="10.266077">
<ele>971.6</ele>
<time>2014-05-01T07:01:37Z</time>
<speed>3.5</speed>
</trkpt>
<trkpt lat="47.376285" lon="10.265876">
<ele>972.8</ele>
<time>2014-05-01T07:01:42Z</time>
<speed>3.5</speed>
</trkpt>
<trkpt lat="47.376172" lon="10.265689">
<ele>971.8</ele>
<time>2014-05-01T07:01:47Z</time>
<speed>2.9</speed>
</trkpt>
<trkpt lat="47.376083" lon="10.265504">
<ele>968.8</ele>
<time>2014-05-01T07:01:52Z</time>
<speed>2.7</speed>
</trkpt>
<trkpt lat="47.375997" lon="10.265339">
<ele>972.8</ele>
<time>2014-05-01T07:01:57Z</time>
<speed>2.7</speed>
</trkpt>
<trkpt lat="47.375885" lon="10.265210">
<ele>973.2</ele>
<time>2014-05-01T07:02:02Z</time>
<speed>2.3</speed>
</trkpt>
<trkpt lat="47.375716" lon="10.265107">
<ele>973.8</ele>
<time>2014-05-01T07:02:07Z</time>
<speed>3.9</speed>
</trkpt>
<trkpt lat="47.375532" lon="10.264972">
<ele>975.2</ele>
<time>2014-05-01T07:02:12Z</time>
<speed>4.4</speed>
</trkpt>
<trkpt lat="47.375331" lon="10.264819">
<ele>975.4</ele>
<time>2014-05-01T07:02:17Z</time>
<speed>4.6</speed>
</trkpt>
<trkpt lat="47.375129" lon="10.264669">
<ele>976.6</ele>
<time>2014-05-01T07:02:22Z</time>
<speed>4.4</speed>
</trkpt>
<trkpt lat="47.374958" lon="10.264619">
<ele>981.6</ele>
<time>2014-05-01T07:02:27Z</time>
<speed>3.7</speed>
</trkpt>
<trkpt lat="47.374782" lon="10.264649">
<ele>983.0</ele>
<time>2014-05-01T07:02:32Z</time>
<speed>3.7</speed>
</trkpt>
<trkpt lat="47.374589" lon="10.264754">
<ele>982.2</ele>
<time>2014-05-01T07:02:37Z</time>
<speed>4.1</speed>
</trkpt>
<trkpt lat="47.374384" lon="10.264894">
<ele>985.0</ele>
<time>2014-05-01T07:02:42Z</time>
<speed>3.6</speed>
</trkpt>
<trkpt lat="47.374237" lon="10.264979">
<ele>987.2</ele>
<time>2014-05-01T07:02:47Z</time>
<speed>3.0</speed>
</trkpt>
<trkpt lat="47.374060" lon="10.264803">
<ele>984.4</ele>
<time>2014-05-01T07:02:52Z</time>
<speed>4.1</speed>
</trkpt>
<trkpt lat="47.373821" lon="10.264595">
<ele>984.0</ele>
<time>2014-05-01T07:02:57Z</time>
<speed>5.3</speed>
</trkpt>
<trkpt lat="47.373574" lon="10.264482">
<ele>979.8</ele>
<time>2014-05-01T07:03:02Z</time>
<speed>5.4</speed>
</trkpt>
<trkpt lat="47.373207" lon="10.264316">
<ele>980.4</ele>
<time>2014-05-01T07:03:07Z</time>
<speed>7.9</speed>
</trkpt>
<trkpt lat="47.372863" lon="10.264083">
<ele>980.6</ele>
<time>2014-05-01T07:03:12Z</time>
<speed>7.1</speed>
</trkpt>
<trkpt lat="47.372555" lon="10.263866">
<ele>977.8</ele>
<time>2014-05-01T07:03:17Z</time>
<speed>6.3</speed>
</trkpt>
<trkpt lat="47.372278" lon="10.263659">
<ele>979.4</ele>
<time>2014-05-01T07:03:22Z</time>
<speed>6.0</speed>
</trkpt>
<trkpt lat="47.372022" lon="10.263242">
<ele>978.2</ele>
<time>2014-05-01T07:03:27Z</time>
<speed>7.5</speed>
</trkpt>
<trkpt lat="47.371808" lon="10.262696">
<ele>974.4</ele>
<time>2014-05-01T07:03:32Z</time>
<speed>8.0</speed>
</trkpt>
<trkpt lat="47.371734" lon="10.262172">
<ele>977.2</ele>
<time>2014-05-01T07:03:37Z</time>
<speed>7.4</speed>
</trkpt>
<trkpt lat="47.371486" lon="10.261907">
<ele>973.8</ele>
<time>2014-05-01T07:03:42Z</time>
<speed>6.1</speed>
</trkpt>
<trkpt lat="47.371265" lon="10.261668">
<ele>976.4</ele>
<time>2014-05-01T07:03:47Z</time>
<speed>5.6</speed>
</trkpt>
<trkpt lat="47.371060" lon="10.261509">
<ele>974.2</ele>
<time>2014-05-01T07:03:52Z</time>
<speed>4.9</speed>
</trkpt>
<trkpt lat="47.370878" lon="10.261433">
<ele>975.4</ele>
<time>2014-05-01T07:03:57Z</time>
<speed>4.0</speed>
</trkpt>
<trkpt lat="47.370690" lon="10.261439">
<ele>972.6</ele>
<time>2014-05-01T07:04:02Z</time>
<speed>4.1</speed>
</trkpt>
<trkpt lat="47.370510" lon="10.261509">
<ele>968.8</ele>
<time>2014-05-01T07:04:07Z</time>
<speed>4.0</speed>
</trkpt>
<trkpt lat="47.370326" lon="10.261613">
<ele>970.6</ele>
<time>2014-05-01T07:04:12Z</time>
<speed>4.7</speed>
</trkpt>
<trkpt lat="47.370206" lon="10.261601">
<ele>967.2</ele>
<time>2014-05-01T07:04:17Z</time>
<speed>0.4</speed>
</trkpt>
<trkpt lat="47.370204" lon="10.261572">
<ele>965.2</ele>
<time>2014-05-01T07:05:20Z</time>
<speed>0.5</speed>
</trkpt>
<trkpt lat="47.370052" lon="10.261534">
<ele>964.4</ele>
<time>2014-05-01T07:05:26Z</time>
<speed>4.3</speed>
</trkpt>
<trkpt lat="47.369699" lon="10.261421">
<ele>961.4</ele>
<time>2014-05-01T07:05:32Z</time>
<speed>7.1</speed>
</trkpt>
<trkpt lat="47.369399" lon="10.261307">
<ele>960.0</ele>
<time>2014-05-01T07:05:37Z</time>
<speed>6.5</speed>
</trkpt>
<trkpt lat="47.369322" lon="10.260973">
<ele>961.6</ele>
<time>2014-05-01T07:05:42Z</time>
<speed>5.1</speed>
</trkpt>
<trkpt lat="47.369300" lon="10.260582">
<ele>960.6</ele>
<time>2014-05-01T07:05:47Z</time>
<speed>5.2</speed>
</trkpt>
<trkpt lat="47.369257" lon="10.260269">
<ele>963.0</ele>
<time>2014-05-01T07:05:52Z</time>
<speed>3.9</speed>
</trkpt>
<trkpt lat="47.369119" lon="10.260152">
<ele>962.6</ele>
<time>2014-05-01T07:05:57Z</time>
<speed>3.7</speed>
</trkpt>
<trkpt lat="47.368964" lon="10.260150">
<ele>961.6</ele>
<time>2014-05-01T07:06:02Z</time>
<speed>2.9</speed>
</trkpt>
<trkpt lat="47.368861" lon="10.260125">
<ele>960.8</ele>
<time>2014-05-01T07:06:07Z</time>
<speed>1.6</speed>
</trkpt>
<trkpt lat="47.368866" lon="10.260109">
<ele>958.0</ele>
<time>2014-05-01T07:06:36Z</time>
<speed>0.7</speed>
</trkpt>
<trkpt lat="47.368812" lon="10.260113">
<ele>959.8</ele>
<time>2014-05-01T07:06:41Z</time>
<speed>1.6</speed>
</trkpt>
<trkpt lat="47.368836" lon="10.260153">
<ele>959.0</ele>
<time>2014-05-01T07:06:46Z</time>
<speed>1.2</speed>
</trkpt>
<trkpt lat="47.368881" lon="10.260163">
<ele>956.2</ele>
<time>2014-05-01T07:06:51Z</time>
<speed>1.5</speed>
</trkpt>
<trkpt lat="47.368891" lon="10.260052">
<ele>958.2</ele>
<time>2014-05-01T07:06:56Z</time>
<speed>2.4</speed>
</trkpt>
<trkpt lat="47.368947" lon="10.259914">
<ele>958.0</ele>
<time>2014-05-01T07:07:01Z</time>
<speed>2.4</speed>
</trkpt>
<trkpt lat="47.368998" lon="10.259769">
<ele>959.4</ele>
<time>2014-05-01T07:07:06Z</time>
<speed>2.3</speed>
</trkpt>
<trkpt lat="47.369053" lon="10.259626">
<ele>960.0</ele>
<time>2014-05-01T07:07:11Z</time>
<speed>2.4</speed>
</trkpt>
<trkpt lat="47.369089" lon="10.259480">
<ele>962.6</ele>
<time>2014-05-01T07:07:16Z</time>
<speed>2.4</speed>
</trkpt>
<trkpt lat="47.369112" lon="10.259325">
<ele>959.0</ele>
<time>2014-05-01T07:07:21Z</time>
<speed>2.4</speed>
</trkpt>
<trkpt lat="47.369110" lon="10.259170">
<ele>961.0</ele>
<time>2014-05-01T07:07:26Z</time>
<speed>2.4</speed>
</trkpt>
<trkpt lat="47.369101" lon="10.259020">
<ele>962.0</ele>
<time>2014-05-01T07:07:31Z</time>
<speed>2.2</speed>
</trkpt>
<trkpt lat="47.369083" lon="10.258880">
<ele>961.8</ele>
<time>2014-05-01T07:07:36Z</time>
<speed>2.1</speed>
</trkpt>
<trkpt lat="47.369059" lon="10.258750">
<ele>965.6</ele>
<time>2014-05-01T07:07:41Z</time>
<speed>1.7</speed>
</trkpt>
<trkpt lat="47.369043" lon="10.258620">
<ele>965.6</ele>
<time>2014-05-01T07:07:46Z</time>
<speed>1.7</speed>
</trkpt>
<trkpt lat="47.369002" lon="10.258476">
<ele>967.8</ele>
<time>2014-05-01T07:07:51Z</time>
<speed>1.9</speed>
</trkpt>
<trkpt lat="47.368976" lon="10.258365">
<ele>969.2</ele>
<time>2014-05-01T07:07:56Z</time>
<speed>1.5</speed>
</trkpt>
<trkpt lat="47.368944" lon="10.258261">
<ele>967.8</ele>
<time>2014-05-01T07:08:01Z</time>
<speed>1.4</speed>
</trkpt>
<trkpt lat="47.368899" lon="10.258168">
<ele>968.6</ele>
<time>2014-05-01T07:08:06Z</time>
<speed>1.3</speed>
</trkpt>
<trkpt lat="47.368861" lon="10.258035">
<ele>972.0</ele>
<time>2014-05-01T07:08:11Z</time>
<speed>1.5</speed>
</trkpt>
<trkpt lat="47.368808" lon="10.257926">
<ele>975.6</ele>
<time>2014-05-01T07:08:16Z</time>
<speed>1.1</speed>
</trkpt>
<trkpt lat="47.368745" lon="10.257842">
<ele>975.0</ele>
<time>2014-05-01T07:08:21Z</time>
<speed>1.1</speed>
</trkpt>
<trkpt lat="47.368671" lon="10.257731">
<ele>977.0</ele>
<time>2014-05-01T07:08:26Z</time>
<speed>1.2</speed>
</trkpt>
<trkpt lat="47.368609" lon="10.257630">
<ele>981.4</ele>
<time>2014-05-01T07:08:31Z</time>
<speed>1.3</speed>
</trkpt>
<trkpt lat="47.368554" lon="10.257559">
<ele>983.4</ele>
<time>2014-05-01T07:08:36Z</time>
<speed>1.2</speed>
</trkpt>
<trkpt lat="47.368483" lon="10.257450">
<ele>986.4</ele>
<time>2014-05-01T07:08:41Z</time>
<speed>1.5</speed>
</trkpt>
<trkpt lat="47.368427" lon="10.257405">
<ele>990.4</ele>
<time>2014-05-01T07:08:46Z</time>
<speed>1.6</speed>
</trkpt>
<trkpt lat="47.368377" lon="10.257380">
<ele>990.8</ele>
<time>2014-05-01T07:08:51Z</time>
<speed>1.5</speed>
</trkpt>
<trkpt lat="47.368322" lon="10.257340">
<ele>994.0</ele>
<time>2014-05-01T07:08:56Z</time>
<speed>1.4</speed>
</trkpt>
<trkpt lat="47.368267" lon="10.257300">
<ele>994.2</ele>
<time>2014-05-01T07:09:01Z</time>
<speed>1.4</speed>
</trkpt>
<trkpt lat="47.368197" lon="10.257252">
<ele>995.0</ele>
<time>2014-05-01T07:09:06Z</time>
<speed>1.4</speed>
</trkpt>
<trkpt lat="47.368128" lon="10.257199">
<ele>997.6</ele>
<time>2014-05-01T07:09:11Z</time>
<speed>1.5</speed>
</trkpt>
<trkpt lat="47.368044" lon="10.257139">
<ele>1000.8</ele>
<time>2014-05-01T07:09:17Z</time>
<speed>1.6</speed>
</trkpt>
<trkpt lat="47.367957" lon="10.257079">
<ele>1003.4</ele>
<time>2014-05-01T07:09:23Z</time>
<speed>1.5</speed>
</trkpt>
<trkpt lat="47.367875" lon="10.257025">
<ele>1003.0</ele>
<time>2014-05-01T07:09:29Z</time>
<speed>1.4</speed>
</trkpt>
<trkpt lat="47.367780" lon="10.256955">
<ele>1004.4</ele>
<time>2014-05-01T07:09:35Z</time>
<speed>1.9</speed>
</trkpt>
<trkpt lat="47.367698" lon="10.256893">
<ele>1006.4</ele>
<time>2014-05-01T07:09:40Z</time>
<speed>1.9</speed>
</trkpt>
<trkpt lat="47.367612" lon="10.256807">
<ele>1007.0</ele>
<time>2014-05-01T07:09:45Z</time>
<speed>1.8</speed>
</trkpt>
<trkpt lat="47.367538" lon="10.256703">
<ele>1004.0</ele>
<time>2014-05-01T07:09:50Z</time>
<speed>2.2</speed>
</trkpt>
<trkpt lat="47.367472" lon="10.256594">
<ele>1006.8</ele>
<time>2014-05-01T07:09:55Z</time>
<speed>2.0</speed>
</trkpt>
<trkpt lat="47.367390" lon="10.256481">
<ele>1006.4</ele>
<time>2014-05-01T07:10:00Z</time>
<speed>2.2</speed>
</trkpt>
<trkpt lat="47.367299" lon="10.256355">
<ele>1010.8</ele>
<time>2014-05-01T07:10:05Z</time>
<speed>2.1</speed>
</trkpt>
<trkpt lat="47.367218" lon="10.256230">
<ele>1009.2</ele>
<time>2014-05-01T07:10:10Z</time>
<speed>2.0</speed>
</trkpt>
<trkpt lat="47.367141" lon="10.256090">
<ele>1011.2</ele>
<time>2014-05-01T07:10:15Z</time>
<speed>2.1</speed>
</trkpt>
<trkpt lat="47.367068" lon="10.255985">
<ele>1014.8</ele>
<time>2014-05-01T07:10:20Z</time>
<speed>1.8</speed>
</trkpt>
<trkpt lat="47.367019" lon="10.255872">
<ele>1012.4</ele>
<time>2014-05-01T07:10:25Z</time>
<speed>1.6</speed>
</trkpt>
<trkpt lat="47.366980" lon="10.255789">
<ele>1015.4</ele>
<time>2014-05-01T07:10:30Z</time>
<speed>1.3</speed>
</trkpt>
<trkpt lat="47.366951" lon="10.255669">
<ele>1016.2</ele>
<time>2014-05-01T07:10:35Z</time>
<speed>1.5</speed>
</trkpt>
<trkpt lat="47.366918" lon="10.255556">
<ele>1019.2</ele>
<time>2014-05-01T07:10:40Z</time>
<speed>1.5</speed>
</trkpt>
<trkpt lat="47.366887" lon="10.255454">
<ele>1020.4</ele>
<time>2014-05-01T07:10:45Z</time>
<speed>1.5</speed>
</trkpt>
<trkpt lat="47.366835" lon="10.255336">
<ele>1023.4</ele>
<time>2014-05-01T07:10:50Z</time>
<speed>1.9</speed>
</trkpt>
<trkpt lat="47.366782" lon="10.255235">
<ele>1019.2</ele>
<time>2014-05-01T07:10:55Z</time>
<speed>1.5</speed>
</trkpt>
<trkpt lat="47.366713" lon="10.255121">
<ele>1023.8</ele>
<time>2014-05-01T07:11:00Z</time>
<speed>1.8</speed>
</trkpt>
<trkpt lat="47.366673" lon="10.255029">
<ele>1022.4</ele>
<time>2014-05-01T07:11:05Z</time>
<speed>1.3</speed>
</trkpt>
<trkpt lat="47.366667" lon="10.254902">
<ele>1023.0</ele>
<time>2014-05-01T07:11:10Z</time>
<speed>1.8</speed>
</trkpt>
<trkpt lat="47.366668" lon="10.254770">
<ele>1024.8</ele>
<time>2014-05-01T07:11:15Z</time>
<speed>1.9</speed>
</trkpt>
<trkpt lat="47.366685" lon="10.254639">
<ele>1021.4</ele>
<time>2014-05-01T07:11:20Z</time>
<speed>1.9</speed>
</trkpt>
<trkpt lat="47.366682" lon="10.254523">
<ele>1021.8</ele>
<time>2014-05-01T07:11:25Z</time>
<speed>1.5</speed>
</trkpt>
<trkpt lat="47.366640" lon="10.254414">
<ele>1023.2</ele>
<time>2014-05-01T07:11:30Z</time>
<speed>1.8</speed>
</trkpt>
<trkpt lat="47.366582" lon="10.254319">
<ele>1023.8</ele>
<time>2014-05-01T07:11:35Z</time>
<speed>1.8</speed>
</trkpt>
<trkpt lat="47.366514" lon="10.254223">
<ele>1026.4</ele>
<time>2014-05-01T07:11:40Z</time>
<speed>1.8</speed>
</trkpt>
<trkpt lat="47.366450" lon="10.254112">
<ele>1026.2</ele>
<time>2014-05-01T07:11:45Z</time>
<speed>1.7</speed>
</trkpt>
<trkpt lat="47.366390" lon="10.254006">
<ele>1028.8</ele>
<time>2014-05-01T07:11:50Z</time>
<speed>1.7</speed>
</trkpt>
<trkpt lat="47.366330" lon="10.253923">
<ele>1031.4</ele>
<time>2014-05-01T07:11:55Z</time>
<speed>1.6</speed>
</trkpt>
<trkpt lat="47.366281" lon="10.253818">
<ele>1031.8</ele>
<time>2014-05-01T07:12:00Z</time>
<speed>1.7</speed>
</trkpt>
<trkpt lat="47.366218" lon="10.253726">
<ele>1030.4</ele>
<time>2014-05-01T07:12:05Z</time>
<speed>1.8</speed>
</trkpt>
<trkpt lat="47.366159" lon="10.253634">
<ele>1033.6</ele>
<time>2014-05-01T07:12:10Z</time>
<speed>1.7</speed>
</trkpt>
<trkpt lat="47.366105" lon="10.253557">
<ele>1037.0</ele>
<time>2014-05-01T07:12:15Z</time>
<speed>1.7</speed>
</trkpt>
<trkpt lat="47.366031" lon="10.253474">
<ele>1038.6</ele>
<time>2014-05-01T07:12:20Z</time>
<speed>1.8</speed>
</trkpt>
<trkpt lat="47.365957" lon="10.253409">
<ele>1038.4</ele>
<time>2014-05-01T07:12:25Z</time>
<speed>1.8</speed>
</trkpt>
<trkpt lat="47.365879" lon="10.253330">
<ele>1040.0</ele>
<time>2014-05-01T07:12:30Z</time>
<speed>1.9</speed>
</trkpt>
<trkpt lat="47.365811" lon="10.253286">
<ele>1042.2</ele>
<time>2014-05-01T07:12:35Z</time>
<speed>1.6</speed>
</trkpt>
<trkpt lat="47.365754" lon="10.253208">
<ele>1040.2</ele>
<time>2014-05-01T07:12:40Z</time>
<speed>1.5</speed>
</trkpt>
<trkpt lat="47.365767" lon="10.253142">
<ele>1042.2</ele>
<time>2014-05-01T07:12:46Z</time>
<speed>1.5</speed>
</trkpt>
<trkpt lat="47.365848" lon="10.253075">
<ele>1041.6</ele>
<time>2014-05-01T07:12:51Z</time>
<speed>1.9</speed>
</trkpt>
<trkpt lat="47.365917" lon="10.253007">
<ele>1042.2</ele>
<time>2014-05-01T07:12:56Z</time>
<speed>1.6</speed>
</trkpt>
<trkpt lat="47.365975" lon="10.252929">
<ele>1046.0</ele>
<time>2014-05-01T07:13:01Z</time>
<speed>1.7</speed>
</trkpt>
<trkpt lat="47.366023" lon="10.252865">
<ele>1045.2</ele>
<time>2014-05-01T07:13:06Z</time>
<speed>1.0</speed>
</trkpt>
<trkpt lat="47.366070" lon="10.252830">
<ele>1043.8</ele>
<time>2014-05-01T07:13:11Z</time>
<speed>1.2</speed>
</trkpt>
<trkpt lat="47.366114" lon="10.252762">
<ele>1048.6</ele>
<time>2014-05-01T07:13:16Z</time>
<speed>1.4</speed>
</trkpt>
<trkpt lat="47.366173" lon="10.252696">
<ele>1046.2</ele>
<time>2014-05-01T07:13:21Z</time>
<speed>1.3</speed>
</trkpt>
<trkpt lat="47.366197" lon="10.252633">
<ele>1051.8</ele>
<time>2014-05-01T07:13:26Z</time>
<speed>1.0</speed>
</trkpt>
<trkpt lat="47.366262" lon="10.252585">
<ele>1052.6</ele>
<time>2014-05-01T07:13:31Z</time>
<speed>1.0</speed>
</trkpt>
<trkpt lat="47.366358" lon="10.252486">
<ele>1055.0</ele>
<time>2014-05-01T07:13:36Z</time>
<speed>1.4</speed>
</trkpt>
<trkpt lat="47.366456" lon="10.252390">
<ele>1055.6</ele>
<time>2014-05-01T07:13:41Z</time>
<speed>1.6</speed>
</trkpt>
<trkpt lat="47.366521" lon="10.252306">
<ele>1057.0</ele>
<time>2014-05-01T07:13:46Z</time>
<speed>1.3</speed>
</trkpt>
<trkpt lat="47.366580" lon="10.252233">
<ele>1059.8</ele>
<time>2014-05-01T07:13:51Z</time>
<speed>1.5</speed>
</trkpt>
<trkpt lat="47.366626" lon="10.252179">
<ele>1061.6</ele>
<time>2014-05-01T07:13:56Z</time>
<speed>1.3</speed>
</trkpt>
<trkpt lat="47.366650" lon="10.252143">
<ele>1062.4</ele>
<time>2014-05-01T07:14:01Z</time>
<speed>0.7</speed>
</trkpt>
<trkpt lat="47.366703" lon="10.252072">
<ele>1065.0</ele>
<time>2014-05-01T07:14:06Z</time>
<speed>1.3</speed>
</trkpt>
<trkpt lat="47.366772" lon="10.251994">
<ele>1064.6</ele>
<time>2014-05-01T07:14:11Z</time>
<speed>1.6</speed>
</trkpt>
<trkpt lat="47.366833" lon="10.251921">
<ele>1065.4</ele>
<time>2014-05-01T07:14:16Z</time>
<speed>1.5</speed>
</trkpt>
<trkpt lat="47.366908" lon="10.251850">
<ele>1067.4</ele>
<time>2014-05-01T07:14:21Z</time>
<speed>1.7</speed>
</trkpt>
<trkpt lat="47.366977" lon="10.251784">
<ele>1065.4</ele>
<time>2014-05-01T07:14:26Z</time>
<speed>1.8</speed>
</trkpt>
<trkpt lat="47.367046" lon="10.251728">
<ele>1067.2</ele>
<time>2014-05-01T07:14:31Z</time>
<speed>1.7</speed>
</trkpt>
<trkpt lat="47.367105" lon="10.251695">
<ele>1070.4</ele>
<time>2014-05-01T07:14:36Z</time>
<speed>1.1</speed>
</trkpt>
<trkpt lat="47.367149" lon="10.251682">
<ele>1070.4</ele>
<time>2014-05-01T07:14:41Z</time>
<speed>1.0</speed>
</trkpt>
<trkpt lat="47.367212" lon="10.251652">
<ele>1070.6</ele>
<time>2014-05-01T07:14:46Z</time>
<speed>1.3</speed>
</trkpt>
<trkpt lat="47.367300" lon="10.251623">
<ele>1072.8</ele>
<time>2014-05-01T07:14:51Z</time>
<speed>1.6</speed>
</trkpt>
<trkpt lat="47.367373" lon="10.251602">
<ele>1074.8</ele>
<time>2014-05-01T07:14:56Z</time>
<speed>1.2</speed>
</trkpt>
<trkpt lat="47.367436" lon="10.251582">
<ele>1075.0</ele>
<time>2014-05-01T07:15:01Z</time>
<speed>1.3</speed>
</trkpt>
<trkpt lat="47.367508" lon="10.251576">
<ele>1072.4</ele>
<time>2014-05-01T07:15:06Z</time>
<speed>1.4</speed>
</trkpt>
<trkpt lat="47.367580" lon="10.251578">
<ele>1077.0</ele>
<time>2014-05-01T07:15:11Z</time>
<speed>1.7</speed>
</trkpt>
<trkpt lat="47.367650" lon="10.251597">
<ele>1079.4</ele>
<time>2014-05-01T07:15:16Z</time>
<speed>1.4</speed>
</trkpt>
<trkpt lat="47.367727" lon="10.251615">
<ele>1078.8</ele>
<time>2014-05-01T07:15:21Z</time>
<speed>1.6</speed>
</trkpt>
<trkpt lat="47.367802" lon="10.251638">
<ele>1078.2</ele>
<time>2014-05-01T07:15:26Z</time>
<speed>1.5</speed>
</trkpt>
<trkpt lat="47.367870" lon="10.251658">
<ele>1080.6</ele>
<time>2014-05-01T07:15:31Z</time>
<speed>1.4</speed>
</trkpt>
<trkpt lat="47.367941" lon="10.251686">
<ele>1082.8</ele>
<time>2014-05-01T07:15:36Z</time>
<speed>1.6</speed>
</trkpt>
<trkpt lat="47.368008" lon="10.251708">
<ele>1083.8</ele>
<time>2014-05-01T07:15:41Z</time>
<speed>1.1</speed>
</trkpt>
<trkpt lat="47.368078" lon="10.251731">
<ele>1084.4</ele>
<time>2014-05-01T07:15:46Z</time>
<speed>1.5</speed>
</trkpt>
<trkpt lat="47.368144" lon="10.251758">
<ele>1084.4</ele>
<time>2014-05-01T07:15:51Z</time>
<speed>1.4</speed>
</trkpt>
<trkpt lat="47.368213" lon="10.251778">
<ele>1086.8</ele>
<time>2014-05-01T07:15:56Z</time>
<speed>1.4</speed>
</trkpt>
<trkpt lat="47.368252" lon="10.251777">
<ele>1085.4</ele>
<time>2014-05-01T07:16:01Z</time>
<speed>0.3</speed>
</trkpt>
<trkpt lat="47.368313" lon="10.251756">
<ele>1088.2</ele>
<time>2014-05-01T07:16:06Z</time>
<speed>1.5</speed>
</trkpt>
<trkpt lat="47.368387" lon="10.251713">
<ele>1086.4</ele>
<time>2014-05-01T07:16:11Z</time>
<speed>1.4</speed>
</trkpt>
<trkpt lat="47.368458" lon="10.251684">
<ele>1089.0</ele>
<time>2014-05-01T07:16:16Z</time>
<speed>1.0</speed>
</trkpt>
<trkpt lat="47.368513" lon="10.251617">
<ele>1090.6</ele>
<time>2014-05-01T07:16:21Z</time>
<speed>1.5</speed>
</trkpt>
<trkpt lat="47.368566" lon="10.251539">
<ele>1090.6</ele>
<time>2014-05-01T07:16:26Z</time>
<speed>1.5</speed>
</trkpt>
<trkpt lat="47.368616" lon="10.251450">
<ele>1093.6</ele>
<time>2014-05-01T07:16:31Z</time>
<speed>1.5</speed>
</trkpt>
<trkpt lat="47.368658" lon="10.251371">
<ele>1092.8</ele>
<time>2014-05-01T07:16:36Z</time>
<speed>1.4</speed>
</trkpt>
<trkpt lat="47.368698" lon="10.251269">
<ele>1097.6</ele>
<time>2014-05-01T07:16:41Z</time>
<speed>1.4</speed>
</trkpt>
<trkpt lat="47.368737" lon="10.251168">
<ele>1095.2</ele>
<time>2014-05-01T07:16:46Z</time>
<speed>1.4</speed>
</trkpt>
<trkpt lat="47.368799" lon="10.251096">
<ele>1096.4</ele>
<time>2014-05-01T07:16:51Z</time>
<speed>1.6</speed>
</trkpt>
<trkpt lat="47.368866" lon="10.251051">
<ele>1095.6</ele>
<time>2014-05-01T07:16:56Z</time>
<speed>1.7</speed>
</trkpt>
<trkpt lat="47.368945" lon="10.251030">
<ele>1099.0</ele>
<time>2014-05-01T07:17:01Z</time>
<speed>1.6</speed>
</trkpt>
<trkpt lat="47.369018" lon="10.251035">
<ele>1099.0</ele>
<time>2014-05-01T07:17:06Z</time>
<speed>1.6</speed>
</trkpt>
<trkpt lat="47.369088" lon="10.251050">
<ele>1098.0</ele>
<time>2014-05-01T07:17:11Z</time>
<speed>1.5</speed>
</trkpt>
<trkpt lat="47.369150" lon="10.251064">
<ele>1098.4</ele>
<time>2014-05-01T07:17:16Z</time>
<speed>1.3</speed>
</trkpt>
<trkpt lat="47.369219" lon="10.251088">
<ele>1103.2</ele>
<time>2014-05-01T07:17:21Z</time>
<speed>1.4</speed>
</trkpt>
<trkpt lat="47.369284" lon="10.251129">
<ele>1103.2</ele>
<time>2014-05-01T07:17:26Z</time>
<speed>1.6</speed>
</trkpt>
<trkpt lat="47.369353" lon="10.251146">
<ele>1107.2</ele>
<time>2014-05-01T07:17:31Z</time>
<speed>1.6</speed>
</trkpt>
<trkpt lat="47.369402" lon="10.251161">
<ele>1107.6</ele>
<time>2014-05-01T07:17:37Z</time>
<speed>0.3</speed>
</trkpt>
<trkpt lat="47.369462" lon="10.251194">
<ele>1106.0</ele>
<time>2014-05-01T07:17:42Z</time>
<speed>1.0</speed>
</trkpt>
<trkpt lat="47.369542" lon="10.251207">
<ele>1109.4</ele>
<time>2014-05-01T07:17:47Z</time>
<speed>1.2</speed>
</trkpt>
<trkpt lat="47.369629" lon="10.251218">
<ele>1108.8</ele>
<time>2014-05-01T07:17:52Z</time>
<speed>1.2</speed>
</trkpt>
<trkpt lat="47.369718" lon="10.251243">
<ele>1110.6</ele>
<time>2014-05-01T07:17:57Z</time>
<speed>1.0</speed>
</trkpt>
<trkpt lat="47.369789" lon="10.251255">
<ele>1114.6</ele>
<time>2014-05-01T07:18:02Z</time>
<speed>1.2</speed>
</trkpt>
<trkpt lat="47.369889" lon="10.251274">
<ele>1116.6</ele>
<time>2014-05-01T07:18:07Z</time>
<speed>1.3</speed>
</trkpt>
<trkpt lat="47.369978" lon="10.251289">
<ele>1115.0</ele>
<time>2014-05-01T07:18:12Z</time>
<speed>1.6</speed>
</trkpt>
<trkpt lat="47.370046" lon="10.251263">
<ele>1119.6</ele>
<time>2014-05-01T07:18:17Z</time>
<speed>1.5</speed>
</trkpt>
<trkpt lat="47.370095" lon="10.251227">
<ele>1120.8</ele>
<time>2014-05-01T07:18:22Z</time>
<speed>0.8</speed>
</trkpt>
<trkpt lat="47.370129" lon="10.251226">
<ele>1124.0</ele>
<time>2014-05-01T07:18:27Z</time>
<speed>1.3</speed>
</trkpt>
<trkpt lat="47.370212" lon="10.251255">
<ele>1123.2</ele>
<time>2014-05-01T07:18:32Z</time>
<speed>1.2</speed>
</trkpt>
<trkpt lat="47.370274" lon="10.251289">
<ele>1121.6</ele>
<time>2014-05-01T07:18:37Z</time>
<speed>1.1</speed>
</trkpt>
<trkpt lat="47.370342" lon="10.251324">
<ele>1126.8</ele>
<time>2014-05-01T07:18:42Z</time>
<speed>1.3</speed>
</trkpt>
<trkpt lat="47.370402" lon="10.251358">
<ele>1127.8</ele>
<time>2014-05-01T07:18:47Z</time>
<speed>0.6</speed>
</trkpt>
<trkpt lat="47.370458" lon="10.251381">
<ele>1128.0</ele>
<time>2014-05-01T07:18:52Z</time>
<speed>0.8</speed>
</trkpt>
<trkpt lat="47.370515" lon="10.251406">
<ele>1131.6</ele>
<time>2014-05-01T07:18:57Z</time>
<speed>1.0</speed>
</trkpt>
<trkpt lat="47.370590" lon="10.251437">
<ele>1131.2</ele>
<time>2014-05-01T07:19:02Z</time>
<speed>1.5</speed>
</trkpt>
<trkpt lat="47.370656" lon="10.251467">
<ele>1131.2</ele>
<time>2014-05-01T07:19:07Z</time>
<speed>1.6</speed>
</trkpt>
<trkpt lat="47.370730" lon="10.251490">
<ele>1131.6</ele>
<time>2014-05-01T07:19:12Z</time>
<speed>1.1</speed>
</trkpt>
<trkpt lat="47.370775" lon="10.251507">
<ele>1132.6</ele>
<time>2014-05-01T07:19:17Z</time>
<speed>0.3</speed>
</trkpt>
<trkpt lat="47.370889" lon="10.251549">
<ele>1131.8</ele>
<time>2014-05-01T07:19:22Z</time>
<speed>1.5</speed>
</trkpt>
<trkpt lat="47.370972" lon="10.251593">
<ele>1132.4</ele>
<time>2014-05-01T07:19:27Z</time>
<speed>1.1</speed>
</trkpt>
<trkpt lat="47.371063" lon="10.251628">
<ele>1131.2</ele>
<time>2014-05-01T07:19:32Z</time>
<speed>1.3</speed>
</trkpt>
<trkpt lat="47.371163" lon="10.251650">
<ele>1136.2</ele>
<time>2014-05-01T07:19:37Z</time>
<speed>1.5</speed>
</trkpt>
<trkpt lat="47.371229" lon="10.251677">
<ele>1137.8</ele>
<time>2014-05-01T07:19:42Z</time>
<speed>0.9</speed>
</trkpt>
<trkpt lat="47.371309" lon="10.251683">
<ele>1140.6</ele>
<time>2014-05-01T07:19:47Z</time>
<speed>1.2</speed>
</trkpt>
<trkpt lat="47.371406" lon="10.251687">
<ele>1138.8</ele>
<time>2014-05-01T07:19:52Z</time>
<speed>1.5</speed>
</trkpt>
<trkpt lat="47.371469" lon="10.251739">
<ele>1139.6</ele>
<time>2014-05-01T07:19:57Z</time>
<speed>1.5</speed>
</trkpt>
<trkpt lat="47.371516" lon="10.251785">
<ele>1143.8</ele>
<time>2014-05-01T07:20:02Z</time>
<speed>1.5</speed>
</trkpt>
<trkpt lat="47.371563" lon="10.251839">
<ele>1144.0</ele>
<time>2014-05-01T07:20:07Z</time>
<speed>1.7</speed>
</trkpt>
<trkpt lat="47.371624" lon="10.251890">
<ele>1141.6</ele>
<time>2014-05-01T07:20:12Z</time>
<speed>1.3</speed>
</trkpt>
<trkpt lat="47.371690" lon="10.251853">
<ele>1145.0</ele>
<time>2014-05-01T07:20:17Z</time>
<speed>1.5</speed>
</trkpt>
<trkpt lat="47.371759" lon="10.251846">
<ele>1145.8</ele>
<time>2014-05-01T07:20:22Z</time>
<speed>1.5</speed>
</trkpt>
<trkpt lat="47.371828" lon="10.251855">
<ele>1145.6</ele>
<time>2014-05-01T07:20:27Z</time>
<speed>1.5</speed>
</trkpt>
<trkpt lat="47.371891" lon="10.251855">
<ele>1146.2</ele>
<time>2014-05-01T07:20:32Z</time>
<speed>1.2</speed>
</trkpt>
<trkpt lat="47.371960" lon="10.251848">
<ele>1146.8</ele>
<time>2014-05-01T07:20:37Z</time>
<speed>1.5</speed>
</trkpt>
<trkpt lat="47.372030" lon="10.251857">
<ele>1148.8</ele>
<time>2014-05-01T07:20:42Z</time>
<speed>1.4</speed>
</trkpt>
<trkpt lat="47.372099" lon="10.251858">
<ele>1152.0</ele>
<time>2014-05-01T07:20:47Z</time>
<speed>1.0</speed>
</trkpt>
<trkpt lat="47.372159" lon="10.251842">
<ele>1151.4</ele>
<time>2014-05-01T07:20:52Z</time>
<speed>1.5</speed>
</trkpt>
<trkpt lat="47.372226" lon="10.251843">
<ele>1154.2</ele>
<time>2014-05-01T07:20:57Z</time>
<speed>1.6</speed>
</trkpt>
<trkpt lat="47.372303" lon="10.251836">
<ele>1153.0</ele>
<time>2014-05-01T07:21:02Z</time>
<speed>1.6</speed>
</trkpt>
<trkpt lat="47.372375" lon="10.251845">
<ele>1152.6</ele>
<time>2014-05-01T07:21:07Z</time>
<speed>1.5</speed>
</trkpt>
<trkpt lat="47.372437" lon="10.251849">
<ele>1154.6</ele>
<time>2014-05-01T07:21:12Z</time>
<speed>1.3</speed>
</trkpt>
<trkpt lat="47.372508" lon="10.251868">
<ele>1155.0</ele>
<time>2014-05-01T07:21:17Z</time>
<speed>1.4</speed>
</trkpt>
<trkpt lat="47.372576" lon="10.251906">
<ele>1157.6</ele>
<time>2014-05-01T07:21:22Z</time>
<speed>1.2</speed>
</trkpt>
<trkpt lat="47.372652" lon="10.251922">
<ele>1158.2</ele>
<time>2014-05-01T07:21:27Z</time>
<speed>1.6</speed>
</trkpt>
<trkpt lat="47.372718" lon="10.251951">
<ele>1159.2</ele>
<time>2014-05-01T07:21:32Z</time>
<speed>1.1</speed>
</trkpt>
<trkpt lat="47.372808" lon="10.251941">
<ele>1162.8</ele>
<time>2014-05-01T07:21:37Z</time>
<speed>1.2</speed>
</trkpt>
<trkpt lat="47.372864" lon="10.251934">
<ele>1161.6</ele>
<time>2014-05-01T07:21:42Z</time>
<speed>0.8</speed>
</trkpt>
<trkpt lat="47.372937" lon="10.251945">
<ele>1164.2</ele>
<time>2014-05-01T07:21:47Z</time>
<speed>1.1</speed>
</trkpt>
<trkpt lat="47.373011" lon="10.251968">
<ele>1164.8</ele>
<time>2014-05-01T07:21:52Z</time>
<speed>1.5</speed>
</trkpt>
<trkpt lat="47.373080" lon="10.251983">
<ele>1163.6</ele>
<time>2014-05-01T07:21:57Z</time>
<speed>1.5</speed>
</trkpt>
<trkpt lat="47.373141" lon="10.252005">
<ele>1161.8</ele>
<time>2014-05-01T07:22:02Z</time>
<speed>1.6</speed>
</trkpt>
<trkpt lat="47.373217" lon="10.252034">
<ele>1163.8</ele>
<time>2014-05-01T07:22:07Z</time>
<speed>1.5</speed>
</trkpt>
<trkpt lat="47.373306" lon="10.252045">
<ele>1169.4</ele>
<time>2014-05-01T07:22:12Z</time>
<speed>1.7</speed>
</trkpt>
<trkpt lat="47.373386" lon="10.252054">
<ele>1169.2</ele>
<time>2014-05-01T07:22:17Z</time>
<speed>1.4</speed>
</trkpt>
<trkpt lat="47.373456" lon="10.252066">
<ele>1170.6</ele>
<time>2014-05-01T07:22:22Z</time>
<speed>1.6</speed>
</trkpt>
<trkpt lat="47.373530" lon="10.252088">
<ele>1172.0</ele>
<time>2014-05-01T07:22:27Z</time>
<speed>1.5</speed>
</trkpt>
<trkpt lat="47.373602" lon="10.252112">
<ele>1171.2</ele>
<time>2014-05-01T07:22:32Z</time>
<speed>1.5</speed>
</trkpt>
<trkpt lat="47.373683" lon="10.252133">
<ele>1167.8</ele>
<time>2014-05-01T07:22:37Z</time>
<speed>1.7</speed>
</trkpt>
<trkpt lat="47.373756" lon="10.252171">
<ele>1170.4</ele>
<time>2014-05-01T07:22:42Z</time>
<speed>1.6</speed>
</trkpt>
<trkpt lat="47.373826" lon="10.252216">
<ele>1173.4</ele>
<time>2014-05-01T07:22:47Z</time>
<speed>1.6</speed>
</trkpt>
<trkpt lat="47.373898" lon="10.252255">
<ele>1174.2</ele>
<time>2014-05-01T07:22:52Z</time>
<speed>1.6</speed>
</trkpt>
<trkpt lat="47.373982" lon="10.252299">
<ele>1177.0</ele>
<time>2014-05-01T07:22:57Z</time>
<speed>1.7</speed>
</trkpt>
<trkpt lat="47.374056" lon="10.252338">
<ele>1173.8</ele>
<time>2014-05-01T07:23:02Z</time>
<speed>1.6</speed>
</trkpt>
<trkpt lat="47.374123" lon="10.252382">
<ele>1174.4</ele>
<time>2014-05-01T07:23:07Z</time>
<speed>1.7</speed>
</trkpt>
<trkpt lat="47.374191" lon="10.252447">
<ele>1177.0</ele>
<time>2014-05-01T07:23:12Z</time>
<speed>1.7</speed>
</trkpt>
<trkpt lat="47.374257" lon="10.252501">
<ele>1176.2</ele>
<time>2014-05-01T07:23:17Z</time>
<speed>1.3</speed>
</trkpt>
<trkpt lat="47.374253" lon="10.252414">
<ele>1177.4</ele>
<time>2014-05-01T07:23:22Z</time>
<speed>1.7</speed>
</trkpt>
<trkpt lat="47.374212" lon="10.252286">
<ele>1178.8</ele>
<time>2014-05-01T07:23:27Z</time>
<speed>1.6</speed>
</trkpt>
<trkpt lat="47.374171" lon="10.252178">
<ele>1179.0</ele>
<time>2014-05-01T07:23:32Z</time>
<speed>1.8</speed>
</trkpt>
<trkpt lat="47.374134" lon="10.252078">
<ele>1178.6</ele>
<time>2014-05-01T07:23:37Z</time>
<speed>1.4</speed>
</trkpt>
<trkpt lat="47.374106" lon="10.251991">
<ele>1180.2</ele>
<time>2014-05-01T07:23:42Z</time>
<speed>1.3</speed>
</trkpt>
<trkpt lat="47.374099" lon="10.251897">
<ele>1180.8</ele>
<time>2014-05-01T07:23:47Z</time>
<speed>1.4</speed>
</trkpt>
<trkpt lat="47.374122" lon="10.251809">
<ele>1182.6</ele>
<time>2014-05-01T07:23:52Z</time>
<speed>1.5</speed>
</trkpt>
<trkpt lat="47.374165" lon="10.251710">
<ele>1182.0</ele>
<time>2014-05-01T07:23:57Z</time>
<speed>1.3</speed>
</trkpt>
<trkpt lat="47.374236" lon="10.251666">
<ele>1184.8</ele>
<time>2014-05-01T07:24:02Z</time>
<speed>1.7</speed>
</trkpt>
<trkpt lat="47.374320" lon="10.251653">
<ele>1186.8</ele>
<time>2014-05-01T07:24:07Z</time>
<speed>1.6</speed>
</trkpt>
<trkpt lat="47.374394" lon="10.251675">
<ele>1186.6</ele>
<time>2014-05-01T07:24:12Z</time>
<speed>1.6</speed>
</trkpt>
<trkpt lat="47.374466" lon="10.251692">
<ele>1185.4</ele>
<time>2014-05-01T07:24:17Z</time>
<speed>1.6</speed>
</trkpt>
<trkpt lat="47.374532" lon="10.251734">
<ele>1190.6</ele>
<time>2014-05-01T07:24:22Z</time>
<speed>1.5</speed>
</trkpt>
<trkpt lat="47.374592" lon="10.251783">
<ele>1194.0</ele>
<time>2014-05-01T07:24:27Z</time>
<speed>1.4</speed>
</trkpt>
<trkpt lat="47.374643" lon="10.251831">
<ele>1193.0</ele>
<time>2014-05-01T07:24:32Z</time>
<speed>1.5</speed>
</trkpt>
<trkpt lat="47.374695" lon="10.251895">
<ele>1196.4</ele>
<time>2014-05-01T07:24:37Z</time>
<speed>1.5</speed>
</trkpt>
<trkpt lat="47.374757" lon="10.251922">
<ele>1196.8</ele>
<time>2014-05-01T07:24:42Z</time>
<speed>1.5</speed>
</trkpt>
<trkpt lat="47.374820" lon="10.251870">
<ele>1198.2</ele>
<time>2014-05-01T07:24:47Z</time>
<speed>1.6</speed>
</trkpt>
<trkpt lat="47.374860" lon="10.251758">
<ele>1200.0</ele>
<time>2014-05-01T07:24:52Z</time>
<speed>1.8</speed>
</trkpt>
<trkpt lat="47.374895" lon="10.251654">
<ele>1204.2</ele>
<time>2014-05-01T07:24:57Z</time>
<speed>1.6</speed>
</trkpt>
<trkpt lat="47.374887" lon="10.251536">
<ele>1200.8</ele>
<time>2014-05-01T07:25:03Z</time>
<speed>1.3</speed>
</trkpt>
<trkpt lat="47.374855" lon="10.251408">
<ele>1199.8</ele>
<time>2014-05-01T07:25:09Z</time>
<speed>1.4</speed>
</trkpt>
<trkpt lat="47.374807" lon="10.251323">
<ele>1204.0</ele>
<time>2014-05-01T07:25:14Z</time>
<speed>1.6</speed>
</trkpt>
<trkpt lat="47.374759" lon="10.251243">
<ele>1200.8</ele>
<time>2014-05-01T07:25:19Z</time>
<speed>1.6</speed>
</trkpt>
<trkpt lat="47.374706" lon="10.251178">
<ele>1204.4</ele>
<time>2014-05-01T07:25:24Z</time>
<speed>1.4</speed>
</trkpt>
<trkpt lat="47.374647" lon="10.251108">
<ele>1205.4</ele>
<time>2014-05-01T07:25:29Z</time>
<speed>1.6</speed>
</trkpt>
<trkpt lat="47.374588" lon="10.251037">
<ele>1205.8</ele>
<time>2014-05-01T07:25:34Z</time>
<speed>1.6</speed>
</trkpt>
<trkpt lat="47.374530" lon="10.250963">
<ele>1208.0</ele>
<time>2014-05-01T07:25:39Z</time>
<speed>1.5</speed>
</trkpt>
<trkpt lat="47.374491" lon="10.250875">
<ele>1209.0</ele>
<time>2014-05-01T07:25:44Z</time>
<speed>1.3</speed>
</trkpt>
<trkpt lat="47.374430" lon="10.250792">
<ele>1212.0</ele>
<time>2014-05-01T07:25:49Z</time>
<speed>1.5</speed>
</trkpt>
<trkpt lat="47.374414" lon="10.250692">
<ele>1211.2</ele>
<time>2014-05-01T07:25:54Z</time>
<speed>1.5</speed>
</trkpt>
<trkpt lat="47.374437" lon="10.250598">
<ele>1213.8</ele>
<time>2014-05-01T07:25:59Z</time>
<speed>1.2</speed>
</trkpt>
<trkpt lat="47.374471" lon="10.250559">
<ele>1214.2</ele>
<time>2014-05-01T07:26:04Z</time>
<speed>0.7</speed>
</trkpt>
<trkpt lat="47.374566" lon="10.250607">
<ele>1216.6</ele>
<time>2014-05-01T07:26:09Z</time>
<speed>1.8</speed>
</trkpt>
<trkpt lat="47.374653" lon="10.250661">
<ele>1217.4</ele>
<time>2014-05-01T07:26:14Z</time>
<speed>1.6</speed>
</trkpt>
<trkpt lat="47.374711" lon="10.250699">
<ele>1219.0</ele>
<time>2014-05-01T07:26:19Z</time>
<speed>1.7</speed>
</trkpt>
<trkpt lat="47.374767" lon="10.250744">
<ele>1218.0</ele>
<time>2014-05-01T07:26:24Z</time>
<speed>0.9</speed>
</trkpt>
<trkpt lat="47.374823" lon="10.250787">
<ele>1222.2</ele>
<time>2014-05-01T07:26:29Z</time>
<speed>1.4</speed>
</trkpt>
<trkpt lat="47.374875" lon="10.250829">
<ele>1222.8</ele>
<time>2014-05-01T07:26:34Z</time>
<speed>1.3</speed>
</trkpt>
<trkpt lat="47.374926" lon="10.250882">
<ele>1222.2</ele>
<time>2014-05-01T07:26:39Z</time>
<speed>1.1</speed>
</trkpt>
<trkpt lat="47.374987" lon="10.250922">
<ele>1224.4</ele>
<time>2014-05-01T07:26:44Z</time>
<speed>1.3</speed>
</trkpt>
<trkpt lat="47.375035" lon="10.250964">
<ele>1225.2</ele>
<time>2014-05-01T07:26:49Z</time>
<speed>1.2</speed>
</trkpt>
<trkpt lat="47.375093" lon="10.251019">
<ele>1223.6</ele>
<time>2014-05-01T07:26:54Z</time>
<speed>1.7</speed>
</trkpt>
<trkpt lat="47.375168" lon="10.251064">
<ele>1229.4</ele>
<time>2014-05-01T07:26:59Z</time>
<speed>1.4</speed>
</trkpt>
<trkpt lat="47.375219" lon="10.251084">
<ele>1230.2</ele>
<time>2014-05-01T07:27:04Z</time>
<speed>0.8</speed>
</trkpt>
<trkpt lat="47.375284" lon="10.251127">
<ele>1231.0</ele>
<time>2014-05-01T07:27:09Z</time>
<speed>0.9</speed>
</trkpt>
<trkpt lat="47.375346" lon="10.251146">
<ele>1231.4</ele>
<time>2014-05-01T07:27:14Z</time>
<speed>0.7</speed>
</trkpt>
<trkpt lat="47.375400" lon="10.251174">
<ele>1231.4</ele>
<time>2014-05-01T07:27:19Z</time>
<speed>1.0</speed>
</trkpt>
<trkpt lat="47.375490" lon="10.251187">
<ele>1234.0</ele>
<time>2014-05-01T07:27:24Z</time>
<speed>1.1</speed>
</trkpt>
<trkpt lat="47.375548" lon="10.251210">
<ele>1235.6</ele>
<time>2014-05-01T07:27:29Z</time>
<speed>1.1</speed>
</trkpt>
<trkpt lat="47.375586" lon="10.251247">
<ele>1234.6</ele>
<time>2014-05-01T07:27:34Z</time>
<speed>0.6</speed>
</trkpt>
<trkpt lat="47.375634" lon="10.251277">
<ele>1234.8</ele>
<time>2014-05-01T07:27:39Z</time>
<speed>0.4</speed>
</trkpt>
<trkpt lat="47.375678" lon="10.251308">
<ele>1234.0</ele>
<time>2014-05-01T07:27:44Z</time>
<speed>0.7</speed>
</trkpt>
<trkpt lat="47.375749" lon="10.251352">
<ele>1239.2</ele>
<time>2014-05-01T07:27:49Z</time>
<speed>0.6</speed>
</trkpt>
<trkpt lat="47.375824" lon="10.251392">
<ele>1239.2</ele>
<time>2014-05-01T07:27:54Z</time>
<speed>0.7</speed>
</trkpt>
<trkpt lat="47.375889" lon="10.251424">
<ele>1240.6</ele>
<time>2014-05-01T07:27:59Z</time>
<speed>0.7</speed>
</trkpt>
<trkpt lat="47.375956" lon="10.251464">
<ele>1244.0</ele>
<time>2014-05-01T07:28:04Z</time>
<speed>0.9</speed>
</trkpt>
<trkpt lat="47.376015" lon="10.251491">
<ele>1245.4</ele>
<time>2014-05-01T07:28:09Z</time>
<speed>0.7</speed>
</trkpt>
<trkpt lat="47.376078" lon="10.251509">
<ele>1248.6</ele>
<time>2014-05-01T07:28:14Z</time>
<speed>0.8</speed>
</trkpt>
<trkpt lat="47.376151" lon="10.251531">
<ele>1250.8</ele>
<time>2014-05-01T07:28:19Z</time>
<speed>1.3</speed>
</trkpt>
<trkpt lat="47.376206" lon="10.251572">
<ele>1251.0</ele>
<time>2014-05-01T07:28:24Z</time>
<speed>1.1</speed>
</trkpt>
<trkpt lat="47.376269" lon="10.251618">
<ele>1253.0</ele>
<time>2014-05-01T07:28:29Z</time>
<speed>0.8</speed>
</trkpt>
<trkpt lat="47.376309" lon="10.251644">
<ele>1253.4</ele>
<time>2014-05-01T07:28:34Z</time>
<speed>0.6</speed>
</trkpt>
<trkpt lat="47.376372" lon="10.251690">
<ele>1257.2</ele>
<time>2014-05-01T07:28:40Z</time>
<speed>0.8</speed>
</trkpt>
<trkpt lat="47.376449" lon="10.251708">
<ele>1259.0</ele>
<time>2014-05-01T07:28:45Z</time>
<speed>0.7</speed>
</trkpt>
<trkpt lat="47.376478" lon="10.251729">
<ele>1257.6</ele>
<time>2014-05-01T07:28:50Z</time>
<speed>0.4</speed>
</trkpt>
<trkpt lat="47.376528" lon="10.251765">
<ele>1257.6</ele>
<time>2014-05-01T07:28:55Z</time>
<speed>0.6</speed>
</trkpt>
<trkpt lat="47.376610" lon="10.251804">
<ele>1261.0</ele>
<time>2014-05-01T07:29:00Z</time>
<speed>0.9</speed>
</trkpt>
<trkpt lat="47.376683" lon="10.251825">
<ele>1259.8</ele>
<time>2014-05-01T07:29:05Z</time>
<speed>0.6</speed>
</trkpt>
<trkpt lat="47.376756" lon="10.251869">
<ele>1265.0</ele>
<time>2014-05-01T07:29:10Z</time>
<speed>0.5</speed>
</trkpt>
<trkpt lat="47.376795" lon="10.251896">
<ele>1265.0</ele>
<time>2014-05-01T07:29:15Z</time>
<speed>0.7</speed>
</trkpt>
<trkpt lat="47.376862" lon="10.251933">
<ele>1267.2</ele>
<time>2014-05-01T07:29:20Z</time>
<speed>0.8</speed>
</trkpt>
<trkpt lat="47.376929" lon="10.251962">
<ele>1268.4</ele>
<time>2014-05-01T07:29:25Z</time>
<speed>1.1</speed>
</trkpt>
<trkpt lat="47.376987" lon="10.251979">
<ele>1270.2</ele>
<time>2014-05-01T07:29:30Z</time>
<speed>0.7</speed>
</trkpt>
<trkpt lat="47.377038" lon="10.251999">
<ele>1272.4</ele>
<time>2014-05-01T07:29:35Z</time>
<speed>0.5</speed>
</trkpt>
<trkpt lat="47.377093" lon="10.252042">
<ele>1273.0</ele>
<time>2014-05-01T07:29:40Z</time>
<speed>0.7</speed>
</trkpt>
<trkpt lat="47.377151" lon="10.252070">
<ele>1272.0</ele>
<time>2014-05-01T07:29:45Z</time>
<speed>0.7</speed>
</trkpt>
<trkpt lat="47.377199" lon="10.252099">
<ele>1275.4</ele>
<time>2014-05-01T07:29:50Z</time>
<speed>0.5</speed>
</trkpt>
<trkpt lat="47.377262" lon="10.252135">
<ele>1279.6</ele>
<time>2014-05-01T07:29:55Z</time>
<speed>1.0</speed>
</trkpt>
<trkpt lat="47.377355" lon="10.252206">
<ele>1279.8</ele>
<time>2014-05-01T07:30:00Z</time>
<speed>1.0</speed>
</trkpt>
<trkpt lat="47.377422" lon="10.252258">
<ele>1280.0</ele>
<time>2014-05-01T07:30:05Z</time>
<speed>1.4</speed>
</trkpt>
<trkpt lat="47.377503" lon="10.252289">
<ele>1281.8</ele>
<time>2014-05-01T07:30:10Z</time>
<speed>1.1</speed>
</trkpt>
<trkpt lat="47.377578" lon="10.252352">
<ele>1283.4</ele>
<time>2014-05-01T07:30:15Z</time>
<speed>1.4</speed>
</trkpt>
<trkpt lat="47.377629" lon="10.252405">
<ele>1281.4</ele>
<time>2014-05-01T07:30:20Z</time>
<speed>0.7</speed>
</trkpt>
<trkpt lat="47.377689" lon="10.252464">
<ele>1283.8</ele>
<time>2014-05-01T07:30:25Z</time>
<speed>0.7</speed>
</trkpt>
<trkpt lat="47.377750" lon="10.252504">
<ele>1284.8</ele>
<time>2014-05-01T07:30:30Z</time>
<speed>0.8</speed>
</trkpt>
<trkpt lat="47.377822" lon="10.252529">
<ele>1286.2</ele>
<time>2014-05-01T07:30:35Z</time>
<speed>0.6</speed>
</trkpt>
<trkpt lat="47.377889" lon="10.252536">
<ele>1288.4</ele>
<time>2014-05-01T07:30:40Z</time>
<speed>0.9</speed>
</trkpt>
<trkpt lat="47.377938" lon="10.252567">
<ele>1287.4</ele>
<time>2014-05-01T07:30:45Z</time>
<speed>0.7</speed>
</trkpt>
<trkpt lat="47.378024" lon="10.252585">
<ele>1286.2</ele>
<time>2014-05-01T07:30:50Z</time>
<speed>0.8</speed>
</trkpt>
<trkpt lat="47.378088" lon="10.252594">
<ele>1288.8</ele>
<time>2014-05-01T07:30:55Z</time>
<speed>0.9</speed>
</trkpt>
<trkpt lat="47.378165" lon="10.252595">
<ele>1288.2</ele>
<time>2014-05-01T07:31:00Z</time>
<speed>1.0</speed>
</trkpt>
<trkpt lat="47.378254" lon="10.252577">
<ele>1289.0</ele>
<time>2014-05-01T07:31:05Z</time>
<speed>1.0</speed>
</trkpt>
<trkpt lat="47.378332" lon="10.252538">
<ele>1287.8</ele>
<time>2014-05-01T07:31:10Z</time>
<speed>1.1</speed>
</trkpt>
<trkpt lat="47.378395" lon="10.252492">
<ele>1286.4</ele>
<time>2014-05-01T07:31:15Z</time>
<speed>1.1</speed>
</trkpt>
<trkpt lat="47.378443" lon="10.252467">
<ele>1285.8</ele>
<time>2014-05-01T07:31:20Z</time>
<speed>0.5</speed>
</trkpt>
<trkpt lat="47.378493" lon="10.252449">
<ele>1286.4</ele>
<time>2014-05-01T07:31:25Z</time>
<speed>0.7</speed>
</trkpt>
<trkpt lat="47.378584" lon="10.252415">
<ele>1287.2</ele>
<time>2014-05-01T07:31:30Z</time>
<speed>1.4</speed>
</trkpt>
<trkpt lat="47.378651" lon="10.252412">
<ele>1289.6</ele>
<time>2014-05-01T07:31:35Z</time>
<speed>1.3</speed>
</trkpt>
<trkpt lat="47.378725" lon="10.252412">
<ele>1289.4</ele>
<time>2014-05-01T07:31:40Z</time>
<speed>1.4</speed>
</trkpt>
<trkpt lat="47.378792" lon="10.252435">
<ele>1290.6</ele>
<time>2014-05-01T07:31:45Z</time>
<speed>1.4</speed>
</trkpt>
<trkpt lat="47.378863" lon="10.252463">
<ele>1293.4</ele>
<time>2014-05-01T07:31:50Z</time>
<speed>1.4</speed>
</trkpt>
<trkpt lat="47.378933" lon="10.252490">
<ele>1296.4</ele>
<time>2014-05-01T07:31:55Z</time>
<speed>1.4</speed>
</trkpt>
<trkpt lat="47.378985" lon="10.252514">
<ele>1297.0</ele>
<time>2014-05-01T07:32:00Z</time>
<speed>1.4</speed>
</trkpt>
<trkpt lat="47.379034" lon="10.252563">
<ele>1300.0</ele>
<time>2014-05-01T07:32:05Z</time>
<speed>1.5</speed>
</trkpt>
<trkpt lat="47.379095" lon="10.252607">
<ele>1299.6</ele>
<time>2014-05-01T07:32:10Z</time>
<speed>1.6</speed>
</trkpt>
<trkpt lat="47.379155" lon="10.252659">
<ele>1300.2</ele>
<time>2014-05-01T07:32:15Z</time>
<speed>1.5</speed>
</trkpt>
<trkpt lat="47.379212" lon="10.252702">
<ele>1301.2</ele>
<time>2014-05-01T07:32:20Z</time>
<speed>1.5</speed>
</trkpt>
<trkpt lat="47.379275" lon="10.252746">
<ele>1302.6</ele>
<time>2014-05-01T07:32:25Z</time>
<speed>1.6</speed>
</trkpt>
<trkpt lat="47.379335" lon="10.252792">
<ele>1302.0</ele>
<time>2014-05-01T07:32:30Z</time>
<speed>1.5</speed>
</trkpt>
<trkpt lat="47.379395" lon="10.252837">
<ele>1303.2</ele>
<time>2014-05-01T07:32:35Z</time>
<speed>1.4</speed>
</trkpt>
<trkpt lat="47.379456" lon="10.252860">
<ele>1306.6</ele>
<time>2014-05-01T07:32:40Z</time>
<speed>1.4</speed>
</trkpt>
<trkpt lat="47.379520" lon="10.252876">
<ele>1305.6</ele>
<time>2014-05-01T07:32:45Z</time>
<speed>1.3</speed>
</trkpt>
<trkpt lat="47.379564" lon="10.252861">
<ele>1306.8</ele>
<time>2014-05-01T07:32:50Z</time>
<speed>1.4</speed>
</trkpt>
<trkpt lat="47.379639" lon="10.252847">
<ele>1305.8</ele>
<time>2014-05-01T07:32:55Z</time>
<speed>1.3</speed>
</trkpt>
<trkpt lat="47.379713" lon="10.252887">
<ele>1307.2</ele>
<time>2014-05-01T07:33:00Z</time>
<speed>1.5</speed>
</trkpt>
<trkpt lat="47.379781" lon="10.252907">
<ele>1308.8</ele>
<time>2014-05-01T07:33:05Z</time>
<speed>1.3</speed>
</trkpt>
<trkpt lat="47.379852" lon="10.252902">
<ele>1310.6</ele>
<time>2014-05-01T07:33:10Z</time>
<speed>1.3</speed>
</trkpt>
<trkpt lat="47.379859" lon="10.252855">
<ele>1311.4</ele>
<time>2014-05-01T07:33:15Z</time>
<speed>0.6</speed>
</trkpt>
<trkpt lat="47.379832" lon="10.252813">
<ele>1309.8</ele>
<time>2014-05-01T07:33:20Z</time>
<speed>1.3</speed>
</trkpt>
<trkpt lat="47.379764" lon="10.252762">
<ele>1312.0</ele>
<time>2014-05-01T07:33:25Z</time>
<speed>1.3</speed>
</trkpt>
<trkpt lat="47.379694" lon="10.252693">
<ele>1314.2</ele>
<time>2014-05-01T07:33:30Z</time>
<speed>1.3</speed>
</trkpt>
<trkpt lat="47.379646" lon="10.252617">
<ele>1315.4</ele>
<time>2014-05-01T07:33:35Z</time>
<speed>1.2</speed>
</trkpt>
<trkpt lat="47.379597" lon="10.252553">
<ele>1320.2</ele>
<time>2014-05-01T07:33:40Z</time>
<speed>1.4</speed>
</trkpt>
<trkpt lat="47.379572" lon="10.252473">
<ele>1318.8</ele>
<time>2014-05-01T07:33:45Z</time>
<speed>1.0</speed>
</trkpt>
<trkpt lat="47.379546" lon="10.252400">
<ele>1319.2</ele>
<time>2014-05-01T07:33:50Z</time>
<speed>1.2</speed>
</trkpt>
<trkpt lat="47.379543" lon="10.252310">
<ele>1320.0</ele>
<time>2014-05-01T07:33:55Z</time>
<speed>1.0</speed>
</trkpt>
<trkpt lat="47.379533" lon="10.252244">
<ele>1322.8</ele>
<time>2014-05-01T07:34:00Z</time>
<speed>0.7</speed>
</trkpt>
<trkpt lat="47.379529" lon="10.252159">
<ele>1323.0</ele>
<time>2014-05-01T07:34:05Z</time>
<speed>1.0</speed>
</trkpt>
<trkpt lat="47.379526" lon="10.252014">
<ele>1323.4</ele>
<time>2014-05-01T07:34:10Z</time>
<speed>1.1</speed>
</trkpt>
<trkpt lat="47.379508" lon="10.251911">
<ele>1322.4</ele>
<time>2014-05-01T07:34:15Z</time>
<speed>0.9</speed>
</trkpt>
<trkpt lat="47.379463" lon="10.251864">
<ele>1324.8</ele>
<time>2014-05-01T07:34:20Z</time>
<speed>1.2</speed>
</trkpt>
<trkpt lat="47.379397" lon="10.251815">
<ele>1324.8</ele>
<time>2014-05-01T07:34:25Z</time>
<speed>1.1</speed>
</trkpt>
<trkpt lat="47.379323" lon="10.251775">
<ele>1324.4</ele>
<time>2014-05-01T07:34:30Z</time>
<speed>1.5</speed>
</trkpt>
<trkpt lat="47.379250" lon="10.251714">
<ele>1326.6</ele>
<time>2014-05-01T07:34:35Z</time>
<speed>1.3</speed>
</trkpt>
<trkpt lat="47.379197" lon="10.251635">
<ele>1326.6</ele>
<time>2014-05-01T07:34:40Z</time>
<speed>1.3</speed>
</trkpt>
<trkpt lat="47.379149" lon="10.251563">
<ele>1330.8</ele>
<time>2014-05-01T07:34:45Z</time>
<speed>1.3</speed>
</trkpt>
<trkpt lat="47.379121" lon="10.251486">
<ele>1332.2</ele>
<time>2014-05-01T07:34:50Z</time>
<speed>0.9</speed>
</trkpt>
<trkpt lat="47.379086" lon="10.251411">
<ele>1333.4</ele>
<time>2014-05-01T07:34:55Z</time>
<speed>1.4</speed>
</trkpt>
<trkpt lat="47.379044" lon="10.251344">
<ele>1335.4</ele>
<time>2014-05-01T07:35:00Z</time>
<speed>1.1</speed>
</trkpt>
<trkpt lat="47.378995" lon="10.251276">
<ele>1337.0</ele>
<time>2014-05-01T07:35:05Z</time>
<speed>1.1</speed>
</trkpt>
<trkpt lat="47.378947" lon="10.251205">
<ele>1337.6</ele>
<time>2014-05-01T07:35:10Z</time>
<speed>1.4</speed>
</trkpt>
<trkpt lat="47.378895" lon="10.251140">
<ele>1340.6</ele>
<time>2014-05-01T07:35:15Z</time>
<speed>1.0</speed>
</trkpt>
<trkpt lat="47.378852" lon="10.251069">
<ele>1340.8</ele>
<time>2014-05-01T07:35:20Z</time>
<speed>1.1</speed>
</trkpt>
<trkpt lat="47.378823" lon="10.251027">
<ele>1343.6</ele>
<time>2014-05-01T07:35:25Z</time>
<speed>0.8</speed>
</trkpt>
<trkpt lat="47.378770" lon="10.250954">
<ele>1344.4</ele>
<time>2014-05-01T07:35:30Z</time>
<speed>0.9</speed>
</trkpt>
<trkpt lat="47.378730" lon="10.250884">
<ele>1345.2</ele>
<time>2014-05-01T07:35:35Z</time>
<speed>1.0</speed>
</trkpt>
<trkpt lat="47.378688" lon="10.250818">
<ele>1348.4</ele>
<time>2014-05-01T07:35:40Z</time>
<speed>1.3</speed>
</trkpt>
<trkpt lat="47.378653" lon="10.250743">
<ele>1349.4</ele>
<time>2014-05-01T07:35:45Z</time>
<speed>1.1</speed>
</trkpt>
<trkpt lat="47.378617" lon="10.250664">
<ele>1350.4</ele>
<time>2014-05-01T07:35:50Z</time>
<speed>1.0</speed>
</trkpt>
<trkpt lat="47.378578" lon="10.250585">
<ele>1352.0</ele>
<time>2014-05-01T07:35:55Z</time>
<speed>1.4</speed>
</trkpt>
<trkpt lat="47.378532" lon="10.250500">
<ele>1352.2</ele>
<time>2014-05-01T07:36:00Z</time>
<speed>0.9</speed>
</trkpt>
<trkpt lat="47.378500" lon="10.250413">
<ele>1353.4</ele>
<time>2014-05-01T07:36:05Z</time>
<speed>0.9</speed>
</trkpt>
<trkpt lat="47.378449" lon="10.250332">
<ele>1354.4</ele>
<time>2014-05-01T07:36:10Z</time>
<speed>0.9</speed>
</trkpt>
<trkpt lat="47.378412" lon="10.250259">
<ele>1359.4</ele>
<time>2014-05-01T07:36:15Z</time>
<speed>1.2</speed>
</trkpt>
<trkpt lat="47.378370" lon="10.250183">
<ele>1358.4</ele>
<time>2014-05-01T07:36:20Z</time>
<speed>1.0</speed>
</trkpt>
<trkpt lat="47.378315" lon="10.250115">
<ele>1359.6</ele>
<time>2014-05-01T07:36:25Z</time>
<speed>1.0</speed>
</trkpt>
<trkpt lat="47.378267" lon="10.250031">
<ele>1360.8</ele>
<time>2014-05-01T07:36:30Z</time>
<speed>1.0</speed>
</trkpt>
<trkpt lat="47.378230" lon="10.249948">
<ele>1361.2</ele>
<time>2014-05-01T07:36:35Z</time>
<speed>1.1</speed>
</trkpt>
<trkpt lat="47.378192" lon="10.249870">
<ele>1363.6</ele>
<time>2014-05-01T07:36:40Z</time>
<speed>1.1</speed>
</trkpt>
<trkpt lat="47.378186" lon="10.249801">
<ele>1362.6</ele>
<time>2014-05-01T07:36:45Z</time>
<speed>0.8</speed>
</trkpt>
<trkpt lat="47.378196" lon="10.249713">
<ele>1362.8</ele>
<time>2014-05-01T07:36:50Z</time>
<speed>0.8</speed>
</trkpt>
<trkpt lat="47.378219" lon="10.249648">
<ele>1365.4</ele>
<time>2014-05-01T07:36:55Z</time>
<speed>0.8</speed>
</trkpt>
<trkpt lat="47.378232" lon="10.249555">
<ele>1365.8</ele>
<time>2014-05-01T07:37:00Z</time>
<speed>0.7</speed>
</trkpt>
<trkpt lat="47.378219" lon="10.249447">
<ele>1363.2</ele>
<time>2014-05-01T07:37:06Z</time>
<speed>0.8</speed>
</trkpt>
<trkpt lat="47.378225" lon="10.249309">
<ele>1363.8</ele>
<time>2014-05-01T07:37:12Z</time>
<speed>0.9</speed>
</trkpt>
<trkpt lat="47.378252" lon="10.249194">
<ele>1365.0</ele>
<time>2014-05-01T07:37:17Z</time>
<speed>1.0</speed>
</trkpt>
<trkpt lat="47.378262" lon="10.249107">
<ele>1362.0</ele>
<time>2014-05-01T07:37:22Z</time>
<speed>0.5</speed>
</trkpt>
<trkpt lat="47.378272" lon="10.249030">
<ele>1363.8</ele>
<time>2014-05-01T07:37:27Z</time>
<speed>1.2</speed>
</trkpt>
<trkpt lat="47.378283" lon="10.248948">
<ele>1366.2</ele>
<time>2014-05-01T07:37:32Z</time>
<speed>0.8</speed>
</trkpt>
<trkpt lat="47.378291" lon="10.248879">
<ele>1363.2</ele>
<time>2014-05-01T07:37:37Z</time>
<speed>1.0</speed>
</trkpt>
<trkpt lat="47.378296" lon="10.248798">
<ele>1364.2</ele>
<time>2014-05-01T07:37:42Z</time>
<speed>1.0</speed>
</trkpt>
<trkpt lat="47.378231" lon="10.248695">
<ele>1363.0</ele>
<time>2014-05-01T07:37:47Z</time>
<speed>0.9</speed>
</trkpt>
<trkpt lat="47.378185" lon="10.248599">
<ele>1365.2</ele>
<time>2014-05-01T07:37:52Z</time>
<speed>1.2</speed>
</trkpt>
<trkpt lat="47.378133" lon="10.248500">
<ele>1365.2</ele>
<time>2014-05-01T07:37:57Z</time>
<speed>1.1</speed>
</trkpt>
<trkpt lat="47.378080" lon="10.248424">
<ele>1367.6</ele>
<time>2014-05-01T07:38:02Z</time>
<speed>1.1</speed>
</trkpt>
<trkpt lat="47.378037" lon="10.248359">
<ele>1372.4</ele>
<time>2014-05-01T07:38:07Z</time>
<speed>0.8</speed>
</trkpt>
<trkpt lat="47.377987" lon="10.248290">
<ele>1370.6</ele>
<time>2014-05-01T07:38:12Z</time>
<speed>1.3</speed>
</trkpt>
<trkpt lat="47.377933" lon="10.248220">
<ele>1376.6</ele>
<time>2014-05-01T07:38:17Z</time>
<speed>1.3</speed>
</trkpt>
<trkpt lat="47.377913" lon="10.248149">
<ele>1378.2</ele>
<time>2014-05-01T07:38:22Z</time>
<speed>1.2</speed>
</trkpt>
<trkpt lat="47.377867" lon="10.248082">
<ele>1383.8</ele>
<time>2014-05-01T07:38:27Z</time>
<speed>1.3</speed>
</trkpt>
<trkpt lat="47.377818" lon="10.248005">
<ele>1384.6</ele>
<time>2014-05-01T07:38:32Z</time>
<speed>1.0</speed>
</trkpt>
<trkpt lat="47.377786" lon="10.247952">
<ele>1389.0</ele>
<time>2014-05-01T07:38:37Z</time>
<speed>1.1</speed>
</trkpt>
<trkpt lat="47.377739" lon="10.247869">
<ele>1394.4</ele>
<time>2014-05-01T07:38:42Z</time>
<speed>0.8</speed>
</trkpt>
<trkpt lat="47.377706" lon="10.247793">
<ele>1391.8</ele>
<time>2014-05-01T07:38:47Z</time>
<speed>0.9</speed>
</trkpt>
<trkpt lat="47.377662" lon="10.247704">
<ele>1394.2</ele>
<time>2014-05-01T07:38:52Z</time>
<speed>1.1</speed>
</trkpt>
<trkpt lat="47.377617" lon="10.247630">
<ele>1394.4</ele>
<time>2014-05-01T07:38:57Z</time>
<speed>1.2</speed>
</trkpt>
<trkpt lat="47.377582" lon="10.247533">
<ele>1397.4</ele>
<time>2014-05-01T07:39:02Z</time>
<speed>0.9</speed>
</trkpt>
<trkpt lat="47.377558" lon="10.247481">
<ele>1396.2</ele>
<time>2014-05-01T07:39:07Z</time>
<speed>0.6</speed>
</trkpt>
<trkpt lat="47.377532" lon="10.247413">
<ele>1397.8</ele>
<time>2014-05-01T07:39:12Z</time>
<speed>1.3</speed>
</trkpt>
<trkpt lat="47.377547" lon="10.247330">
<ele>1401.0</ele>
<time>2014-05-01T07:39:17Z</time>
<speed>0.8</speed>
</trkpt>
<trkpt lat="47.377563" lon="10.247307">
<ele>1400.0</ele>
<time>2014-05-01T07:39:22Z</time>
<speed>0.4</speed>
</trkpt>
<trkpt lat="47.377595" lon="10.247274">
<ele>1398.4</ele>
<time>2014-05-01T07:39:33Z</time>
<speed>0.4</speed>
</trkpt>
<trkpt lat="47.377620" lon="10.247235">
<ele>1398.8</ele>
<time>2014-05-01T07:39:38Z</time>
<speed>0.6</speed>
</trkpt>
<trkpt lat="47.377647" lon="10.247204">
<ele>1400.2</ele>
<time>2014-05-01T07:39:44Z</time>
<speed>0.5</speed>
</trkpt>
<trkpt lat="47.377674" lon="10.247173">
<ele>1400.4</ele>
<time>2014-05-01T07:39:49Z</time>
<speed>0.5</speed>
</trkpt>
<trkpt lat="47.377704" lon="10.247182">
<ele>1401.2</ele>
<time>2014-05-01T07:39:54Z</time>
<speed>0.7</speed>
</trkpt>
<trkpt lat="47.377731" lon="10.247201">
<ele>1400.8</ele>
<time>2014-05-01T07:39:59Z</time>
<speed>0.6</speed>
</trkpt>
<trkpt lat="47.377788" lon="10.247234">
<ele>1400.4</ele>
<time>2014-05-01T07:40:06Z</time>
<speed>0.5</speed>
</trkpt>
<trkpt lat="47.377856" lon="10.247265">
<ele>1401.2</ele>
<time>2014-05-01T07:40:11Z</time>
<speed>0.6</speed>
</trkpt>
<trkpt lat="47.377889" lon="10.247283">
<ele>1403.0</ele>
<time>2014-05-01T07:40:18Z</time>
<speed>0.3</speed>
</trkpt>
<trkpt lat="47.377922" lon="10.247285">
<ele>1404.2</ele>
<time>2014-05-01T07:40:23Z</time>
<speed>0.8</speed>
</trkpt>
<trkpt lat="47.377963" lon="10.247283">
<ele>1402.6</ele>
<time>2014-05-01T07:40:30Z</time>
<speed>0.3</speed>
</trkpt>
<trkpt lat="47.377990" lon="10.247253">
<ele>1403.0</ele>
<time>2014-05-01T07:40:35Z</time>
<speed>0.4</speed>
</trkpt>
<trkpt lat="47.378013" lon="10.247232">
<ele>1402.4</ele>
<time>2014-05-01T07:40:40Z</time>
<speed>0.4</speed>
</trkpt>
<trkpt lat="47.378039" lon="10.247226">
<ele>1407.6</ele>
<time>2014-05-01T07:40:45Z</time>
<speed>0.7</speed>
</trkpt>
<trkpt lat="47.378103" lon="10.247254">
<ele>1408.2</ele>
<time>2014-05-01T07:40:53Z</time>
<speed>0.4</speed>
</trkpt>
<trkpt lat="47.378138" lon="10.247293">
<ele>1410.6</ele>
<time>2014-05-01T07:41:16Z</time>
<speed>0.3</speed>
</trkpt>
<trkpt lat="47.378153" lon="10.247305">
<ele>1412.4</ele>
<time>2014-05-01T07:41:21Z</time>
<speed>0.6</speed>
</trkpt>
<trkpt lat="47.378177" lon="10.247318">
<ele>1412.8</ele>
<time>2014-05-01T07:41:26Z</time>
<speed>0.7</speed>
</trkpt>
<trkpt lat="47.378221" lon="10.247324">
<ele>1411.2</ele>
<time>2014-05-01T07:41:31Z</time>
<speed>0.9</speed>
</trkpt>
<trkpt lat="47.378265" lon="10.247311">
<ele>1413.4</ele>
<time>2014-05-01T07:41:36Z</time>
<speed>0.8</speed>
</trkpt>
<trkpt lat="47.378315" lon="10.247268">
<ele>1414.0</ele>
<time>2014-05-01T07:41:42Z</time>
<speed>1.0</speed>
</trkpt>
<trkpt lat="47.378393" lon="10.247234">
<ele>1416.4</ele>
<time>2014-05-01T07:41:47Z</time>
<speed>1.1</speed>
</trkpt>
<trkpt lat="47.378468" lon="10.247176">
<ele>1414.2</ele>
<time>2014-05-01T07:41:52Z</time>
<speed>1.0</speed>
</trkpt>
<trkpt lat="47.378527" lon="10.247141">
<ele>1413.8</ele>
<time>2014-05-01T07:41:57Z</time>
<speed>1.2</speed>
</trkpt>
<trkpt lat="47.378575" lon="10.247105">
<ele>1413.4</ele>
<time>2014-05-01T07:42:02Z</time>
<speed>0.9</speed>
</trkpt>
<trkpt lat="47.378635" lon="10.247074">
<ele>1415.0</ele>
<time>2014-05-01T07:42:07Z</time>
<speed>0.9</speed>
</trkpt>
<trkpt lat="47.378690" lon="10.247090">
<ele>1413.0</ele>
<time>2014-05-01T07:42:12Z</time>
<speed>0.4</speed>
</trkpt>
<trkpt lat="47.378775" lon="10.247125">
<ele>1414.4</ele>
<time>2014-05-01T07:42:23Z</time>
<speed>0.4</speed>
</trkpt>
<trkpt lat="47.378799" lon="10.247095">
<ele>1415.8</ele>
<time>2014-05-01T07:42:28Z</time>
<speed>0.4</speed>
</trkpt>
<trkpt lat="47.378843" lon="10.247021">
<ele>1417.2</ele>
<time>2014-05-01T07:42:33Z</time>
<speed>0.5</speed>
</trkpt>
<trkpt lat="47.378892" lon="10.246949">
<ele>1417.0</ele>
<time>2014-05-01T07:42:38Z</time>
<speed>0.5</speed>
</trkpt>
<trkpt lat="47.378953" lon="10.246894">
<ele>1415.8</ele>
<time>2014-05-01T07:42:43Z</time>
<speed>0.9</speed>
</trkpt>
<trkpt lat="47.378988" lon="10.246859">
<ele>1416.4</ele>
<time>2014-05-01T07:42:48Z</time>
<speed>0.8</speed>
</trkpt>
<trkpt lat="47.379025" lon="10.246808">
<ele>1416.4</ele>
<time>2014-05-01T07:42:53Z</time>
<speed>1.0</speed>
</trkpt>
<trkpt lat="47.379053" lon="10.246767">
<ele>1417.0</ele>
<time>2014-05-01T07:42:58Z</time>
<speed>0.6</speed>
</trkpt>
<trkpt lat="47.379085" lon="10.246745">
<ele>1416.6</ele>
<time>2014-05-01T07:43:03Z</time>
<speed>0.8</speed>
</trkpt>
<trkpt lat="47.379116" lon="10.246709">
<ele>1416.6</ele>
<time>2014-05-01T07:43:08Z</time>
<speed>0.3</speed>
</trkpt>
<trkpt lat="47.379155" lon="10.246678">
<ele>1416.0</ele>
<time>2014-05-01T07:43:13Z</time>
<speed>0.5</speed>
</trkpt>
<trkpt lat="47.379204" lon="10.246641">
<ele>1415.6</ele>
<time>2014-05-01T07:43:18Z</time>
<speed>0.3</speed>
</trkpt>
<trkpt lat="47.379248" lon="10.246600">
<ele>1416.6</ele>
<time>2014-05-01T07:43:25Z</time>
<speed>0.3</speed>
</trkpt>
<trkpt lat="47.379254" lon="10.246531">
<ele>1416.2</ele>
<time>2014-05-01T07:43:30Z</time>
<speed>0.6</speed>
</trkpt>
<trkpt lat="47.379258" lon="10.246466">
<ele>1418.8</ele>
<time>2014-05-01T07:43:35Z</time>
<speed>0.4</speed>
</trkpt>
<trkpt lat="47.379241" lon="10.246415">
<ele>1419.4</ele>
<time>2014-05-01T07:43:46Z</time>
<speed>0.4</speed>
</trkpt>
<trkpt lat="47.379221" lon="10.246359">
<ele>1419.4</ele>
<time>2014-05-01T07:43:54Z</time>
<speed>0.3</speed>
</trkpt>
<trkpt lat="47.379209" lon="10.246304">
<ele>1419.6</ele>
<time>2014-05-01T07:44:00Z</time>
<speed>0.5</speed>
</trkpt>
<trkpt lat="47.379177" lon="10.246228">
<ele>1416.6</ele>
<time>2014-05-01T07:44:05Z</time>
<speed>0.5</speed>
</trkpt>
<trkpt lat="47.379102" lon="10.246191">
<ele>1418.2</ele>
<time>2014-05-01T07:44:12Z</time>
<speed>0.4</speed>
</trkpt>
<trkpt lat="47.379023" lon="10.246102">
<ele>1417.0</ele>
<time>2014-05-01T07:44:17Z</time>
<speed>0.7</speed>
</trkpt>
<trkpt lat="47.378998" lon="10.246033">
<ele>1415.8</ele>
<time>2014-05-01T07:44:22Z</time>
<speed>0.6</speed>
</trkpt>
<trkpt lat="47.378982" lon="10.245979">
<ele>1420.0</ele>
<time>2014-05-01T07:44:27Z</time>
<speed>0.4</speed>
</trkpt>
<trkpt lat="47.378956" lon="10.245905">
<ele>1418.2</ele>
<time>2014-05-01T07:44:37Z</time>
<speed>0.3</speed>
</trkpt>
<trkpt lat="47.378955" lon="10.245857">
<ele>1417.6</ele>
<time>2014-05-01T07:44:43Z</time>
<speed>0.4</speed>
</trkpt>
<trkpt lat="47.378951" lon="10.245802">
<ele>1416.8</ele>
<time>2014-05-01T07:44:48Z</time>
<speed>0.6</speed>
</trkpt>
<trkpt lat="47.378946" lon="10.245736">
<ele>1416.2</ele>
<time>2014-05-01T07:44:53Z</time>
<speed>0.3</speed>
</trkpt>
<trkpt lat="47.378932" lon="10.245677">
<ele>1414.6</ele>
<time>2014-05-01T07:44:59Z</time>
<speed>0.3</speed>
</trkpt>
<trkpt lat="47.378926" lon="10.245601">
<ele>1411.6</ele>
<time>2014-05-01T07:45:04Z</time>
<speed>0.5</speed>
</trkpt>
<trkpt lat="47.378921" lon="10.245545">
<ele>1414.8</ele>
<time>2014-05-01T07:45:16Z</time>
<speed>0.4</speed>
</trkpt>
<trkpt lat="47.378928" lon="10.245497">
<ele>1419.6</ele>
<time>2014-05-01T07:45:21Z</time>
<speed>1.3</speed>
</trkpt>
<trkpt lat="47.378978" lon="10.245391">
<ele>1413.8</ele>
<time>2014-05-01T07:45:26Z</time>
<speed>1.6</speed>
</trkpt>
<trkpt lat="47.379012" lon="10.245190">
<ele>1413.8</ele>
<time>2014-05-01T07:45:31Z</time>
<speed>3.3</speed>
</trkpt>
<trkpt lat="47.379061" lon="10.244796">
<ele>1410.6</ele>
<time>2014-05-01T07:45:36Z</time>
<speed>4.5</speed>
</trkpt>
<trkpt lat="47.379156" lon="10.244545">
<ele>1412.6</ele>
<time>2014-05-01T07:45:41Z</time>
<speed>3.7</speed>
</trkpt>
<trkpt lat="47.379266" lon="10.244361">
<ele>1410.8</ele>
<time>2014-05-01T07:45:46Z</time>
<speed>3.4</speed>
</trkpt>
<trkpt lat="47.379450" lon="10.244073">
<ele>1412.4</ele>
<time>2014-05-01T07:45:51Z</time>
<speed>4.9</speed>
</trkpt>
<trkpt lat="47.379739" lon="10.243710">
<ele>1407.6</ele>
<time>2014-05-01T07:45:57Z</time>
<speed>5.9</speed>
</trkpt>
<trkpt lat="47.379970" lon="10.243305">
<ele>1408.0</ele>
<time>2014-05-01T07:46:03Z</time>
<speed>6.0</speed>
</trkpt>
<trkpt lat="47.380194" lon="10.243051">
<ele>1408.6</ele>
<time>2014-05-01T07:46:09Z</time>
<speed>4.4</speed>
</trkpt>
<trkpt lat="47.380292" lon="10.242938">
<ele>1408.4</ele>
<time>2014-05-01T07:46:14Z</time>
<speed>3.2</speed>
</trkpt>
<trkpt lat="47.380351" lon="10.242765">
<ele>1411.2</ele>
<time>2014-05-01T07:46:19Z</time>
<speed>2.5</speed>
</trkpt>
<trkpt lat="47.380345" lon="10.242526">
<ele>1407.8</ele>
<time>2014-05-01T07:46:24Z</time>
<speed>2.6</speed>
</trkpt>
<trkpt lat="47.380409" lon="10.242352">
<ele>1405.6</ele>
<time>2014-05-01T07:46:29Z</time>
<speed>2.7</speed>
</trkpt>
<trkpt lat="47.380478" lon="10.242130">
<ele>1404.8</ele>
<time>2014-05-01T07:46:34Z</time>
<speed>3.0</speed>
</trkpt>
<trkpt lat="47.380527" lon="10.241946">
<ele>1397.8</ele>
<time>2014-05-01T07:46:39Z</time>
<speed>2.0</speed>
</trkpt>
<trkpt lat="47.380519" lon="10.241818">
<ele>1397.4</ele>
<time>2014-05-01T07:46:44Z</time>
<speed>1.3</speed>
</trkpt>
<trkpt lat="47.380455" lon="10.241721">
<ele>1398.8</ele>
<time>2014-05-01T07:46:49Z</time>
<speed>1.4</speed>
</trkpt>
<trkpt lat="47.380355" lon="10.241652">
<ele>1397.2</ele>
<time>2014-05-01T07:46:54Z</time>
<speed>1.8</speed>
</trkpt>
<trkpt lat="47.380261" lon="10.241612">
<ele>1394.6</ele>
<time>2014-05-01T07:46:59Z</time>
<speed>2.1</speed>
</trkpt>
<trkpt lat="47.380177" lon="10.241560">
<ele>1396.4</ele>
<time>2014-05-01T07:47:04Z</time>
<speed>1.7</speed>
</trkpt>
<trkpt lat="47.380107" lon="10.241486">
<ele>1392.6</ele>
<time>2014-05-01T07:47:09Z</time>
<speed>1.6</speed>
</trkpt>
<trkpt lat="47.380037" lon="10.241440">
<ele>1395.2</ele>
<time>2014-05-01T07:47:14Z</time>
<speed>1.4</speed>
</trkpt>
<trkpt lat="47.379986" lon="10.241324">
<ele>1392.2</ele>
<time>2014-05-01T07:47:19Z</time>
<speed>2.5</speed>
</trkpt>
<trkpt lat="47.379970" lon="10.241140">
<ele>1394.4</ele>
<time>2014-05-01T07:47:24Z</time>
<speed>2.6</speed>
</trkpt>
<trkpt lat="47.379943" lon="10.240954">
<ele>1391.2</ele>
<time>2014-05-01T07:47:29Z</time>
<speed>2.8</speed>
</trkpt>
<trkpt lat="47.379927" lon="10.240831">
<ele>1390.8</ele>
<time>2014-05-01T07:47:34Z</time>
<speed>1.7</speed>
</trkpt>
<trkpt lat="47.379926" lon="10.240678">
<ele>1388.4</ele>
<time>2014-05-01T07:47:39Z</time>
<speed>2.4</speed>
</trkpt>
<trkpt lat="47.379926" lon="10.240510">
<ele>1385.6</ele>
<time>2014-05-01T07:47:44Z</time>
<speed>3.0</speed>
</trkpt>
<trkpt lat="47.379951" lon="10.240346">
<ele>1385.8</ele>
<time>2014-05-01T07:47:49Z</time>
<speed>2.4</speed>
</trkpt>
<trkpt lat="47.379970" lon="10.240180">
<ele>1384.6</ele>
<time>2014-05-01T07:47:54Z</time>
<speed>2.5</speed>
</trkpt>
<trkpt lat="47.379965" lon="10.240013">
<ele>1382.4</ele>
<time>2014-05-01T07:47:59Z</time>
<speed>2.3</speed>
</trkpt>
<trkpt lat="47.379956" lon="10.239831">
<ele>1383.6</ele>
<time>2014-05-01T07:48:04Z</time>
<speed>2.8</speed>
</trkpt>
<trkpt lat="47.379948" lon="10.239647">
<ele>1380.2</ele>
<time>2014-05-01T07:48:09Z</time>
<speed>2.7</speed>
</trkpt>
<trkpt lat="47.379878" lon="10.239535">
<ele>1383.2</ele>
<time>2014-05-01T07:48:14Z</time>
<speed>2.4</speed>
</trkpt>
<trkpt lat="47.379809" lon="10.239403">
<ele>1384.4</ele>
<time>2014-05-01T07:48:19Z</time>
<speed>2.5</speed>
</trkpt>
<trkpt lat="47.379771" lon="10.239248">
<ele>1384.2</ele>
<time>2014-05-01T07:48:24Z</time>
<speed>2.4</speed>
</trkpt>
<trkpt lat="47.379746" lon="10.239079">
<ele>1383.8</ele>
<time>2014-05-01T07:48:29Z</time>
<speed>2.6</speed>
</trkpt>
<trkpt lat="47.379721" lon="10.238902">
<ele>1385.0</ele>
<time>2014-05-01T07:48:34Z</time>
<speed>2.7</speed>
</trkpt>
<trkpt lat="47.379683" lon="10.238733">
<ele>1387.8</ele>
<time>2014-05-01T07:48:39Z</time>
<speed>2.7</speed>
</trkpt>
<trkpt lat="47.379592" lon="10.238613">
<ele>1386.6</ele>
<time>2014-05-01T07:48:44Z</time>
<speed>2.8</speed>
</trkpt>
<trkpt lat="47.379477" lon="10.238550">
<ele>1391.8</ele>
<time>2014-05-01T07:48:49Z</time>
<speed>2.7</speed>
</trkpt>
<trkpt lat="47.379363" lon="10.238478">
<ele>1388.8</ele>
<time>2014-05-01T07:48:54Z</time>
<speed>2.6</speed>
</trkpt>
<trkpt lat="47.379264" lon="10.238370">
<ele>1392.2</ele>
<time>2014-05-01T07:48:59Z</time>
<speed>2.9</speed>
</trkpt>
<trkpt lat="47.379149" lon="10.238272">
<ele>1389.6</ele>
<time>2014-05-01T07:49:04Z</time>
<speed>2.9</speed>
</trkpt>
<trkpt lat="47.379028" lon="10.238236">
<ele>1393.4</ele>
<time>2014-05-01T07:49:09Z</time>
<speed>2.8</speed>
</trkpt>
<trkpt lat="47.378899" lon="10.238211">
<ele>1395.6</ele>
<time>2014-05-01T07:49:14Z</time>
<speed>3.0</speed>
</trkpt>
<trkpt lat="47.378784" lon="10.238139">
<ele>1390.8</ele>
<time>2014-05-01T07:49:19Z</time>
<speed>2.3</speed>
</trkpt>
<trkpt lat="47.378690" lon="10.238054">
<ele>1394.0</ele>
<time>2014-05-01T07:49:24Z</time>
<speed>2.6</speed>
</trkpt>
<trkpt lat="47.378595" lon="10.237973">
<ele>1397.0</ele>
<time>2014-05-01T07:49:29Z</time>
<speed>2.4</speed>
</trkpt>
<trkpt lat="47.378514" lon="10.237863">
<ele>1397.0</ele>
<time>2014-05-01T07:49:34Z</time>
<speed>2.2</speed>
</trkpt>
<trkpt lat="47.378464" lon="10.237712">
<ele>1397.2</ele>
<time>2014-05-01T07:49:39Z</time>
<speed>2.3</speed>
</trkpt>
<trkpt lat="47.378409" lon="10.237591">
<ele>1400.2</ele>
<time>2014-05-01T07:49:44Z</time>
<speed>2.1</speed>
</trkpt>
<trkpt lat="47.378332" lon="10.237520">
<ele>1401.2</ele>
<time>2014-05-01T07:49:49Z</time>
<speed>2.0</speed>
</trkpt>
<trkpt lat="47.378255" lon="10.237473">
<ele>1403.6</ele>
<time>2014-05-01T07:49:54Z</time>
<speed>2.2</speed>
</trkpt>
<trkpt lat="47.378209" lon="10.237323">
<ele>1406.4</ele>
<time>2014-05-01T07:49:59Z</time>
<speed>3.1</speed>
</trkpt>
<trkpt lat="47.378160" lon="10.237086">
<ele>1403.4</ele>
<time>2014-05-01T07:50:04Z</time>
<speed>4.5</speed>
</trkpt>
<trkpt lat="47.378137" lon="10.236769">
<ele>1402.4</ele>
<time>2014-05-01T07:50:09Z</time>
<speed>4.6</speed>
</trkpt>
<trkpt lat="47.378080" lon="10.236437">
<ele>1402.2</ele>
<time>2014-05-01T07:50:14Z</time>
<speed>5.4</speed>
</trkpt>
<trkpt lat="47.377999" lon="10.236117">
<ele>1405.6</ele>
<time>2014-05-01T07:50:19Z</time>
<speed>4.9</speed>
</trkpt>
<trkpt lat="47.377898" lon="10.235830">
<ele>1405.6</ele>
<time>2014-05-01T07:50:24Z</time>
<speed>4.5</speed>
</trkpt>
<trkpt lat="47.377776" lon="10.235553">
<ele>1403.4</ele>
<time>2014-05-01T07:50:29Z</time>
<speed>5.5</speed>
</trkpt>
<trkpt lat="47.377696" lon="10.235192">
<ele>1402.0</ele>
<time>2014-05-01T07:50:34Z</time>
<speed>5.7</speed>
</trkpt>
<trkpt lat="47.377560" lon="10.234891">
<ele>1406.4</ele>
<time>2014-05-01T07:50:39Z</time>
<speed>4.7</speed>
</trkpt>
<trkpt lat="47.377362" lon="10.234679">
<ele>1398.8</ele>
<time>2014-05-01T07:50:44Z</time>
<speed>5.1</speed>
</trkpt>
<trkpt lat="47.377198" lon="10.234289">
<ele>1399.6</ele>
<time>2014-05-01T07:50:49Z</time>
<speed>6.5</speed>
</trkpt>
<trkpt lat="47.377011" lon="10.233884">
<ele>1395.2</ele>
<time>2014-05-01T07:50:54Z</time>
<speed>7.4</speed>
</trkpt>
<trkpt lat="47.376748" lon="10.233402">
<ele>1392.0</ele>
<time>2014-05-01T07:50:59Z</time>
<speed>8.2</speed>
</trkpt>
<trkpt lat="47.376515" lon="10.232920">
<ele>1393.8</ele>
<time>2014-05-01T07:51:04Z</time>
<speed>8.5</speed>
</trkpt>
<trkpt lat="47.376285" lon="10.232512">
<ele>1389.4</ele>
<time>2014-05-01T07:51:09Z</time>
<speed>7.5</speed>
</trkpt>
<trkpt lat="47.376124" lon="10.232139">
<ele>1387.8</ele>
<time>2014-05-01T07:51:14Z</time>
<speed>5.8</speed>
</trkpt>
<trkpt lat="47.376025" lon="10.231727">
<ele>1388.6</ele>
<time>2014-05-01T07:51:19Z</time>
<speed>6.8</speed>
</trkpt>
<trkpt lat="47.375810" lon="10.231337">
<ele>1385.6</ele>
<time>2014-05-01T07:51:24Z</time>
<speed>7.2</speed>
</trkpt>
<trkpt lat="47.375573" lon="10.231023">
<ele>1376.6</ele>
<time>2014-05-01T07:51:29Z</time>
<speed>6.0</speed>
</trkpt>
<trkpt lat="47.375388" lon="10.230670">
<ele>1373.4</ele>
<time>2014-05-01T07:51:34Z</time>
<speed>6.4</speed>
</trkpt>
<trkpt lat="47.375219" lon="10.230336">
<ele>1369.6</ele>
<time>2014-05-01T07:51:39Z</time>
<speed>5.6</speed>
</trkpt>
<trkpt lat="47.375083" lon="10.229979">
<ele>1369.6</ele>
<time>2014-05-01T07:51:44Z</time>
<speed>6.4</speed>
</trkpt>
<trkpt lat="47.374892" lon="10.229597">
<ele>1360.6</ele>
<time>2014-05-01T07:51:49Z</time>
<speed>8.4</speed>
</trkpt>
<trkpt lat="47.374706" lon="10.229190">
<ele>1363.4</ele>
<time>2014-05-01T07:51:54Z</time>
<speed>6.1</speed>
</trkpt>
<trkpt lat="47.374504" lon="10.228973">
<ele>1360.0</ele>
<time>2014-05-01T07:51:59Z</time>
<speed>6.1</speed>
</trkpt>
<trkpt lat="47.374280" lon="10.228729">
<ele>1361.0</ele>
<time>2014-05-01T07:52:04Z</time>
<speed>6.5</speed>
</trkpt>
<trkpt lat="47.374133" lon="10.228381">
<ele>1358.8</ele>
<time>2014-05-01T07:52:09Z</time>
<speed>5.6</speed>
</trkpt>
<trkpt lat="47.374125" lon="10.228046">
<ele>1364.2</ele>
<time>2014-05-01T07:52:14Z</time>
<speed>4.6</speed>
</trkpt>
<trkpt lat="47.374071" lon="10.227739">
<ele>1359.6</ele>
<time>2014-05-01T07:52:19Z</time>
<speed>4.4</speed>
</trkpt>
<trkpt lat="47.373971" lon="10.227470">
<ele>1359.6</ele>
<time>2014-05-01T07:52:24Z</time>
<speed>4.3</speed>
</trkpt>
<trkpt lat="47.373838" lon="10.227238">
<ele>1362.0</ele>
<time>2014-05-01T07:52:29Z</time>
<speed>4.7</speed>
</trkpt>
<trkpt lat="47.373712" lon="10.226961">
<ele>1358.8</ele>
<time>2014-05-01T07:52:34Z</time>
<speed>5.6</speed>
</trkpt>
<trkpt lat="47.373562" lon="10.226614">
<ele>1358.0</ele>
<time>2014-05-01T07:52:39Z</time>
<speed>6.8</speed>
</trkpt>
<trkpt lat="47.373412" lon="10.226219">
<ele>1356.8</ele>
<time>2014-05-01T07:52:44Z</time>
<speed>6.4</speed>
</trkpt>
<trkpt lat="47.373277" lon="10.225822">
<ele>1356.8</ele>
<time>2014-05-01T07:52:49Z</time>
<speed>6.7</speed>
</trkpt>
<trkpt lat="47.373206" lon="10.225386">
<ele>1356.8</ele>
<time>2014-05-01T07:52:54Z</time>
<speed>6.7</speed>
</trkpt>
<trkpt lat="47.373125" lon="10.224935">
<ele>1352.6</ele>
<time>2014-05-01T07:52:59Z</time>
<speed>8.0</speed>
</trkpt>
<trkpt lat="47.373050" lon="10.224458">
<ele>1350.6</ele>
<time>2014-05-01T07:53:04Z</time>
<speed>7.5</speed>
</trkpt>
<trkpt lat="47.372889" lon="10.224041">
<ele>1349.0</ele>
<time>2014-05-01T07:53:09Z</time>
<speed>7.3</speed>
</trkpt>
<trkpt lat="47.372599" lon="10.223699">
<ele>1344.2</ele>
<time>2014-05-01T07:53:14Z</time>
<speed>8.3</speed>
</trkpt>
<trkpt lat="47.372338" lon="10.223239">
<ele>1342.4</ele>
<time>2014-05-01T07:53:19Z</time>
<speed>8.5</speed>
</trkpt>
<trkpt lat="47.372141" lon="10.222929">
<ele>1346.2</ele>
<time>2014-05-01T07:53:24Z</time>
<speed>5.2</speed>
</trkpt>
<trkpt lat="47.371988" lon="10.222711">
<ele>1343.6</ele>
<time>2014-05-01T07:53:29Z</time>
<speed>4.8</speed>
</trkpt>
<trkpt lat="47.371798" lon="10.222527">
<ele>1344.6</ele>
<time>2014-05-01T07:53:34Z</time>
<speed>5.6</speed>
</trkpt>
<trkpt lat="47.371564" lon="10.222370">
<ele>1345.8</ele>
<time>2014-05-01T07:53:39Z</time>
<speed>5.9</speed>
</trkpt>
<trkpt lat="47.371322" lon="10.222216">
<ele>1350.2</ele>
<time>2014-05-01T07:53:44Z</time>
<speed>5.8</speed>
</trkpt>
<trkpt lat="47.371081" lon="10.222099">
<ele>1346.4</ele>
<time>2014-05-01T07:53:49Z</time>
<speed>5.6</speed>
</trkpt>
<trkpt lat="47.370809" lon="10.222012">
<ele>1348.8</ele>
<time>2014-05-01T07:53:55Z</time>
<speed>4.2</speed>
</trkpt>
<trkpt lat="47.370591" lon="10.222007">
<ele>1348.2</ele>
<time>2014-05-01T07:54:00Z</time>
<speed>4.5</speed>
</trkpt>
<trkpt lat="47.370528" lon="10.221977">
<ele>1346.2</ele>
<time>2014-05-01T07:54:06Z</time>
<speed>0.8</speed>
</trkpt>
<trkpt lat="47.370588" lon="10.221909">
<ele>1350.6</ele>
<time>2014-05-01T07:54:53Z</time>
<speed>0.3</speed>
</trkpt>
<trkpt lat="47.370553" lon="10.221984">
<ele>1350.6</ele>
<time>2014-05-01T07:55:31Z</time>
<speed>0.3</speed>
</trkpt>
<trkpt lat="47.370555" lon="10.221982">
<ele>1350.6</ele>
<time>2014-05-01T07:55:52Z</time>
<speed>0.5</speed>
</trkpt>
<trkpt lat="47.370538" lon="10.221941">
<ele>1351.4</ele>
<time>2014-05-01T07:56:03Z</time>
<speed>1.3</speed>
</trkpt>
<trkpt lat="47.370457" lon="10.221838">
<ele>1349.8</ele>
<time>2014-05-01T07:56:08Z</time>
<speed>2.9</speed>
</trkpt>
<trkpt lat="47.370319" lon="10.221677">
<ele>1350.2</ele>
<time>2014-05-01T07:56:13Z</time>
<speed>3.4</speed>
</trkpt>
<trkpt lat="47.370151" lon="10.221594">
<ele>1354.4</ele>
<time>2014-05-01T07:56:18Z</time>
<speed>4.0</speed>
</trkpt>
<trkpt lat="47.370043" lon="10.221376">
<ele>1352.8</ele>
<time>2014-05-01T07:56:23Z</time>
<speed>3.3</speed>
</trkpt>
<trkpt lat="47.370008" lon="10.221130">
<ele>1349.8</ele>
<time>2014-05-01T07:56:28Z</time>
<speed>3.1</speed>
</trkpt>
<trkpt lat="47.369973" lon="10.220931">
<ele>1351.8</ele>
<time>2014-05-01T07:56:33Z</time>
<speed>2.7</speed>
</trkpt>
<trkpt lat="47.369839" lon="10.220755">
<ele>1351.8</ele>
<time>2014-05-01T07:56:38Z</time>
<speed>4.0</speed>
</trkpt>
<trkpt lat="47.369678" lon="10.220589">
<ele>1353.6</ele>
<time>2014-05-01T07:56:43Z</time>
<speed>4.7</speed>
</trkpt>
<trkpt lat="47.369564" lon="10.220293">
<ele>1350.8</ele>
<time>2014-05-01T07:56:48Z</time>
<speed>4.8</speed>
</trkpt>
<trkpt lat="47.369472" lon="10.219946">
<ele>1352.2</ele>
<time>2014-05-01T07:56:53Z</time>
<speed>5.7</speed>
</trkpt>
<trkpt lat="47.369299" lon="10.219623">
<ele>1350.2</ele>
<time>2014-05-01T07:56:58Z</time>
<speed>6.4</speed>
</trkpt>
<trkpt lat="47.369101" lon="10.219265">
<ele>1349.4</ele>
<time>2014-05-01T07:57:03Z</time>
<speed>7.3</speed>
</trkpt>
<trkpt lat="47.368809" lon="10.218964">
<ele>1344.4</ele>
<time>2014-05-01T07:57:08Z</time>
<speed>8.6</speed>
</trkpt>
<trkpt lat="47.368582" lon="10.218558">
<ele>1342.2</ele>
<time>2014-05-01T07:57:13Z</time>
<speed>8.5</speed>
</trkpt>
<trkpt lat="47.368518" lon="10.218037">
<ele>1338.2</ele>
<time>2014-05-01T07:57:18Z</time>
<speed>7.5</speed>
</trkpt>
<trkpt lat="47.368329" lon="10.217559">
<ele>1334.6</ele>
<time>2014-05-01T07:57:23Z</time>
<speed>8.8</speed>
</trkpt>
<trkpt lat="47.368070" lon="10.217116">
<ele>1330.8</ele>
<time>2014-05-01T07:57:28Z</time>
<speed>8.6</speed>
</trkpt>
<trkpt lat="47.367879" lon="10.216637">
<ele>1330.0</ele>
<time>2014-05-01T07:57:33Z</time>
<speed>7.3</speed>
</trkpt>
<trkpt lat="47.367647" lon="10.216217">
<ele>1328.0</ele>
<time>2014-05-01T07:57:38Z</time>
<speed>8.6</speed>
</trkpt>
<trkpt lat="47.367420" lon="10.215760">
<ele>1327.6</ele>
<time>2014-05-01T07:57:43Z</time>
<speed>8.5</speed>
</trkpt>
<trkpt lat="47.367309" lon="10.215260">
<ele>1323.6</ele>
<time>2014-05-01T07:57:48Z</time>
<speed>7.9</speed>
</trkpt>
<trkpt lat="47.367211" lon="10.214767">
<ele>1324.0</ele>
<time>2014-05-01T07:57:53Z</time>
<speed>7.6</speed>
</trkpt>
<trkpt lat="47.367168" lon="10.214278">
<ele>1320.2</ele>
<time>2014-05-01T07:57:58Z</time>
<speed>7.5</speed>
</trkpt>
<trkpt lat="47.367127" lon="10.213794">
<ele>1318.8</ele>
<time>2014-05-01T07:58:03Z</time>
<speed>6.8</speed>
</trkpt>
<trkpt lat="47.367103" lon="10.213332">
<ele>1316.2</ele>
<time>2014-05-01T07:58:08Z</time>
<speed>6.5</speed>
</trkpt>
<trkpt lat="47.366992" lon="10.212943">
<ele>1312.8</ele>
<time>2014-05-01T07:58:13Z</time>
<speed>6.4</speed>
</trkpt>
<trkpt lat="47.366874" lon="10.212544">
<ele>1308.4</ele>
<time>2014-05-01T07:58:18Z</time>
<speed>7.0</speed>
</trkpt>
<trkpt lat="47.366951" lon="10.212124">
<ele>1305.6</ele>
<time>2014-05-01T07:58:23Z</time>
<speed>5.8</speed>
</trkpt>
<trkpt lat="47.366802" lon="10.211756">
<ele>1303.4</ele>
<time>2014-05-01T07:58:28Z</time>
<speed>6.8</speed>
</trkpt>
<trkpt lat="47.366607" lon="10.211348">
<ele>1302.6</ele>
<time>2014-05-01T07:58:33Z</time>
<speed>7.5</speed>
</trkpt>
<trkpt lat="47.366330" lon="10.211166">
<ele>1304.6</ele>
<time>2014-05-01T07:58:38Z</time>
<speed>6.7</speed>
</trkpt>
<trkpt lat="47.366087" lon="10.211089">
<ele>1303.2</ele>
<time>2014-05-01T07:58:43Z</time>
<speed>4.4</speed>
</trkpt>
<trkpt lat="47.365904" lon="10.211059">
<ele>1301.6</ele>
<time>2014-05-01T07:58:48Z</time>
<speed>4.2</speed>
</trkpt>
<trkpt lat="47.365734" lon="10.211095">
<ele>1303.6</ele>
<time>2014-05-01T07:58:53Z</time>
<speed>3.8</speed>
</trkpt>
<trkpt lat="47.365564" lon="10.211099">
<ele>1305.4</ele>
<time>2014-05-01T07:58:58Z</time>
<speed>3.7</speed>
</trkpt>
<trkpt lat="47.365412" lon="10.211005">
<ele>1305.4</ele>
<time>2014-05-01T07:59:03Z</time>
<speed>3.6</speed>
</trkpt>
<trkpt lat="47.365286" lon="10.210819">
<ele>1307.0</ele>
<time>2014-05-01T07:59:08Z</time>
<speed>4.1</speed>
</trkpt>
<trkpt lat="47.365153" lon="10.210622">
<ele>1309.0</ele>
<time>2014-05-01T07:59:13Z</time>
<speed>4.2</speed>
</trkpt>
<trkpt lat="47.365009" lon="10.210418">
<ele>1309.2</ele>
<time>2014-05-01T07:59:18Z</time>
<speed>4.7</speed>
</trkpt>
<trkpt lat="47.364841" lon="10.210200">
<ele>1306.0</ele>
<time>2014-05-01T07:59:23Z</time>
<speed>5.0</speed>
</trkpt>
<trkpt lat="47.364620" lon="10.210106">
<ele>1307.2</ele>
<time>2014-05-01T07:59:28Z</time>
<speed>5.3</speed>
</trkpt>
<trkpt lat="47.364378" lon="10.210119">
<ele>1309.0</ele>
<time>2014-05-01T07:59:33Z</time>
<speed>5.1</speed>
</trkpt>
<trkpt lat="47.364221" lon="10.209838">
<ele>1305.8</ele>
<time>2014-05-01T07:59:39Z</time>
<speed>5.0</speed>
</trkpt>
<trkpt lat="47.364186" lon="10.209519">
<ele>1306.0</ele>
<time>2014-05-01T07:59:44Z</time>
<speed>4.1</speed>
</trkpt>
<trkpt lat="47.364044" lon="10.209269">
<ele>1302.2</ele>
<time>2014-05-01T07:59:49Z</time>
<speed>4.8</speed>
</trkpt>
<trkpt lat="47.363825" lon="10.209459">
<ele>1302.0</ele>
<time>2014-05-01T07:59:54Z</time>
<speed>6.4</speed>
</trkpt>
<trkpt lat="47.363532" lon="10.209454">
<ele>1299.4</ele>
<time>2014-05-01T07:59:59Z</time>
<speed>5.0</speed>
</trkpt>
<trkpt lat="47.363546" lon="10.209017">
<ele>1298.0</ele>
<time>2014-05-01T08:00:04Z</time>
<speed>6.9</speed>
</trkpt>
<trkpt lat="47.363574" lon="10.208612">
<ele>1295.2</ele>
<time>2014-05-01T08:00:09Z</time>
<speed>5.9</speed>
</trkpt>
<trkpt lat="47.363448" lon="10.208290">
<ele>1292.2</ele>
<time>2014-05-01T08:00:14Z</time>
<speed>6.7</speed>
</trkpt>
<trkpt lat="47.363176" lon="10.208029">
<ele>1288.0</ele>
<time>2014-05-01T08:00:19Z</time>
<speed>6.9</speed>
</trkpt>
<trkpt lat="47.362856" lon="10.207945">
<ele>1282.6</ele>
<time>2014-05-01T08:00:24Z</time>
<speed>7.0</speed>
</trkpt>
<trkpt lat="47.362605" lon="10.207656">
<ele>1280.4</ele>
<time>2014-05-01T08:00:29Z</time>
<speed>7.9</speed>
</trkpt>
<trkpt lat="47.362425" lon="10.207231">
<ele>1278.8</ele>
<time>2014-05-01T08:00:34Z</time>
<speed>7.6</speed>
</trkpt>
<trkpt lat="47.362182" lon="10.206925">
<ele>1276.2</ele>
<time>2014-05-01T08:00:39Z</time>
<speed>6.5</speed>
</trkpt>
<trkpt lat="47.362053" lon="10.206716">
<ele>1269.2</ele>
<time>2014-05-01T08:00:44Z</time>
<speed>3.8</speed>
</trkpt>
<trkpt lat="47.362350" lon="10.206656">
<ele>1267.6</ele>
<time>2014-05-01T08:00:49Z</time>
<speed>7.7</speed>
</trkpt>
<trkpt lat="47.362697" lon="10.206481">
<ele>1263.2</ele>
<time>2014-05-01T08:00:54Z</time>
<speed>7.9</speed>
</trkpt>
<trkpt lat="47.362950" lon="10.206032">
<ele>1259.2</ele>
<time>2014-05-01T08:00:59Z</time>
<speed>8.2</speed>
</trkpt>
<trkpt lat="47.363138" lon="10.205693">
<ele>1251.8</ele>
<time>2014-05-01T08:01:04Z</time>
<speed>4.3</speed>
</trkpt>
<trkpt lat="47.363161" lon="10.205652">
<ele>1253.0</ele>
<time>2014-05-01T08:01:11Z</time>
<speed>0.3</speed>
</trkpt>
<trkpt lat="47.363165" lon="10.205691">
<ele>1252.4</ele>
<time>2014-05-01T08:01:54Z</time>
<speed>0.3</speed>
</trkpt>
<trkpt lat="47.363275" lon="10.205563">
<ele>1249.8</ele>
<time>2014-05-01T08:01:59Z</time>
<speed>5.7</speed>
</trkpt>
<trkpt lat="47.363518" lon="10.205225">
<ele>1244.2</ele>
<time>2014-05-01T08:02:04Z</time>
<speed>7.1</speed>
</trkpt>
<trkpt lat="47.363816" lon="10.205035">
<ele>1241.2</ele>
<time>2014-05-01T08:02:09Z</time>
<speed>7.7</speed>
</trkpt>
<trkpt lat="47.364168" lon="10.204860">
<ele>1233.8</ele>
<time>2014-05-01T08:02:14Z</time>
<speed>8.2</speed>
</trkpt>
<trkpt lat="47.364448" lon="10.204685">
<ele>1228.8</ele>
<time>2014-05-01T08:02:19Z</time>
<speed>6.0</speed>
</trkpt>
<trkpt lat="47.364704" lon="10.204776">
<ele>1226.6</ele>
<time>2014-05-01T08:02:24Z</time>
<speed>7.3</speed>
</trkpt>
<trkpt lat="47.365031" lon="10.205082">
<ele>1224.6</ele>
<time>2014-05-01T08:02:29Z</time>
<speed>8.3</speed>
</trkpt>
<trkpt lat="47.365356" lon="10.205237">
<ele>1217.2</ele>
<time>2014-05-01T08:02:34Z</time>
<speed>7.2</speed>
</trkpt>
<trkpt lat="47.365697" lon="10.205395">
<ele>1216.2</ele>
<time>2014-05-01T08:02:39Z</time>
<speed>8.4</speed>
</trkpt>
<trkpt lat="47.366017" lon="10.205605">
<ele>1212.8</ele>
<time>2014-05-01T08:02:44Z</time>
<speed>6.5</speed>
</trkpt>
<trkpt lat="47.366315" lon="10.205705">
<ele>1213.0</ele>
<time>2014-05-01T08:02:49Z</time>
<speed>7.4</speed>
</trkpt>
<trkpt lat="47.366638" lon="10.205753">
<ele>1209.8</ele>
<time>2014-05-01T08:02:54Z</time>
<speed>7.3</speed>
</trkpt>
<trkpt lat="47.366955" lon="10.205977">
<ele>1210.4</ele>
<time>2014-05-01T08:02:59Z</time>
<speed>7.1</speed>
</trkpt>
<trkpt lat="47.367175" lon="10.206209">
<ele>1208.0</ele>
<time>2014-05-01T08:03:04Z</time>
<speed>5.3</speed>
</trkpt>
<trkpt lat="47.367552" lon="10.206318">
<ele>1205.2</ele>
<time>2014-05-01T08:03:09Z</time>
<speed>6.9</speed>
</trkpt>
<trkpt lat="47.367759" lon="10.206514">
<ele>1202.2</ele>
<time>2014-05-01T08:03:14Z</time>
<speed>5.6</speed>
</trkpt>
<trkpt lat="47.367991" lon="10.206897">
<ele>1202.6</ele>
<time>2014-05-01T08:03:19Z</time>
<speed>7.8</speed>
</trkpt>
<trkpt lat="47.368205" lon="10.207171">
<ele>1197.2</ele>
<time>2014-05-01T08:03:24Z</time>
<speed>7.2</speed>
</trkpt>
<trkpt lat="47.368479" lon="10.207498">
<ele>1192.6</ele>
<time>2014-05-01T08:03:29Z</time>
<speed>6.3</speed>
</trkpt>
<trkpt lat="47.368721" lon="10.207729">
<ele>1190.8</ele>
<time>2014-05-01T08:03:34Z</time>
<speed>5.8</speed>
</trkpt>
<trkpt lat="47.368944" lon="10.207920">
<ele>1185.0</ele>
<time>2014-05-01T08:03:39Z</time>
<speed>6.3</speed>
</trkpt>
<trkpt lat="47.369157" lon="10.208270">
<ele>1181.4</ele>
<time>2014-05-01T08:03:44Z</time>
<speed>5.7</speed>
</trkpt>
<trkpt lat="47.369524" lon="10.208261">
<ele>1177.6</ele>
<time>2014-05-01T08:03:49Z</time>
<speed>7.4</speed>
</trkpt>
<trkpt lat="47.369822" lon="10.208151">
<ele>1177.0</ele>
<time>2014-05-01T08:03:54Z</time>
<speed>6.7</speed>
</trkpt>
<trkpt lat="47.370015" lon="10.207996">
<ele>1175.6</ele>
<time>2014-05-01T08:03:59Z</time>
<speed>6.6</speed>
</trkpt>
<trkpt lat="47.370184" lon="10.208080">
<ele>1162.0</ele>
<time>2014-05-01T08:04:04Z</time>
<speed>7.7</speed>
</trkpt>
<trkpt lat="47.370486" lon="10.208290">
<ele>1154.4</ele>
<time>2014-05-01T08:04:09Z</time>
<speed>7.1</speed>
</trkpt>
<trkpt lat="47.370800" lon="10.208327">
<ele>1147.0</ele>
<time>2014-05-01T08:04:14Z</time>
<speed>6.7</speed>
</trkpt>
<trkpt lat="47.371149" lon="10.208368">
<ele>1140.4</ele>
<time>2014-05-01T08:04:19Z</time>
<speed>6.8</speed>
</trkpt>
<trkpt lat="47.371440" lon="10.208295">
<ele>1134.0</ele>
<time>2014-05-01T08:04:24Z</time>
<speed>5.3</speed>
</trkpt>
<trkpt lat="47.371692" lon="10.208348">
<ele>1130.0</ele>
<time>2014-05-01T08:04:30Z</time>
<speed>3.1</speed>
</trkpt>
<trkpt lat="47.371708" lon="10.208392">
<ele>1124.6</ele>
<time>2014-05-01T08:04:36Z</time>
<speed>0.6</speed>
</trkpt>
<trkpt lat="47.371830" lon="10.208451">
<ele>1128.0</ele>
<time>2014-05-01T08:04:41Z</time>
<speed>4.9</speed>
</trkpt>
<trkpt lat="47.372083" lon="10.208453">
<ele>1122.0</ele>
<time>2014-05-01T08:04:46Z</time>
<speed>4.2</speed>
</trkpt>
<trkpt lat="47.372055" lon="10.208195">
<ele>1119.4</ele>
<time>2014-05-01T08:04:51Z</time>
<speed>4.7</speed>
</trkpt>
<trkpt lat="47.371880" lon="10.207918">
<ele>1116.0</ele>
<time>2014-05-01T08:04:56Z</time>
<speed>6.5</speed>
</trkpt>
<trkpt lat="47.371580" lon="10.207600">
<ele>1111.6</ele>
<time>2014-05-01T08:05:01Z</time>
<speed>8.6</speed>
</trkpt>
<trkpt lat="47.371221" lon="10.207346">
<ele>1105.6</ele>
<time>2014-05-01T08:05:06Z</time>
<speed>9.3</speed>
</trkpt>
<trkpt lat="47.371086" lon="10.206785">
<ele>1101.4</ele>
<time>2014-05-01T08:05:11Z</time>
<speed>7.7</speed>
</trkpt>
<trkpt lat="47.370904" lon="10.206325">
<ele>1100.4</ele>
<time>2014-05-01T08:05:16Z</time>
<speed>9.7</speed>
</trkpt>
<trkpt lat="47.370652" lon="10.205818">
<ele>1094.8</ele>
<time>2014-05-01T08:05:21Z</time>
<speed>7.3</speed>
</trkpt>
<trkpt lat="47.370384" lon="10.205593">
<ele>1096.0</ele>
<time>2014-05-01T08:05:26Z</time>
<speed>7.4</speed>
</trkpt>
<trkpt lat="47.370070" lon="10.205501">
<ele>1097.0</ele>
<time>2014-05-01T08:05:31Z</time>
<speed>7.0</speed>
</trkpt>
<trkpt lat="47.369818" lon="10.205270">
<ele>1093.2</ele>
<time>2014-05-01T08:05:36Z</time>
<speed>7.3</speed>
</trkpt>
<trkpt lat="47.369591" lon="10.204805">
<ele>1089.6</ele>
<time>2014-05-01T08:05:41Z</time>
<speed>9.2</speed>
</trkpt>
<trkpt lat="47.369453" lon="10.204252">
<ele>1087.8</ele>
<time>2014-05-01T08:05:46Z</time>
<speed>9.4</speed>
</trkpt>
<trkpt lat="47.369442" lon="10.203676">
<ele>1084.2</ele>
<time>2014-05-01T08:05:51Z</time>
<speed>6.3</speed>
</trkpt>
<trkpt lat="47.369257" lon="10.203336">
<ele>1081.6</ele>
<time>2014-05-01T08:05:56Z</time>
<speed>8.1</speed>
</trkpt>
<trkpt lat="47.368927" lon="10.203035">
<ele>1075.8</ele>
<time>2014-05-01T08:06:01Z</time>
<speed>7.6</speed>
</trkpt>
<trkpt lat="47.368888" lon="10.202514">
<ele>1074.4</ele>
<time>2014-05-01T08:06:06Z</time>
<speed>7.8</speed>
</trkpt>
<trkpt lat="47.368637" lon="10.202084">
<ele>1071.2</ele>
<time>2014-05-01T08:06:11Z</time>
<speed>9.3</speed>
</trkpt>
<trkpt lat="47.368394" lon="10.201679">
<ele>1065.4</ele>
<time>2014-05-01T08:06:16Z</time>
<speed>6.6</speed>
</trkpt>
<trkpt lat="47.368197" lon="10.201447">
<ele>1067.0</ele>
<time>2014-05-01T08:06:21Z</time>
<speed>6.1</speed>
</trkpt>
<trkpt lat="47.367997" lon="10.201164">
<ele>1067.2</ele>
<time>2014-05-01T08:06:26Z</time>
<speed>6.3</speed>
</trkpt>
<trkpt lat="47.367767" lon="10.200864">
<ele>1065.8</ele>
<time>2014-05-01T08:06:31Z</time>
<speed>5.9</speed>
</trkpt>
<trkpt lat="47.367602" lon="10.200566">
<ele>1063.0</ele>
<time>2014-05-01T08:06:36Z</time>
<speed>5.7</speed>
</trkpt>
<trkpt lat="47.367464" lon="10.200249">
<ele>1065.0</ele>
<time>2014-05-01T08:06:41Z</time>
<speed>5.6</speed>
</trkpt>
<trkpt lat="47.367316" lon="10.199944">
<ele>1067.0</ele>
<time>2014-05-01T08:06:46Z</time>
<speed>5.8</speed>
</trkpt>
<trkpt lat="47.367193" lon="10.199657">
<ele>1064.6</ele>
<time>2014-05-01T08:06:51Z</time>
<speed>5.1</speed>
</trkpt>
<trkpt lat="47.367030" lon="10.199398">
<ele>1065.0</ele>
<time>2014-05-01T08:06:56Z</time>
<speed>5.0</speed>
</trkpt>
<trkpt lat="47.366836" lon="10.199165">
<ele>1066.6</ele>
<time>2014-05-01T08:07:01Z</time>
<speed>4.1</speed>
</trkpt>
<trkpt lat="47.366662" lon="10.198989">
<ele>1068.0</ele>
<time>2014-05-01T08:07:06Z</time>
<speed>4.4</speed>
</trkpt>
<trkpt lat="47.366444" lon="10.198823">
<ele>1067.2</ele>
<time>2014-05-01T08:07:11Z</time>
<speed>5.2</speed>
</trkpt>
<trkpt lat="47.366235" lon="10.198632">
<ele>1067.0</ele>
<time>2014-05-01T08:07:16Z</time>
<speed>5.0</speed>
</trkpt>
<trkpt lat="47.366038" lon="10.198469">
<ele>1067.8</ele>
<time>2014-05-01T08:07:21Z</time>
<speed>5.0</speed>
</trkpt>
<trkpt lat="47.365829" lon="10.198343">
<ele>1068.2</ele>
<time>2014-05-01T08:07:26Z</time>
<speed>5.1</speed>
</trkpt>
<trkpt lat="47.365616" lon="10.198292">
<ele>1069.0</ele>
<time>2014-05-01T08:07:31Z</time>
<speed>4.5</speed>
</trkpt>
<trkpt lat="47.365466" lon="10.198229">
<ele>1071.0</ele>
<time>2014-05-01T08:07:36Z</time>
<speed>2.7</speed>
</trkpt>
<trkpt lat="47.365413" lon="10.197996">
<ele>1067.2</ele>
<time>2014-05-01T08:07:41Z</time>
<speed>4.3</speed>
</trkpt>
<trkpt lat="47.365450" lon="10.197625">
<ele>1068.0</ele>
<time>2014-05-01T08:07:46Z</time>
<speed>6.8</speed>
</trkpt>
<trkpt lat="47.365629" lon="10.197117">
<ele>1064.2</ele>
<time>2014-05-01T08:07:51Z</time>
<speed>9.7</speed>
</trkpt>
<trkpt lat="47.365971" lon="10.196602">
<ele>1062.4</ele>
<time>2014-05-01T08:07:56Z</time>
<speed>11.7</speed>
</trkpt>
<trkpt lat="47.366391" lon="10.196043">
<ele>1056.4</ele>
<time>2014-05-01T08:08:01Z</time>
<speed>13.0</speed>
</trkpt>
<trkpt lat="47.366759" lon="10.195364">
<ele>1052.2</ele>
<time>2014-05-01T08:08:06Z</time>
<speed>13.0</speed>
</trkpt>
<trkpt lat="47.367015" lon="10.194601">
<ele>1048.6</ele>
<time>2014-05-01T08:08:11Z</time>
<speed>12.2</speed>
</trkpt>
<trkpt lat="47.367178" lon="10.193855">
<ele>1048.6</ele>
<time>2014-05-01T08:08:16Z</time>
<speed>11.1</speed>
</trkpt>
<trkpt lat="47.367308" lon="10.193174">
<ele>1048.0</ele>
<time>2014-05-01T08:08:21Z</time>
<speed>10.0</speed>
</trkpt>
<trkpt lat="47.367436" lon="10.192560">
<ele>1047.0</ele>
<time>2014-05-01T08:08:26Z</time>
<speed>9.6</speed>
</trkpt>
<trkpt lat="47.367552" lon="10.191955">
<ele>1049.4</ele>
<time>2014-05-01T08:08:31Z</time>
<speed>9.1</speed>
</trkpt>
<trkpt lat="47.367631" lon="10.191403">
<ele>1048.4</ele>
<time>2014-05-01T08:08:36Z</time>
<speed>8.3</speed>
</trkpt>
<trkpt lat="47.367607" lon="10.190872">
<ele>1049.4</ele>
<time>2014-05-01T08:08:41Z</time>
<speed>8.0</speed>
</trkpt>
<trkpt lat="47.367486" lon="10.190365">
<ele>1050.6</ele>
<time>2014-05-01T08:08:46Z</time>
<speed>7.7</speed>
</trkpt>
<trkpt lat="47.367366" lon="10.189955">
<ele>1054.0</ele>
<time>2014-05-01T08:08:51Z</time>
<speed>6.1</speed>
</trkpt>
<trkpt lat="47.367282" lon="10.189629">
<ele>1052.4</ele>
<time>2014-05-01T08:08:56Z</time>
<speed>4.9</speed>
</trkpt>
<trkpt lat="47.367237" lon="10.189341">
<ele>1052.6</ele>
<time>2014-05-01T08:09:01Z</time>
<speed>3.6</speed>
</trkpt>
<trkpt lat="47.367213" lon="10.189200">
<ele>1055.6</ele>
<time>2014-05-01T08:09:06Z</time>
<speed>2.6</speed>
</trkpt>
<trkpt lat="47.367197" lon="10.189024">
<ele>1058.6</ele>
<time>2014-05-01T08:09:11Z</time>
<speed>2.5</speed>
</trkpt>
<trkpt lat="47.367298" lon="10.188953">
<ele>1058.2</ele>
<time>2014-05-01T08:09:16Z</time>
<speed>2.8</speed>
</trkpt>
<trkpt lat="47.367385" lon="10.189042">
<ele>1060.6</ele>
<time>2014-05-01T08:09:21Z</time>
<speed>2.8</speed>
</trkpt>
<trkpt lat="47.367484" lon="10.189152">
<ele>1063.4</ele>
<time>2014-05-01T08:09:26Z</time>
<speed>2.6</speed>
</trkpt>
<trkpt lat="47.367583" lon="10.189276">
<ele>1063.6</ele>
<time>2014-05-01T08:09:31Z</time>
<speed>3.3</speed>
</trkpt>
<trkpt lat="47.367704" lon="10.189514">
<ele>1062.6</ele>
<time>2014-05-01T08:09:36Z</time>
<speed>4.9</speed>
</trkpt>
<trkpt lat="47.367873" lon="10.189880">
<ele>1064.0</ele>
<time>2014-05-01T08:09:42Z</time>
<speed>5.6</speed>
</trkpt>
<trkpt lat="47.368083" lon="10.190268">
<ele>1065.6</ele>
<time>2014-05-01T08:09:48Z</time>
<speed>6.6</speed>
</trkpt>
<trkpt lat="47.368258" lon="10.190630">
<ele>1061.8</ele>
<time>2014-05-01T08:09:53Z</time>
<speed>6.5</speed>
</trkpt>
<trkpt lat="47.368492" lon="10.190893">
<ele>1065.6</ele>
<time>2014-05-01T08:09:58Z</time>
<speed>6.8</speed>
</trkpt>
<trkpt lat="47.368787" lon="10.191028">
<ele>1064.2</ele>
<time>2014-05-01T08:10:03Z</time>
<speed>6.3</speed>
</trkpt>
<trkpt lat="47.369018" lon="10.191189">
<ele>1068.4</ele>
<time>2014-05-01T08:10:08Z</time>
<speed>5.8</speed>
</trkpt>
<trkpt lat="47.369280" lon="10.191370">
<ele>1067.2</ele>
<time>2014-05-01T08:10:13Z</time>
<speed>5.5</speed>
</trkpt>
<trkpt lat="47.369497" lon="10.191519">
<ele>1067.2</ele>
<time>2014-05-01T08:10:18Z</time>
<speed>5.8</speed>
</trkpt>
<trkpt lat="47.369747" lon="10.191461">
<ele>1072.0</ele>
<time>2014-05-01T08:10:23Z</time>
<speed>6.0</speed>
</trkpt>
<trkpt lat="47.369984" lon="10.191300">
<ele>1068.6</ele>
<time>2014-05-01T08:10:28Z</time>
<speed>5.7</speed>
</trkpt>
<trkpt lat="47.370201" lon="10.191345">
<ele>1073.0</ele>
<time>2014-05-01T08:10:33Z</time>
<speed>4.8</speed>
</trkpt>
<trkpt lat="47.370406" lon="10.191500">
<ele>1071.8</ele>
<time>2014-05-01T08:10:38Z</time>
<speed>5.1</speed>
</trkpt>
<trkpt lat="47.370649" lon="10.191507">
<ele>1070.4</ele>
<time>2014-05-01T08:10:43Z</time>
<speed>5.8</speed>
</trkpt>
<trkpt lat="47.370913" lon="10.191466">
<ele>1069.4</ele>
<time>2014-05-01T08:10:48Z</time>
<speed>5.9</speed>
</trkpt>
<trkpt lat="47.371180" lon="10.191427">
<ele>1070.0</ele>
<time>2014-05-01T08:10:53Z</time>
<speed>5.8</speed>
</trkpt>
<trkpt lat="47.371450" lon="10.191314">
<ele>1068.2</ele>
<time>2014-05-01T08:10:58Z</time>
<speed>6.4</speed>
</trkpt>
<trkpt lat="47.371662" lon="10.191003">
<ele>1069.8</ele>
<time>2014-05-01T08:11:03Z</time>
<speed>6.7</speed>
</trkpt>
<trkpt lat="47.371901" lon="10.190714">
<ele>1071.0</ele>
<time>2014-05-01T08:11:08Z</time>
<speed>7.1</speed>
</trkpt>
<trkpt lat="47.372172" lon="10.190445">
<ele>1072.4</ele>
<time>2014-05-01T08:11:13Z</time>
<speed>7.3</speed>
</trkpt>
<trkpt lat="47.372457" lon="10.190205">
<ele>1073.4</ele>
<time>2014-05-01T08:11:18Z</time>
<speed>7.4</speed>
</trkpt>
<trkpt lat="47.372797" lon="10.190025">
<ele>1072.8</ele>
<time>2014-05-01T08:11:23Z</time>
<speed>8.6</speed>
</trkpt>
<trkpt lat="47.373153" lon="10.189788">
<ele>1072.8</ele>
<time>2014-05-01T08:11:28Z</time>
<speed>8.5</speed>
</trkpt>
<trkpt lat="47.373465" lon="10.189511">
<ele>1073.4</ele>
<time>2014-05-01T08:11:33Z</time>
<speed>7.9</speed>
</trkpt>
<trkpt lat="47.373777" lon="10.189364">
<ele>1070.4</ele>
<time>2014-05-01T08:11:38Z</time>
<speed>6.9</speed>
</trkpt>
<trkpt lat="47.374054" lon="10.189249">
<ele>1069.4</ele>
<time>2014-05-01T08:11:43Z</time>
<speed>5.9</speed>
</trkpt>
<trkpt lat="47.374287" lon="10.189174">
<ele>1074.8</ele>
<time>2014-05-01T08:11:48Z</time>
<speed>5.1</speed>
</trkpt>
<trkpt lat="47.374488" lon="10.189111">
<ele>1071.4</ele>
<time>2014-05-01T08:11:53Z</time>
<speed>4.2</speed>
</trkpt>
<trkpt lat="47.374680" lon="10.189060">
<ele>1071.8</ele>
<time>2014-05-01T08:11:58Z</time>
<speed>4.3</speed>
</trkpt>
<trkpt lat="47.374879" lon="10.189004">
<ele>1071.6</ele>
<time>2014-05-01T08:12:03Z</time>
<speed>4.3</speed>
</trkpt>
<trkpt lat="47.375073" lon="10.188938">
<ele>1070.4</ele>
<time>2014-05-01T08:12:08Z</time>
<speed>4.3</speed>
</trkpt>
<trkpt lat="47.375263" lon="10.188873">
<ele>1071.2</ele>
<time>2014-05-01T08:12:13Z</time>
<speed>4.1</speed>
</trkpt>
<trkpt lat="47.375419" lon="10.188775">
<ele>1073.6</ele>
<time>2014-05-01T08:12:18Z</time>
<speed>3.6</speed>
</trkpt>
<trkpt lat="47.375562" lon="10.188667">
<ele>1073.4</ele>
<time>2014-05-01T08:12:23Z</time>
<speed>3.6</speed>
</trkpt>
<trkpt lat="47.375706" lon="10.188568">
<ele>1076.6</ele>
<time>2014-05-01T08:12:28Z</time>
<speed>3.4</speed>
</trkpt>
<trkpt lat="47.375860" lon="10.188507">
<ele>1078.8</ele>
<time>2014-05-01T08:12:33Z</time>
<speed>3.4</speed>
</trkpt>
<trkpt lat="47.376017" lon="10.188466">
<ele>1081.2</ele>
<time>2014-05-01T08:12:38Z</time>
<speed>3.4</speed>
</trkpt>
<trkpt lat="47.376150" lon="10.188408">
<ele>1082.4</ele>
<time>2014-05-01T08:12:43Z</time>
<speed>2.5</speed>
</trkpt>
<trkpt lat="47.376257" lon="10.188340">
<ele>1082.2</ele>
<time>2014-05-01T08:12:48Z</time>
<speed>2.3</speed>
</trkpt>
<trkpt lat="47.376354" lon="10.188255">
<ele>1084.0</ele>
<time>2014-05-01T08:12:53Z</time>
<speed>2.5</speed>
</trkpt>
<trkpt lat="47.376447" lon="10.188175">
<ele>1085.6</ele>
<time>2014-05-01T08:12:58Z</time>
<speed>2.5</speed>
</trkpt>
<trkpt lat="47.376541" lon="10.188092">
<ele>1086.6</ele>
<time>2014-05-01T08:13:03Z</time>
<speed>2.4</speed>
</trkpt>
<trkpt lat="47.376630" lon="10.188005">
<ele>1087.4</ele>
<time>2014-05-01T08:13:08Z</time>
<speed>2.5</speed>
</trkpt>
<trkpt lat="47.376722" lon="10.187922">
<ele>1088.2</ele>
<time>2014-05-01T08:13:13Z</time>
<speed>2.4</speed>
</trkpt>
<trkpt lat="47.376813" lon="10.187821">
<ele>1089.2</ele>
<time>2014-05-01T08:13:18Z</time>
<speed>2.5</speed>
</trkpt>
<trkpt lat="47.376907" lon="10.187724">
<ele>1091.4</ele>
<time>2014-05-01T08:13:23Z</time>
<speed>2.6</speed>
</trkpt>
<trkpt lat="47.376999" lon="10.187632">
<ele>1089.8</ele>
<time>2014-05-01T08:13:28Z</time>
<speed>2.5</speed>
</trkpt>
<trkpt lat="47.377092" lon="10.187531">
<ele>1095.6</ele>
<time>2014-05-01T08:13:33Z</time>
<speed>2.6</speed>
</trkpt>
<trkpt lat="47.377171" lon="10.187438">
<ele>1094.0</ele>
<time>2014-05-01T08:13:38Z</time>
<speed>2.4</speed>
</trkpt>
<trkpt lat="47.377257" lon="10.187333">
<ele>1097.6</ele>
<time>2014-05-01T08:13:43Z</time>
<speed>2.3</speed>
</trkpt>
<trkpt lat="47.377345" lon="10.187231">
<ele>1098.6</ele>
<time>2014-05-01T08:13:48Z</time>
<speed>2.5</speed>
</trkpt>
<trkpt lat="47.377431" lon="10.187119">
<ele>1102.4</ele>
<time>2014-05-01T08:13:53Z</time>
<speed>2.3</speed>
</trkpt>
<trkpt lat="47.377515" lon="10.187032">
<ele>1103.0</ele>
<time>2014-05-01T08:13:58Z</time>
<speed>2.1</speed>
</trkpt>
<trkpt lat="47.377589" lon="10.186947">
<ele>1101.4</ele>
<time>2014-05-01T08:14:03Z</time>
<speed>2.0</speed>
</trkpt>
<trkpt lat="47.377662" lon="10.186857">
<ele>1103.4</ele>
<time>2014-05-01T08:14:08Z</time>
<speed>2.1</speed>
</trkpt>
<trkpt lat="47.377725" lon="10.186751">
<ele>1106.6</ele>
<time>2014-05-01T08:14:13Z</time>
<speed>2.1</speed>
</trkpt>
<trkpt lat="47.377786" lon="10.186640">
<ele>1108.4</ele>
<time>2014-05-01T08:14:18Z</time>
<speed>2.2</speed>
</trkpt>
<trkpt lat="47.377842" lon="10.186519">
<ele>1110.0</ele>
<time>2014-05-01T08:14:23Z</time>
<speed>2.2</speed>
</trkpt>
<trkpt lat="47.377889" lon="10.186395">
<ele>1111.6</ele>
<time>2014-05-01T08:14:28Z</time>
<speed>2.1</speed>
</trkpt>
<trkpt lat="47.377939" lon="10.186281">
<ele>1109.0</ele>
<time>2014-05-01T08:14:33Z</time>
<speed>2.1</speed>
</trkpt>
<trkpt lat="47.377993" lon="10.186135">
<ele>1114.6</ele>
<time>2014-05-01T08:14:39Z</time>
<speed>2.1</speed>
</trkpt>
<trkpt lat="47.378071" lon="10.186026">
<ele>1111.0</ele>
<time>2014-05-01T08:14:45Z</time>
<speed>2.4</speed>
</trkpt>
<trkpt lat="47.378179" lon="10.186120">
<ele>1116.4</ele>
<time>2014-05-01T08:14:50Z</time>
<speed>2.6</speed>
</trkpt>
<trkpt lat="47.378208" lon="10.186299">
<ele>1113.8</ele>
<time>2014-05-01T08:14:55Z</time>
<speed>3.0</speed>
</trkpt>
<trkpt lat="47.378224" lon="10.186492">
<ele>1114.4</ele>
<time>2014-05-01T08:15:00Z</time>
<speed>2.9</speed>
</trkpt>
<trkpt lat="47.378237" lon="10.186682">
<ele>1118.8</ele>
<time>2014-05-01T08:15:05Z</time>
<speed>2.9</speed>
</trkpt>
<trkpt lat="47.378282" lon="10.186860">
<ele>1120.2</ele>
<time>2014-05-01T08:15:10Z</time>
<speed>2.8</speed>
</trkpt>
<trkpt lat="47.378370" lon="10.186997">
<ele>1120.4</ele>
<time>2014-05-01T08:15:15Z</time>
<speed>2.9</speed>
</trkpt>
<trkpt lat="47.378473" lon="10.187102">
<ele>1121.4</ele>
<time>2014-05-01T08:15:20Z</time>
<speed>2.9</speed>
</trkpt>
<trkpt lat="47.378580" lon="10.187208">
<ele>1125.0</ele>
<time>2014-05-01T08:15:25Z</time>
<speed>2.9</speed>
</trkpt>
<trkpt lat="47.378680" lon="10.187330">
<ele>1126.8</ele>
<time>2014-05-01T08:15:30Z</time>
<speed>2.9</speed>
</trkpt>
<trkpt lat="47.378780" lon="10.187453">
<ele>1129.0</ele>
<time>2014-05-01T08:15:35Z</time>
<speed>2.9</speed>
</trkpt>
<trkpt lat="47.378874" lon="10.187582">
<ele>1128.8</ele>
<time>2014-05-01T08:15:40Z</time>
<speed>2.9</speed>
</trkpt>
<trkpt lat="47.378960" lon="10.187715">
<ele>1130.0</ele>
<time>2014-05-01T08:15:45Z</time>
<speed>2.8</speed>
</trkpt>
<trkpt lat="47.379050" lon="10.187847">
<ele>1131.8</ele>
<time>2014-05-01T08:15:50Z</time>
<speed>2.9</speed>
</trkpt>
<trkpt lat="47.379152" lon="10.187963">
<ele>1130.8</ele>
<time>2014-05-01T08:15:55Z</time>
<speed>2.9</speed>
</trkpt>
<trkpt lat="47.379261" lon="10.188064">
<ele>1136.4</ele>
<time>2014-05-01T08:16:00Z</time>
<speed>2.9</speed>
</trkpt>
<trkpt lat="47.379374" lon="10.188153">
<ele>1135.2</ele>
<time>2014-05-01T08:16:05Z</time>
<speed>3.1</speed>
</trkpt>
<trkpt lat="47.379490" lon="10.188247">
<ele>1134.0</ele>
<time>2014-05-01T08:16:10Z</time>
<speed>3.0</speed>
</trkpt>
<trkpt lat="47.379602" lon="10.188341">
<ele>1137.2</ele>
<time>2014-05-01T08:16:15Z</time>
<speed>3.0</speed>
</trkpt>
<trkpt lat="47.379721" lon="10.188441">
<ele>1136.0</ele>
<time>2014-05-01T08:16:20Z</time>
<speed>3.1</speed>
</trkpt>
<trkpt lat="47.379827" lon="10.188531">
<ele>1140.2</ele>
<time>2014-05-01T08:16:25Z</time>
<speed>2.9</speed>
</trkpt>
<trkpt lat="47.379941" lon="10.188626">
<ele>1139.2</ele>
<time>2014-05-01T08:16:30Z</time>
<speed>2.9</speed>
</trkpt>
<trkpt lat="47.380056" lon="10.188710">
<ele>1140.4</ele>
<time>2014-05-01T08:16:35Z</time>
<speed>3.2</speed>
</trkpt>
<trkpt lat="47.380190" lon="10.188765">
<ele>1143.2</ele>
<time>2014-05-01T08:16:40Z</time>
<speed>2.9</speed>
</trkpt>
<trkpt lat="47.380374" lon="10.188749">
<ele>1142.8</ele>
<time>2014-05-01T08:16:45Z</time>
<speed>4.1</speed>
</trkpt>
<trkpt lat="47.380576" lon="10.188707">
<ele>1139.8</ele>
<time>2014-05-01T08:16:50Z</time>
<speed>4.2</speed>
</trkpt>
<trkpt lat="47.380780" lon="10.188636">
<ele>1140.6</ele>
<time>2014-05-01T08:16:55Z</time>
<speed>5.0</speed>
</trkpt>
<trkpt lat="47.381000" lon="10.188541">
<ele>1145.6</ele>
<time>2014-05-01T08:17:00Z</time>
<speed>5.0</speed>
</trkpt>
<trkpt lat="47.381205" lon="10.188466">
<ele>1142.2</ele>
<time>2014-05-01T08:17:05Z</time>
<speed>4.5</speed>
</trkpt>
<trkpt lat="47.381421" lon="10.188460">
<ele>1142.2</ele>
<time>2014-05-01T08:17:10Z</time>
<speed>5.0</speed>
</trkpt>
<trkpt lat="47.381629" lon="10.188335">
<ele>1142.8</ele>
<time>2014-05-01T08:17:15Z</time>
<speed>5.0</speed>
</trkpt>
<trkpt lat="47.381801" lon="10.188157">
<ele>1141.4</ele>
<time>2014-05-01T08:17:20Z</time>
<speed>4.9</speed>
</trkpt>
<trkpt lat="47.382018" lon="10.187953">
<ele>1144.4</ele>
<time>2014-05-01T08:17:25Z</time>
<speed>6.2</speed>
</trkpt>
<trkpt lat="47.382243" lon="10.187741">
<ele>1146.2</ele>
<time>2014-05-01T08:17:30Z</time>
<speed>6.3</speed>
</trkpt>
<trkpt lat="47.382465" lon="10.187501">
<ele>1146.8</ele>
<time>2014-05-01T08:17:35Z</time>
<speed>5.0</speed>
</trkpt>
<trkpt lat="47.382675" lon="10.187309">
<ele>1150.8</ele>
<time>2014-05-01T08:17:40Z</time>
<speed>3.9</speed>
</trkpt>
<trkpt lat="47.382873" lon="10.187139">
<ele>1152.8</ele>
<time>2014-05-01T08:17:45Z</time>
<speed>4.1</speed>
</trkpt>
<trkpt lat="47.383047" lon="10.186957">
<ele>1152.6</ele>
<time>2014-05-01T08:17:50Z</time>
<speed>3.4</speed>
</trkpt>
<trkpt lat="47.383180" lon="10.186833">
<ele>1153.0</ele>
<time>2014-05-01T08:17:55Z</time>
<speed>3.4</speed>
</trkpt>
<trkpt lat="47.383314" lon="10.186712">
<ele>1155.2</ele>
<time>2014-05-01T08:18:00Z</time>
<speed>3.4</speed>
</trkpt>
<trkpt lat="47.383449" lon="10.186604">
<ele>1155.8</ele>
<time>2014-05-01T08:18:05Z</time>
<speed>3.4</speed>
</trkpt>
<trkpt lat="47.383573" lon="10.186488">
<ele>1157.8</ele>
<time>2014-05-01T08:18:10Z</time>
<speed>3.5</speed>
</trkpt>
<trkpt lat="47.383727" lon="10.186352">
<ele>1156.6</ele>
<time>2014-05-01T08:18:16Z</time>
<speed>3.5</speed>
</trkpt>
<trkpt lat="47.383865" lon="10.186237">
<ele>1162.2</ele>
<time>2014-05-01T08:18:21Z</time>
<speed>3.5</speed>
</trkpt>
<trkpt lat="47.384014" lon="10.186152">
<ele>1161.4</ele>
<time>2014-05-01T08:18:26Z</time>
<speed>3.4</speed>
</trkpt>
<trkpt lat="47.384158" lon="10.186086">
<ele>1164.6</ele>
<time>2014-05-01T08:18:31Z</time>
<speed>3.2</speed>
</trkpt>
<trkpt lat="47.384300" lon="10.186004">
<ele>1163.2</ele>
<time>2014-05-01T08:18:36Z</time>
<speed>3.7</speed>
</trkpt>
<trkpt lat="47.384441" lon="10.185860">
<ele>1164.2</ele>
<time>2014-05-01T08:18:41Z</time>
<speed>4.2</speed>
</trkpt>
<trkpt lat="47.384643" lon="10.185728">
<ele>1162.6</ele>
<time>2014-05-01T08:18:46Z</time>
<speed>4.8</speed>
</trkpt>
<trkpt lat="47.384859" lon="10.185701">
<ele>1159.6</ele>
<time>2014-05-01T08:18:51Z</time>
<speed>4.4</speed>
</trkpt>
<trkpt lat="47.385067" lon="10.185689">
<ele>1159.6</ele>
<time>2014-05-01T08:18:56Z</time>
<speed>4.7</speed>
</trkpt>
<trkpt lat="47.385274" lon="10.185620">
<ele>1162.4</ele>
<time>2014-05-01T08:19:01Z</time>
<speed>4.5</speed>
</trkpt>
<trkpt lat="47.385436" lon="10.185376">
<ele>1163.6</ele>
<time>2014-05-01T08:19:06Z</time>
<speed>5.5</speed>
</trkpt>
<trkpt lat="47.385604" lon="10.185089">
<ele>1161.4</ele>
<time>2014-05-01T08:19:11Z</time>
<speed>5.8</speed>
</trkpt>
<trkpt lat="47.385805" lon="10.184860">
<ele>1161.8</ele>
<time>2014-05-01T08:19:16Z</time>
<speed>5.6</speed>
</trkpt>
<trkpt lat="47.386014" lon="10.184661">
<ele>1160.6</ele>
<time>2014-05-01T08:19:21Z</time>
<speed>5.6</speed>
</trkpt>
<trkpt lat="47.386239" lon="10.184393">
<ele>1158.0</ele>
<time>2014-05-01T08:19:26Z</time>
<speed>6.2</speed>
</trkpt>
<trkpt lat="47.386413" lon="10.184109">
<ele>1156.6</ele>
<time>2014-05-01T08:19:31Z</time>
<speed>5.0</speed>
</trkpt>
<trkpt lat="47.386527" lon="10.183856">
<ele>1159.2</ele>
<time>2014-05-01T08:19:36Z</time>
<speed>4.5</speed>
</trkpt>
<trkpt lat="47.386629" lon="10.183608">
<ele>1159.0</ele>
<time>2014-05-01T08:19:41Z</time>
<speed>4.1</speed>
</trkpt>
<trkpt lat="47.386713" lon="10.183353">
<ele>1158.8</ele>
<time>2014-05-01T08:19:46Z</time>
<speed>4.2</speed>
</trkpt>
<trkpt lat="47.386804" lon="10.183110">
<ele>1159.4</ele>
<time>2014-05-01T08:19:51Z</time>
<speed>4.1</speed>
</trkpt>
<trkpt lat="47.386885" lon="10.182864">
<ele>1161.6</ele>
<time>2014-05-01T08:19:56Z</time>
<speed>4.2</speed>
</trkpt>
<trkpt lat="47.386977" lon="10.182616">
<ele>1161.6</ele>
<time>2014-05-01T08:20:01Z</time>
<speed>4.1</speed>
</trkpt>
<trkpt lat="47.387118" lon="10.182437">
<ele>1163.2</ele>
<time>2014-05-01T08:20:06Z</time>
<speed>4.0</speed>
</trkpt>
<trkpt lat="47.387310" lon="10.182374">
<ele>1163.0</ele>
<time>2014-05-01T08:20:11Z</time>
<speed>3.9</speed>
</trkpt>
<trkpt lat="47.387482" lon="10.182339">
<ele>1163.8</ele>
<time>2014-05-01T08:20:16Z</time>
<speed>3.7</speed>
</trkpt>
<trkpt lat="47.387664" lon="10.182286">
<ele>1164.8</ele>
<time>2014-05-01T08:20:21Z</time>
<speed>3.8</speed>
</trkpt>
<trkpt lat="47.387810" lon="10.182170">
<ele>1163.8</ele>
<time>2014-05-01T08:20:26Z</time>
<speed>3.6</speed>
</trkpt>
<trkpt lat="47.387957" lon="10.182006">
<ele>1164.2</ele>
<time>2014-05-01T08:20:31Z</time>
<speed>4.3</speed>
</trkpt>
<trkpt lat="47.387990" lon="10.181676">
<ele>1164.8</ele>
<time>2014-05-01T08:20:36Z</time>
<speed>4.7</speed>
</trkpt>
<trkpt lat="47.387960" lon="10.181369">
<ele>1165.0</ele>
<time>2014-05-01T08:20:41Z</time>
<speed>4.3</speed>
</trkpt>
<trkpt lat="47.387953" lon="10.181050">
<ele>1168.2</ele>
<time>2014-05-01T08:20:46Z</time>
<speed>4.8</speed>
</trkpt>
<trkpt lat="47.388040" lon="10.180704">
<ele>1166.0</ele>
<time>2014-05-01T08:20:51Z</time>
<speed>5.6</speed>
</trkpt>
<trkpt lat="47.388182" lon="10.180370">
<ele>1167.6</ele>
<time>2014-05-01T08:20:56Z</time>
<speed>6.0</speed>
</trkpt>
<trkpt lat="47.388399" lon="10.180117">
<ele>1166.4</ele>
<time>2014-05-01T08:21:01Z</time>
<speed>5.3</speed>
</trkpt>
<trkpt lat="47.388621" lon="10.179895">
<ele>1163.0</ele>
<time>2014-05-01T08:21:06Z</time>
<speed>5.4</speed>
</trkpt>
<trkpt lat="47.388817" lon="10.179632">
<ele>1164.6</ele>
<time>2014-05-01T08:21:11Z</time>
<speed>5.7</speed>
</trkpt>
<trkpt lat="47.389001" lon="10.179335">
<ele>1165.0</ele>
<time>2014-05-01T08:21:16Z</time>
<speed>5.7</speed>
</trkpt>
<trkpt lat="47.389110" lon="10.179239">
<ele>1167.4</ele>
<time>2014-05-01T08:21:21Z</time>
<speed>2.2</speed>
</trkpt>
<trkpt lat="47.389201" lon="10.179283">
<ele>1166.4</ele>
<time>2014-05-01T08:21:26Z</time>
<speed>2.1</speed>
</trkpt>
<trkpt lat="47.389232" lon="10.179381">
<ele>1166.0</ele>
<time>2014-05-01T08:21:31Z</time>
<speed>2.9</speed>
</trkpt>
<trkpt lat="47.389224" lon="10.179592">
<ele>1166.4</ele>
<time>2014-05-01T08:21:36Z</time>
<speed>3.7</speed>
</trkpt>
<trkpt lat="47.389220" lon="10.179864">
<ele>1168.0</ele>
<time>2014-05-01T08:21:41Z</time>
<speed>3.9</speed>
</trkpt>
<trkpt lat="47.389265" lon="10.180156">
<ele>1168.4</ele>
<time>2014-05-01T08:21:46Z</time>
<speed>4.0</speed>
</trkpt>
<trkpt lat="47.389306" lon="10.180405">
<ele>1169.4</ele>
<time>2014-05-01T08:21:51Z</time>
<speed>4.0</speed>
</trkpt>
<trkpt lat="47.389332" lon="10.180690">
<ele>1168.4</ele>
<time>2014-05-01T08:21:56Z</time>
<speed>4.8</speed>
</trkpt>
<trkpt lat="47.389315" lon="10.181015">
<ele>1170.4</ele>
<time>2014-05-01T08:22:01Z</time>
<speed>5.1</speed>
</trkpt>
<trkpt lat="47.389225" lon="10.181385">
<ele>1169.2</ele>
<time>2014-05-01T08:22:06Z</time>
<speed>5.3</speed>
</trkpt>
<trkpt lat="47.389140" lon="10.181702">
<ele>1171.0</ele>
<time>2014-05-01T08:22:11Z</time>
<speed>5.0</speed>
</trkpt>
<trkpt lat="47.389068" lon="10.182026">
<ele>1169.2</ele>
<time>2014-05-01T08:22:16Z</time>
<speed>5.1</speed>
</trkpt>
<trkpt lat="47.389007" lon="10.182381">
<ele>1168.2</ele>
<time>2014-05-01T08:22:21Z</time>
<speed>5.7</speed>
</trkpt>
<trkpt lat="47.388887" lon="10.182723">
<ele>1170.6</ele>
<time>2014-05-01T08:22:26Z</time>
<speed>4.8</speed>
</trkpt>
<trkpt lat="47.388991" lon="10.182981">
<ele>1171.4</ele>
<time>2014-05-01T08:22:31Z</time>
<speed>5.5</speed>
</trkpt>
<trkpt lat="47.389127" lon="10.183295">
<ele>1173.0</ele>
<time>2014-05-01T08:22:36Z</time>
<speed>5.5</speed>
</trkpt>
<trkpt lat="47.389185" lon="10.183627">
<ele>1174.0</ele>
<time>2014-05-01T08:22:41Z</time>
<speed>4.6</speed>
</trkpt>
<trkpt lat="47.389244" lon="10.183920">
<ele>1173.4</ele>
<time>2014-05-01T08:22:46Z</time>
<speed>4.9</speed>
</trkpt>
<trkpt lat="47.389306" lon="10.184236">
<ele>1176.6</ele>
<time>2014-05-01T08:22:51Z</time>
<speed>4.8</speed>
</trkpt>
<trkpt lat="47.389351" lon="10.184542">
<ele>1177.0</ele>
<time>2014-05-01T08:22:56Z</time>
<speed>4.5</speed>
</trkpt>
<trkpt lat="47.389351" lon="10.184807">
<ele>1173.4</ele>
<time>2014-05-01T08:23:01Z</time>
<speed>3.3</speed>
</trkpt>
<trkpt lat="47.389356" lon="10.185000">
<ele>1176.8</ele>
<time>2014-05-01T08:23:06Z</time>
<speed>2.2</speed>
</trkpt>
<trkpt lat="47.389353" lon="10.185125">
<ele>1177.6</ele>
<time>2014-05-01T08:23:11Z</time>
<speed>1.3</speed>
</trkpt>
<trkpt lat="47.389333" lon="10.185225">
<ele>1177.2</ele>
<time>2014-05-01T08:23:16Z</time>
<speed>1.5</speed>
</trkpt>
<trkpt lat="47.389307" lon="10.185334">
<ele>1180.8</ele>
<time>2014-05-01T08:23:21Z</time>
<speed>1.4</speed>
</trkpt>
<trkpt lat="47.389282" lon="10.185426">
<ele>1178.4</ele>
<time>2014-05-01T08:23:26Z</time>
<speed>1.6</speed>
</trkpt>
<trkpt lat="47.389258" lon="10.185531">
<ele>1182.2</ele>
<time>2014-05-01T08:23:31Z</time>
<speed>1.7</speed>
</trkpt>
<trkpt lat="47.389235" lon="10.185636">
<ele>1183.2</ele>
<time>2014-05-01T08:23:36Z</time>
<speed>1.5</speed>
</trkpt>
<trkpt lat="47.389251" lon="10.185742">
<ele>1185.8</ele>
<time>2014-05-01T08:23:41Z</time>
<speed>1.6</speed>
</trkpt>
<trkpt lat="47.389303" lon="10.185819">
<ele>1184.8</ele>
<time>2014-05-01T08:23:46Z</time>
<speed>1.7</speed>
</trkpt>
<trkpt lat="47.389361" lon="10.185902">
<ele>1186.2</ele>
<time>2014-05-01T08:23:51Z</time>
<speed>2.0</speed>
</trkpt>
<trkpt lat="47.389408" lon="10.185974">
<ele>1186.8</ele>
<time>2014-05-01T08:23:57Z</time>
<speed>0.3</speed>
</trkpt>
<trkpt lat="47.389398" lon="10.185970">
<ele>1186.8</ele>
<time>2014-05-01T08:24:07Z</time>
<speed>0.3</speed>
</trkpt>
<trkpt lat="47.389393" lon="10.186006">
<ele>1187.2</ele>
<time>2014-05-01T08:24:12Z</time>
<speed>0.3</speed>
</trkpt>
<trkpt lat="47.389389" lon="10.186014">
<ele>1186.6</ele>
<time>2014-05-01T08:24:24Z</time>
<speed>0.4</speed>
</trkpt>
<trkpt lat="47.389397" lon="10.186006">
<ele>1185.8</ele>
<time>2014-05-01T08:24:56Z</time>
<speed>0.4</speed>
</trkpt>
<trkpt lat="47.389398" lon="10.186005">
<ele>1185.8</ele>
<time>2014-05-01T08:25:05Z</time>
<speed>0.3</speed>
</trkpt>
<trkpt lat="47.389397" lon="10.186016">
<ele>1188.4</ele>
<time>2014-05-01T08:25:25Z</time>
<speed>0.4</speed>
</trkpt>
<trkpt lat="47.389400" lon="10.186023">
<ele>1186.4</ele>
<time>2014-05-01T08:25:39Z</time>
<speed>0.4</speed>
</trkpt>
<trkpt lat="47.389402" lon="10.186023">
<ele>1186.0</ele>
<time>2014-05-01T08:25:48Z</time>
<speed>0.4</speed>
</trkpt>
<trkpt lat="47.389412" lon="10.186030">
<ele>1185.8</ele>
<time>2014-05-01T08:27:18Z</time>
<speed>0.3</speed>
</trkpt>
<trkpt lat="47.389414" lon="10.186026">
<ele>1185.8</ele>
<time>2014-05-01T08:27:25Z</time>
<speed>0.4</speed>
</trkpt>
<trkpt lat="47.389417" lon="10.186025">
<ele>1187.2</ele>
<time>2014-05-01T08:27:30Z</time>
<speed>0.7</speed>
</trkpt>
<trkpt lat="47.389443" lon="10.186037">
<ele>1186.8</ele>
<time>2014-05-01T08:27:39Z</time>
<speed>1.2</speed>
</trkpt>
<trkpt lat="47.389495" lon="10.186127">
<ele>1186.6</ele>
<time>2014-05-01T08:27:44Z</time>
<speed>2.3</speed>
</trkpt>
<trkpt lat="47.389576" lon="10.186269">
<ele>1188.0</ele>
<time>2014-05-01T08:27:49Z</time>
<speed>3.0</speed>
</trkpt>
<trkpt lat="47.389668" lon="10.186418">
<ele>1187.0</ele>
<time>2014-05-01T08:27:54Z</time>
<speed>2.7</speed>
</trkpt>
<trkpt lat="47.389766" lon="10.186525">
<ele>1187.6</ele>
<time>2014-05-01T08:27:59Z</time>
<speed>2.8</speed>
</trkpt>
<trkpt lat="47.389903" lon="10.186463">
<ele>1186.2</ele>
<time>2014-05-01T08:28:04Z</time>
<speed>3.4</speed>
</trkpt>
<trkpt lat="47.390036" lon="10.186317">
<ele>1187.2</ele>
<time>2014-05-01T08:28:09Z</time>
<speed>3.6</speed>
</trkpt>
<trkpt lat="47.390182" lon="10.186186">
<ele>1186.8</ele>
<time>2014-05-01T08:28:14Z</time>
<speed>3.2</speed>
</trkpt>
<trkpt lat="47.390357" lon="10.186021">
<ele>1183.0</ele>
<time>2014-05-01T08:28:19Z</time>
<speed>4.0</speed>
</trkpt>
<trkpt lat="47.390502" lon="10.185817">
<ele>1180.0</ele>
<time>2014-05-01T08:28:24Z</time>
<speed>3.2</speed>
</trkpt>
<trkpt lat="47.390620" lon="10.185758">
<ele>1181.2</ele>
<time>2014-05-01T08:28:29Z</time>
<speed>3.2</speed>
</trkpt>
<trkpt lat="47.390703" lon="10.185848">
<ele>1184.0</ele>
<time>2014-05-01T08:28:34Z</time>
<speed>2.1</speed>
</trkpt>
<trkpt lat="47.390727" lon="10.185952">
<ele>1183.8</ele>
<time>2014-05-01T08:28:39Z</time>
<speed>1.4</speed>
</trkpt>
<trkpt lat="47.390704" lon="10.186056">
<ele>1186.2</ele>
<time>2014-05-01T08:28:44Z</time>
<speed>1.8</speed>
</trkpt>
<trkpt lat="47.390683" lon="10.186172">
<ele>1188.6</ele>
<time>2014-05-01T08:28:49Z</time>
<speed>1.1</speed>
</trkpt>
<trkpt lat="47.390714" lon="10.186313">
<ele>1189.0</ele>
<time>2014-05-01T08:28:54Z</time>
<speed>1.9</speed>
</trkpt>
<trkpt lat="47.390773" lon="10.186446">
<ele>1190.2</ele>
<time>2014-05-01T08:28:59Z</time>
<speed>1.9</speed>
</trkpt>
<trkpt lat="47.390841" lon="10.186542">
<ele>1191.4</ele>
<time>2014-05-01T08:29:04Z</time>
<speed>1.6</speed>
</trkpt>
<trkpt lat="47.390883" lon="10.186629">
<ele>1189.6</ele>
<time>2014-05-01T08:29:09Z</time>
<speed>1.6</speed>
</trkpt>
<trkpt lat="47.390937" lon="10.186703">
<ele>1191.0</ele>
<time>2014-05-01T08:29:14Z</time>
<speed>1.6</speed>
</trkpt>
<trkpt lat="47.390986" lon="10.186767">
<ele>1188.6</ele>
<time>2014-05-01T08:29:19Z</time>
<speed>1.6</speed>
</trkpt>
<trkpt lat="47.391021" lon="10.186832">
<ele>1191.4</ele>
<time>2014-05-01T08:29:24Z</time>
<speed>1.4</speed>
</trkpt>
<trkpt lat="47.391072" lon="10.186868">
<ele>1190.0</ele>
<time>2014-05-01T08:29:29Z</time>
<speed>1.5</speed>
</trkpt>
<trkpt lat="47.391115" lon="10.186952">
<ele>1192.2</ele>
<time>2014-05-01T08:29:34Z</time>
<speed>1.9</speed>
</trkpt>
<trkpt lat="47.391168" lon="10.187040">
<ele>1196.2</ele>
<time>2014-05-01T08:29:39Z</time>
<speed>1.5</speed>
</trkpt>
<trkpt lat="47.391214" lon="10.187147">
<ele>1194.0</ele>
<time>2014-05-01T08:29:44Z</time>
<speed>1.7</speed>
</trkpt>
<trkpt lat="47.391255" lon="10.187245">
<ele>1195.2</ele>
<time>2014-05-01T08:29:49Z</time>
<speed>1.5</speed>
</trkpt>
<trkpt lat="47.391285" lon="10.187334">
<ele>1195.2</ele>
<time>2014-05-01T08:29:54Z</time>
<speed>1.5</speed>
</trkpt>
<trkpt lat="47.391310" lon="10.187374">
<ele>1196.4</ele>
<time>2014-05-01T08:29:59Z</time>
<speed>0.8</speed>
</trkpt>
<trkpt lat="47.391348" lon="10.187410">
<ele>1200.0</ele>
<time>2014-05-01T08:30:04Z</time>
<speed>0.9</speed>
</trkpt>
<trkpt lat="47.391412" lon="10.187471">
<ele>1202.8</ele>
<time>2014-05-01T08:30:09Z</time>
<speed>0.4</speed>
</trkpt>
<trkpt lat="47.391499" lon="10.187449">
<ele>1201.8</ele>
<time>2014-05-01T08:30:14Z</time>
<speed>1.0</speed>
</trkpt>
<trkpt lat="47.391618" lon="10.187417">
<ele>1201.6</ele>
<time>2014-05-01T08:30:19Z</time>
<speed>2.4</speed>
</trkpt>
<trkpt lat="47.391654" lon="10.187602">
<ele>1203.0</ele>
<time>2014-05-01T08:30:24Z</time>
<speed>1.8</speed>
</trkpt>
<trkpt lat="47.391596" lon="10.187704">
<ele>1205.2</ele>
<time>2014-05-01T08:30:29Z</time>
<speed>1.6</speed>
</trkpt>
<trkpt lat="47.391590" lon="10.187806">
<ele>1205.6</ele>
<time>2014-05-01T08:30:34Z</time>
<speed>0.9</speed>
</trkpt>
<trkpt lat="47.391582" lon="10.187920">
<ele>1209.0</ele>
<time>2014-05-01T08:30:39Z</time>
<speed>1.4</speed>
</trkpt>
<trkpt lat="47.391536" lon="10.188050">
<ele>1208.6</ele>
<time>2014-05-01T08:30:44Z</time>
<speed>2.0</speed>
</trkpt>
<trkpt lat="47.391480" lon="10.188232">
<ele>1207.6</ele>
<time>2014-05-01T08:30:49Z</time>
<speed>2.7</speed>
</trkpt>
<trkpt lat="47.391493" lon="10.188433">
<ele>1210.2</ele>
<time>2014-05-01T08:30:54Z</time>
<speed>2.9</speed>
</trkpt>
<trkpt lat="47.391516" lon="10.188634">
<ele>1209.2</ele>
<time>2014-05-01T08:30:59Z</time>
<speed>3.0</speed>
</trkpt>
<trkpt lat="47.391536" lon="10.188831">
<ele>1212.6</ele>
<time>2014-05-01T08:31:04Z</time>
<speed>3.1</speed>
</trkpt>
<trkpt lat="47.391556" lon="10.189040">
<ele>1212.6</ele>
<time>2014-05-01T08:31:09Z</time>
<speed>3.3</speed>
</trkpt>
<trkpt lat="47.391524" lon="10.189273">
<ele>1210.6</ele>
<time>2014-05-01T08:31:14Z</time>
<speed>3.6</speed>
</trkpt>
<trkpt lat="47.391506" lon="10.189516">
<ele>1212.6</ele>
<time>2014-05-01T08:31:19Z</time>
<speed>3.5</speed>
</trkpt>
<trkpt lat="47.391523" lon="10.189716">
<ele>1214.4</ele>
<time>2014-05-01T08:31:24Z</time>
<speed>2.8</speed>
</trkpt>
<trkpt lat="47.391551" lon="10.189909">
<ele>1214.0</ele>
<time>2014-05-01T08:31:29Z</time>
<speed>2.9</speed>
</trkpt>
<trkpt lat="47.391550" lon="10.190098">
<ele>1213.0</ele>
<time>2014-05-01T08:31:34Z</time>
<speed>3.8</speed>
</trkpt>
<trkpt lat="47.391497" lon="10.190409">
<ele>1210.8</ele>
<time>2014-05-01T08:31:39Z</time>
<speed>6.0</speed>
</trkpt>
<trkpt lat="47.391509" lon="10.190779">
<ele>1209.4</ele>
<time>2014-05-01T08:31:44Z</time>
<speed>5.4</speed>
</trkpt>
<trkpt lat="47.391557" lon="10.191161">
<ele>1207.2</ele>
<time>2014-05-01T08:31:49Z</time>
<speed>5.6</speed>
</trkpt>
<trkpt lat="47.391635" lon="10.191504">
<ele>1204.4</ele>
<time>2014-05-01T08:31:54Z</time>
<speed>6.1</speed>
</trkpt>
<trkpt lat="47.391827" lon="10.191849">
<ele>1200.2</ele>
<time>2014-05-01T08:31:59Z</time>
<speed>6.1</speed>
</trkpt>
<trkpt lat="47.391941" lon="10.192190">
<ele>1197.0</ele>
<time>2014-05-01T08:32:04Z</time>
<speed>4.1</speed>
</trkpt>
<trkpt lat="47.391895" lon="10.192452">
<ele>1194.4</ele>
<time>2014-05-01T08:32:09Z</time>
<speed>3.8</speed>
</trkpt>
<trkpt lat="47.391767" lon="10.192728">
<ele>1193.6</ele>
<time>2014-05-01T08:32:14Z</time>
<speed>4.5</speed>
</trkpt>
<trkpt lat="47.391747" lon="10.193008">
<ele>1192.2</ele>
<time>2014-05-01T08:32:19Z</time>
<speed>4.3</speed>
</trkpt>
<trkpt lat="47.391757" lon="10.193264">
<ele>1187.8</ele>
<time>2014-05-01T08:32:24Z</time>
<speed>4.7</speed>
</trkpt>
<trkpt lat="47.391786" lon="10.193577">
<ele>1181.8</ele>
<time>2014-05-01T08:32:29Z</time>
<speed>4.7</speed>
</trkpt>
<trkpt lat="47.391878" lon="10.193867">
<ele>1179.6</ele>
<time>2014-05-01T08:32:34Z</time>
<speed>5.1</speed>
</trkpt>
<trkpt lat="47.391955" lon="10.194299">
<ele>1178.8</ele>
<time>2014-05-01T08:32:39Z</time>
<speed>8.1</speed>
</trkpt>
<trkpt lat="47.392050" lon="10.194853">
<ele>1176.0</ele>
<time>2014-05-01T08:32:44Z</time>
<speed>8.2</speed>
</trkpt>
<trkpt lat="47.392141" lon="10.195220">
<ele>1171.8</ele>
<time>2014-05-01T08:32:49Z</time>
<speed>5.3</speed>
</trkpt>
<trkpt lat="47.392181" lon="10.195631">
<ele>1168.2</ele>
<time>2014-05-01T08:32:54Z</time>
<speed>5.7</speed>
</trkpt>
<trkpt lat="47.392147" lon="10.196011">
<ele>1167.2</ele>
<time>2014-05-01T08:32:59Z</time>
<speed>5.4</speed>
</trkpt>
<trkpt lat="47.392246" lon="10.196314">
<ele>1163.0</ele>
<time>2014-05-01T08:33:04Z</time>
<speed>5.3</speed>
</trkpt>
<trkpt lat="47.392312" lon="10.196617">
<ele>1159.8</ele>
<time>2014-05-01T08:33:09Z</time>
<speed>5.1</speed>
</trkpt>
<trkpt lat="47.392411" lon="10.196951">
<ele>1154.0</ele>
<time>2014-05-01T08:33:14Z</time>
<speed>5.7</speed>
</trkpt>
<trkpt lat="47.392610" lon="10.197229">
<ele>1151.6</ele>
<time>2014-05-01T08:33:19Z</time>
<speed>6.1</speed>
</trkpt>
<trkpt lat="47.392794" lon="10.197613">
<ele>1151.4</ele>
<time>2014-05-01T08:33:24Z</time>
<speed>6.4</speed>
</trkpt>
<trkpt lat="47.392943" lon="10.197958">
<ele>1151.2</ele>
<time>2014-05-01T08:33:29Z</time>
<speed>4.5</speed>
</trkpt>
<trkpt lat="47.393072" lon="10.198240">
<ele>1150.4</ele>
<time>2014-05-01T08:33:34Z</time>
<speed>3.8</speed>
</trkpt>
<trkpt lat="47.393253" lon="10.198470">
<ele>1154.2</ele>
<time>2014-05-01T08:33:39Z</time>
<speed>4.2</speed>
</trkpt>
<trkpt lat="47.393372" lon="10.198721">
<ele>1152.2</ele>
<time>2014-05-01T08:33:44Z</time>
<speed>3.6</speed>
</trkpt>
<trkpt lat="47.393463" lon="10.198890">
<ele>1153.0</ele>
<time>2014-05-01T08:33:49Z</time>
<speed>2.4</speed>
</trkpt>
<trkpt lat="47.393573" lon="10.199012">
<ele>1153.4</ele>
<time>2014-05-01T08:33:54Z</time>
<speed>2.7</speed>
</trkpt>
<trkpt lat="47.393663" lon="10.199142">
<ele>1157.2</ele>
<time>2014-05-01T08:33:59Z</time>
<speed>1.8</speed>
</trkpt>
<trkpt lat="47.393756" lon="10.199234">
<ele>1157.4</ele>
<time>2014-05-01T08:34:04Z</time>
<speed>2.2</speed>
</trkpt>
<trkpt lat="47.393838" lon="10.199315">
<ele>1156.0</ele>
<time>2014-05-01T08:34:09Z</time>
<speed>2.1</speed>
</trkpt>
<trkpt lat="47.393897" lon="10.199409">
<ele>1157.2</ele>
<time>2014-05-01T08:34:14Z</time>
<speed>2.3</speed>
</trkpt>
<trkpt lat="47.393968" lon="10.199503">
<ele>1159.2</ele>
<time>2014-05-01T08:34:19Z</time>
<speed>2.2</speed>
</trkpt>
<trkpt lat="47.394035" lon="10.199593">
<ele>1157.6</ele>
<time>2014-05-01T08:34:24Z</time>
<speed>2.2</speed>
</trkpt>
<trkpt lat="47.394113" lon="10.199692">
<ele>1158.4</ele>
<time>2014-05-01T08:34:29Z</time>
<speed>2.2</speed>
</trkpt>
<trkpt lat="47.394197" lon="10.199791">
<ele>1160.0</ele>
<time>2014-05-01T08:34:34Z</time>
<speed>2.2</speed>
</trkpt>
<trkpt lat="47.394260" lon="10.199896">
<ele>1161.8</ele>
<time>2014-05-01T08:34:39Z</time>
<speed>2.1</speed>
</trkpt>
<trkpt lat="47.394328" lon="10.199987">
<ele>1157.8</ele>
<time>2014-05-01T08:34:44Z</time>
<speed>2.1</speed>
</trkpt>
<trkpt lat="47.394436" lon="10.200013">
<ele>1160.2</ele>
<time>2014-05-01T08:34:49Z</time>
<speed>2.6</speed>
</trkpt>
<trkpt lat="47.394534" lon="10.200076">
<ele>1161.2</ele>
<time>2014-05-01T08:34:54Z</time>
<speed>2.9</speed>
</trkpt>
<trkpt lat="47.394662" lon="10.200167">
<ele>1163.8</ele>
<time>2014-05-01T08:34:59Z</time>
<speed>1.8</speed>
</trkpt>
<trkpt lat="47.394819" lon="10.200291">
<ele>1162.8</ele>
<time>2014-05-01T08:35:04Z</time>
<speed>3.7</speed>
</trkpt>
<trkpt lat="47.394949" lon="10.200414">
<ele>1164.2</ele>
<time>2014-05-01T08:35:09Z</time>
<speed>3.9</speed>
</trkpt>
<trkpt lat="47.395098" lon="10.200566">
<ele>1163.8</ele>
<time>2014-05-01T08:35:14Z</time>
<speed>4.0</speed>
</trkpt>
<trkpt lat="47.395250" lon="10.200706">
<ele>1166.2</ele>
<time>2014-05-01T08:35:19Z</time>
<speed>4.0</speed>
</trkpt>
<trkpt lat="47.395412" lon="10.200819">
<ele>1165.2</ele>
<time>2014-05-01T08:35:24Z</time>
<speed>3.8</speed>
</trkpt>
<trkpt lat="47.395581" lon="10.200878">
<ele>1165.8</ele>
<time>2014-05-01T08:35:29Z</time>
<speed>3.5</speed>
</trkpt>
<trkpt lat="47.395783" lon="10.200920">
<ele>1167.4</ele>
<time>2014-05-01T08:35:35Z</time>
<speed>3.6</speed>
</trkpt>
<trkpt lat="47.395947" lon="10.200915">
<ele>1168.8</ele>
<time>2014-05-01T08:35:40Z</time>
<speed>3.7</speed>
</trkpt>
<trkpt lat="47.396120" lon="10.200902">
<ele>1170.2</ele>
<time>2014-05-01T08:35:45Z</time>
<speed>3.9</speed>
</trkpt>
<trkpt lat="47.396321" lon="10.200852">
<ele>1170.6</ele>
<time>2014-05-01T08:35:50Z</time>
<speed>4.6</speed>
</trkpt>
<trkpt lat="47.396530" lon="10.200822">
<ele>1173.2</ele>
<time>2014-05-01T08:35:55Z</time>
<speed>4.4</speed>
</trkpt>
<trkpt lat="47.396754" lon="10.200785">
<ele>1172.0</ele>
<time>2014-05-01T08:36:00Z</time>
<speed>4.8</speed>
</trkpt>
<trkpt lat="47.396985" lon="10.200772">
<ele>1172.8</ele>
<time>2014-05-01T08:36:05Z</time>
<speed>5.2</speed>
</trkpt>
<trkpt lat="47.397253" lon="10.200829">
<ele>1170.0</ele>
<time>2014-05-01T08:36:10Z</time>
<speed>6.0</speed>
</trkpt>
<trkpt lat="47.397524" lon="10.200936">
<ele>1169.8</ele>
<time>2014-05-01T08:36:15Z</time>
<speed>6.1</speed>
</trkpt>
<trkpt lat="47.397802" lon="10.201067">
<ele>1172.2</ele>
<time>2014-05-01T08:36:20Z</time>
<speed>6.3</speed>
</trkpt>
<trkpt lat="47.398062" lon="10.201219">
<ele>1172.2</ele>
<time>2014-05-01T08:36:25Z</time>
<speed>6.2</speed>
</trkpt>
<trkpt lat="47.398339" lon="10.201375">
<ele>1170.0</ele>
<time>2014-05-01T08:36:30Z</time>
<speed>6.6</speed>
</trkpt>
<trkpt lat="47.398622" lon="10.201501">
<ele>1171.0</ele>
<time>2014-05-01T08:36:35Z</time>
<speed>6.3</speed>
</trkpt>
<trkpt lat="47.398902" lon="10.201627">
<ele>1170.4</ele>
<time>2014-05-01T08:36:40Z</time>
<speed>6.5</speed>
</trkpt>
<trkpt lat="47.399199" lon="10.201656">
<ele>1171.0</ele>
<time>2014-05-01T08:36:45Z</time>
<speed>6.1</speed>
</trkpt>
<trkpt lat="47.399486" lon="10.201578">
<ele>1171.0</ele>
<time>2014-05-01T08:36:50Z</time>
<speed>6.0</speed>
</trkpt>
<trkpt lat="47.399773" lon="10.201487">
<ele>1170.0</ele>
<time>2014-05-01T08:36:55Z</time>
<speed>5.6</speed>
</trkpt>
<trkpt lat="47.400042" lon="10.201419">
<ele>1168.6</ele>
<time>2014-05-01T08:37:00Z</time>
<speed>6.3</speed>
</trkpt>
<trkpt lat="47.400344" lon="10.201442">
<ele>1168.4</ele>
<time>2014-05-01T08:37:05Z</time>
<speed>6.8</speed>
</trkpt>
<trkpt lat="47.400639" lon="10.201511">
<ele>1166.4</ele>
<time>2014-05-01T08:37:10Z</time>
<speed>7.4</speed>
</trkpt>
<trkpt lat="47.401008" lon="10.201592">
<ele>1165.6</ele>
<time>2014-05-01T08:37:15Z</time>
<speed>9.3</speed>
</trkpt>
<trkpt lat="47.401316" lon="10.201800">
<ele>1162.0</ele>
<time>2014-05-01T08:37:20Z</time>
<speed>6.4</speed>
</trkpt>
<trkpt lat="47.401555" lon="10.202185">
<ele>1158.4</ele>
<time>2014-05-01T08:37:25Z</time>
<speed>8.5</speed>
</trkpt>
<trkpt lat="47.401790" lon="10.202805">
<ele>1152.2</ele>
<time>2014-05-01T08:37:30Z</time>
<speed>10.1</speed>
</trkpt>
<trkpt lat="47.401926" lon="10.203741">
<ele>1148.0</ele>
<time>2014-05-01T08:37:35Z</time>
<speed>13.7</speed>
</trkpt>
<trkpt lat="47.402006" lon="10.204466">
<ele>1147.2</ele>
<time>2014-05-01T08:37:40Z</time>
<speed>8.9</speed>
</trkpt>
<trkpt lat="47.402177" lon="10.205011">
<ele>1147.8</ele>
<time>2014-05-01T08:37:45Z</time>
<speed>8.4</speed>
</trkpt>
<trkpt lat="47.402301" lon="10.205406">
<ele>1144.8</ele>
<time>2014-05-01T08:37:50Z</time>
<speed>5.5</speed>
</trkpt>
<trkpt lat="47.402563" lon="10.205342">
<ele>1146.0</ele>
<time>2014-05-01T08:37:55Z</time>
<speed>4.8</speed>
</trkpt>
<trkpt lat="47.402670" lon="10.205276">
<ele>1145.4</ele>
<time>2014-05-01T08:38:00Z</time>
<speed>2.1</speed>
</trkpt>
<trkpt lat="47.402767" lon="10.205131">
<ele>1148.8</ele>
<time>2014-05-01T08:38:05Z</time>
<speed>2.3</speed>
</trkpt>
<trkpt lat="47.402873" lon="10.205034">
<ele>1148.0</ele>
<time>2014-05-01T08:38:10Z</time>
<speed>2.1</speed>
</trkpt>
<trkpt lat="47.402964" lon="10.204929">
<ele>1150.0</ele>
<time>2014-05-01T08:38:15Z</time>
<speed>2.5</speed>
</trkpt>
<trkpt lat="47.403063" lon="10.204806">
<ele>1149.8</ele>
<time>2014-05-01T08:38:20Z</time>
<speed>2.0</speed>
</trkpt>
<trkpt lat="47.403147" lon="10.204667">
<ele>1151.4</ele>
<time>2014-05-01T08:38:25Z</time>
<speed>2.1</speed>
</trkpt>
<trkpt lat="47.403212" lon="10.204520">
<ele>1151.0</ele>
<time>2014-05-01T08:38:30Z</time>
<speed>2.3</speed>
</trkpt>
<trkpt lat="47.403257" lon="10.204368">
<ele>1152.6</ele>
<time>2014-05-01T08:38:35Z</time>
<speed>2.4</speed>
</trkpt>
<trkpt lat="47.403299" lon="10.204211">
<ele>1151.8</ele>
<time>2014-05-01T08:38:40Z</time>
<speed>2.4</speed>
</trkpt>
<trkpt lat="47.403350" lon="10.204060">
<ele>1154.6</ele>
<time>2014-05-01T08:38:45Z</time>
<speed>2.5</speed>
</trkpt>
<trkpt lat="47.403411" lon="10.203893">
<ele>1155.8</ele>
<time>2014-05-01T08:38:50Z</time>
<speed>2.8</speed>
</trkpt>
<trkpt lat="47.403463" lon="10.203628">
<ele>1153.0</ele>
<time>2014-05-01T08:38:55Z</time>
<speed>5.1</speed>
</trkpt>
<trkpt lat="47.403543" lon="10.203160">
<ele>1148.6</ele>
<time>2014-05-01T08:39:00Z</time>
<speed>8.4</speed>
</trkpt>
<trkpt lat="47.403641" lon="10.202477">
<ele>1145.0</ele>
<time>2014-05-01T08:39:05Z</time>
<speed>10.2</speed>
</trkpt>
<trkpt lat="47.403726" lon="10.201866">
<ele>1145.8</ele>
<time>2014-05-01T08:39:10Z</time>
<speed>8.5</speed>
</trkpt>
<trkpt lat="47.403798" lon="10.201345">
<ele>1145.6</ele>
<time>2014-05-01T08:39:15Z</time>
<speed>7.8</speed>
</trkpt>
<trkpt lat="47.403864" lon="10.200844">
<ele>1145.4</ele>
<time>2014-05-01T08:39:20Z</time>
<speed>7.6</speed>
</trkpt>
<trkpt lat="47.403876" lon="10.200365">
<ele>1144.8</ele>
<time>2014-05-01T08:39:25Z</time>
<speed>7.0</speed>
</trkpt>
<trkpt lat="47.403871" lon="10.199886">
<ele>1146.8</ele>
<time>2014-05-01T08:39:30Z</time>
<speed>6.0</speed>
</trkpt>
<trkpt lat="47.403853" lon="10.199488">
<ele>1146.2</ele>
<time>2014-05-01T08:39:35Z</time>
<speed>5.3</speed>
</trkpt>
<trkpt lat="47.403826" lon="10.199180">
<ele>1148.0</ele>
<time>2014-05-01T08:39:40Z</time>
<speed>3.7</speed>
</trkpt>
<trkpt lat="47.403800" lon="10.198927">
<ele>1148.4</ele>
<time>2014-05-01T08:39:45Z</time>
<speed>3.4</speed>
</trkpt>
<trkpt lat="47.403778" lon="10.198707">
<ele>1150.8</ele>
<time>2014-05-01T08:39:50Z</time>
<speed>3.5</speed>
</trkpt>
<trkpt lat="47.403749" lon="10.198467">
<ele>1150.8</ele>
<time>2014-05-01T08:39:55Z</time>
<speed>3.4</speed>
</trkpt>
<trkpt lat="47.403713" lon="10.198224">
<ele>1155.2</ele>
<time>2014-05-01T08:40:00Z</time>
<speed>3.3</speed>
</trkpt>
<trkpt lat="47.403674" lon="10.197991">
<ele>1157.2</ele>
<time>2014-05-01T08:40:05Z</time>
<speed>3.5</speed>
</trkpt>
<trkpt lat="47.403640" lon="10.197754">
<ele>1158.2</ele>
<time>2014-05-01T08:40:10Z</time>
<speed>3.5</speed>
</trkpt>
<trkpt lat="47.403635" lon="10.197568">
<ele>1159.4</ele>
<time>2014-05-01T08:40:15Z</time>
<speed>2.8</speed>
</trkpt>
<trkpt lat="47.403617" lon="10.197358">
<ele>1161.2</ele>
<time>2014-05-01T08:40:20Z</time>
<speed>3.0</speed>
</trkpt>
<trkpt lat="47.403581" lon="10.197158">
<ele>1160.2</ele>
<time>2014-05-01T08:40:25Z</time>
<speed>3.1</speed>
</trkpt>
<trkpt lat="47.403551" lon="10.196958">
<ele>1163.0</ele>
<time>2014-05-01T08:40:30Z</time>
<speed>2.8</speed>
</trkpt>
<trkpt lat="47.403542" lon="10.196775">
<ele>1163.0</ele>
<time>2014-05-01T08:40:35Z</time>
<speed>2.9</speed>
</trkpt>
<trkpt lat="47.403518" lon="10.196573">
<ele>1163.0</ele>
<time>2014-05-01T08:40:40Z</time>
<speed>3.0</speed>
</trkpt>
<trkpt lat="47.403513" lon="10.196375">
<ele>1167.0</ele>
<time>2014-05-01T08:40:45Z</time>
<speed>2.6</speed>
</trkpt>
<trkpt lat="47.403534" lon="10.196211">
<ele>1164.6</ele>
<time>2014-05-01T08:40:50Z</time>
<speed>2.3</speed>
</trkpt>
<trkpt lat="47.403537" lon="10.196055">
<ele>1170.0</ele>
<time>2014-05-01T08:40:55Z</time>
<speed>2.0</speed>
</trkpt>
<trkpt lat="47.403548" lon="10.195905">
<ele>1170.2</ele>
<time>2014-05-01T08:41:00Z</time>
<speed>2.1</speed>
</trkpt>
<trkpt lat="47.403543" lon="10.195771">
<ele>1171.2</ele>
<time>2014-05-01T08:41:05Z</time>
<speed>1.9</speed>
</trkpt>
<trkpt lat="47.403551" lon="10.195639">
<ele>1178.2</ele>
<time>2014-05-01T08:41:10Z</time>
<speed>1.8</speed>
</trkpt>
<trkpt lat="47.403565" lon="10.195512">
<ele>1180.6</ele>
<time>2014-05-01T08:41:15Z</time>
<speed>2.1</speed>
</trkpt>
<trkpt lat="47.403573" lon="10.195377">
<ele>1182.4</ele>
<time>2014-05-01T08:41:20Z</time>
<speed>2.1</speed>
</trkpt>
<trkpt lat="47.403586" lon="10.195239">
<ele>1184.4</ele>
<time>2014-05-01T08:41:25Z</time>
<speed>2.0</speed>
</trkpt>
<trkpt lat="47.403596" lon="10.195113">
<ele>1187.6</ele>
<time>2014-05-01T08:41:30Z</time>
<speed>2.0</speed>
</trkpt>
<trkpt lat="47.403609" lon="10.194960">
<ele>1186.0</ele>
<time>2014-05-01T08:41:35Z</time>
<speed>2.1</speed>
</trkpt>
<trkpt lat="47.403616" lon="10.194819">
<ele>1188.6</ele>
<time>2014-05-01T08:41:40Z</time>
<speed>2.1</speed>
</trkpt>
<trkpt lat="47.403615" lon="10.194676">
<ele>1191.8</ele>
<time>2014-05-01T08:41:45Z</time>
<speed>2.3</speed>
</trkpt>
<trkpt lat="47.403616" lon="10.194534">
<ele>1189.8</ele>
<time>2014-05-01T08:41:50Z</time>
<speed>2.1</speed>
</trkpt>
<trkpt lat="47.403642" lon="10.194394">
<ele>1190.6</ele>
<time>2014-05-01T08:41:55Z</time>
<speed>2.1</speed>
</trkpt>
<trkpt lat="47.403676" lon="10.194261">
<ele>1192.8</ele>
<time>2014-05-01T08:42:00Z</time>
<speed>2.0</speed>
</trkpt>
<trkpt lat="47.403710" lon="10.194125">
<ele>1194.4</ele>
<time>2014-05-01T08:42:05Z</time>
<speed>2.0</speed>
</trkpt>
<trkpt lat="47.403744" lon="10.193990">
<ele>1194.4</ele>
<time>2014-05-01T08:42:10Z</time>
<speed>1.8</speed>
</trkpt>
<trkpt lat="47.403784" lon="10.193849">
<ele>1194.6</ele>
<time>2014-05-01T08:42:15Z</time>
<speed>2.1</speed>
</trkpt>
<trkpt lat="47.403821" lon="10.193711">
<ele>1194.8</ele>
<time>2014-05-01T08:42:20Z</time>
<speed>1.9</speed>
</trkpt>
<trkpt lat="47.403864" lon="10.193579">
<ele>1197.2</ele>
<time>2014-05-01T08:42:25Z</time>
<speed>1.8</speed>
</trkpt>
<trkpt lat="47.403909" lon="10.193444">
<ele>1196.8</ele>
<time>2014-05-01T08:42:30Z</time>
<speed>2.4</speed>
</trkpt>
<trkpt lat="47.403974" lon="10.193311">
<ele>1197.4</ele>
<time>2014-05-01T08:42:35Z</time>
<speed>2.5</speed>
</trkpt>
<trkpt lat="47.404006" lon="10.193141">
<ele>1193.4</ele>
<time>2014-05-01T08:42:40Z</time>
<speed>2.5</speed>
</trkpt>
<trkpt lat="47.404044" lon="10.192954">
<ele>1193.8</ele>
<time>2014-05-01T08:42:45Z</time>
<speed>2.9</speed>
</trkpt>
<trkpt lat="47.404081" lon="10.192715">
<ele>1194.0</ele>
<time>2014-05-01T08:42:50Z</time>
<speed>4.0</speed>
</trkpt>
<trkpt lat="47.404118" lon="10.192446">
<ele>1192.2</ele>
<time>2014-05-01T08:42:55Z</time>
<speed>4.1</speed>
</trkpt>
<trkpt lat="47.404115" lon="10.192161">
<ele>1193.0</ele>
<time>2014-05-01T08:43:00Z</time>
<speed>4.4</speed>
</trkpt>
<trkpt lat="47.404114" lon="10.191841">
<ele>1192.4</ele>
<time>2014-05-01T08:43:05Z</time>
<speed>4.2</speed>
</trkpt>
<trkpt lat="47.404108" lon="10.191567">
<ele>1192.8</ele>
<time>2014-05-01T08:43:10Z</time>
<speed>3.5</speed>
</trkpt>
<trkpt lat="47.404063" lon="10.191326">
<ele>1195.0</ele>
<time>2014-05-01T08:43:15Z</time>
<speed>3.1</speed>
</trkpt>
<trkpt lat="47.404018" lon="10.191097">
<ele>1197.0</ele>
<time>2014-05-01T08:43:20Z</time>
<speed>3.5</speed>
</trkpt>
<trkpt lat="47.403966" lon="10.190852">
<ele>1197.8</ele>
<time>2014-05-01T08:43:25Z</time>
<speed>3.4</speed>
</trkpt>
<trkpt lat="47.403895" lon="10.190621">
<ele>1197.2</ele>
<time>2014-05-01T08:43:30Z</time>
<speed>3.7</speed>
</trkpt>
<trkpt lat="47.403822" lon="10.190377">
<ele>1201.0</ele>
<time>2014-05-01T08:43:35Z</time>
<speed>3.8</speed>
</trkpt>
<trkpt lat="47.403762" lon="10.190156">
<ele>1197.8</ele>
<time>2014-05-01T08:43:40Z</time>
<speed>3.4</speed>
</trkpt>
<trkpt lat="47.403717" lon="10.189870">
<ele>1200.6</ele>
<time>2014-05-01T08:43:45Z</time>
<speed>4.3</speed>
</trkpt>
<trkpt lat="47.403683" lon="10.189585">
<ele>1201.6</ele>
<time>2014-05-01T08:43:50Z</time>
<speed>3.6</speed>
</trkpt>
<trkpt lat="47.403712" lon="10.189245">
<ele>1200.2</ele>
<time>2014-05-01T08:43:55Z</time>
<speed>5.5</speed>
</trkpt>
<trkpt lat="47.403792" lon="10.188822">
<ele>1197.6</ele>
<time>2014-05-01T08:44:00Z</time>
<speed>7.5</speed>
</trkpt>
<trkpt lat="47.403910" lon="10.188275">
<ele>1195.4</ele>
<time>2014-05-01T08:44:05Z</time>
<speed>9.2</speed>
</trkpt>
<trkpt lat="47.404000" lon="10.187641">
<ele>1191.6</ele>
<time>2014-05-01T08:44:10Z</time>
<speed>10.2</speed>
</trkpt>
<trkpt lat="47.404033" lon="10.186906">
<ele>1192.2</ele>
<time>2014-05-01T08:44:15Z</time>
<speed>11.6</speed>
</trkpt>
<trkpt lat="47.404172" lon="10.186089">
<ele>1185.8</ele>
<time>2014-05-01T08:44:20Z</time>
<speed>13.3</speed>
</trkpt>
<trkpt lat="47.404328" lon="10.185167">
<ele>1176.6</ele>
<time>2014-05-01T08:44:25Z</time>
<speed>14.9</speed>
</trkpt>
<trkpt lat="47.404419" lon="10.184219">
<ele>1172.2</ele>
<time>2014-05-01T08:44:30Z</time>
<speed>14.1</speed>
</trkpt>
<trkpt lat="47.404472" lon="10.183381">
<ele>1170.0</ele>
<time>2014-05-01T08:44:35Z</time>
<speed>11.4</speed>
</trkpt>
<trkpt lat="47.404464" lon="10.182675">
<ele>1171.2</ele>
<time>2014-05-01T08:44:40Z</time>
<speed>10.6</speed>
</trkpt>
<trkpt lat="47.404440" lon="10.181943">
<ele>1166.0</ele>
<time>2014-05-01T08:44:45Z</time>
<speed>11.0</speed>
</trkpt>
<trkpt lat="47.404365" lon="10.181230">
<ele>1163.6</ele>
<time>2014-05-01T08:44:50Z</time>
<speed>10.8</speed>
</trkpt>
<trkpt lat="47.404277" lon="10.180530">
<ele>1163.2</ele>
<time>2014-05-01T08:44:55Z</time>
<speed>10.1</speed>
</trkpt>
<trkpt lat="47.404194" lon="10.179955">
<ele>1161.4</ele>
<time>2014-05-01T08:45:00Z</time>
<speed>8.5</speed>
</trkpt>
<trkpt lat="47.404124" lon="10.179354">
<ele>1160.4</ele>
<time>2014-05-01T08:45:05Z</time>
<speed>9.1</speed>
</trkpt>
<trkpt lat="47.404053" lon="10.178753">
<ele>1158.6</ele>
<time>2014-05-01T08:45:10Z</time>
<speed>8.9</speed>
</trkpt>
<trkpt lat="47.404018" lon="10.178143">
<ele>1159.2</ele>
<time>2014-05-01T08:45:15Z</time>
<speed>9.0</speed>
</trkpt>
<trkpt lat="47.403989" lon="10.177551">
<ele>1157.4</ele>
<time>2014-05-01T08:45:20Z</time>
<speed>8.5</speed>
</trkpt>
<trkpt lat="47.404036" lon="10.176892">
<ele>1154.4</ele>
<time>2014-05-01T08:45:25Z</time>
<speed>11.9</speed>
</trkpt>
<trkpt lat="47.404014" lon="10.175968">
<ele>1147.4</ele>
<time>2014-05-01T08:45:30Z</time>
<speed>15.4</speed>
</trkpt>
<trkpt lat="47.403953" lon="10.174950">
<ele>1139.8</ele>
<time>2014-05-01T08:45:35Z</time>
<speed>14.2</speed>
</trkpt>
<trkpt lat="47.403955" lon="10.174161">
<ele>1137.2</ele>
<time>2014-05-01T08:45:40Z</time>
<speed>10.9</speed>
</trkpt>
<trkpt lat="47.404033" lon="10.173506">
<ele>1135.8</ele>
<time>2014-05-01T08:45:45Z</time>
<speed>11.6</speed>
</trkpt>
<trkpt lat="47.404159" lon="10.172821">
<ele>1130.4</ele>
<time>2014-05-01T08:45:50Z</time>
<speed>9.7</speed>
</trkpt>
<trkpt lat="47.404270" lon="10.172399">
<ele>1125.8</ele>
<time>2014-05-01T08:45:55Z</time>
<speed>6.5</speed>
</trkpt>
<trkpt lat="47.404371" lon="10.171931">
<ele>1122.0</ele>
<time>2014-05-01T08:46:00Z</time>
<speed>6.5</speed>
</trkpt>
<trkpt lat="47.404427" lon="10.171530">
<ele>1117.2</ele>
<time>2014-05-01T08:46:05Z</time>
<speed>6.3</speed>
</trkpt>
<trkpt lat="47.404459" lon="10.171101">
<ele>1111.4</ele>
<time>2014-05-01T08:46:10Z</time>
<speed>6.5</speed>
</trkpt>
<trkpt lat="47.404473" lon="10.170668">
<ele>1106.4</ele>
<time>2014-05-01T08:46:15Z</time>
<speed>6.7</speed>
</trkpt>
<trkpt lat="47.404485" lon="10.170218">
<ele>1106.0</ele>
<time>2014-05-01T08:46:20Z</time>
<speed>6.5</speed>
</trkpt>
<trkpt lat="47.404501" lon="10.169745">
<ele>1104.2</ele>
<time>2014-05-01T08:46:25Z</time>
<speed>6.9</speed>
</trkpt>
<trkpt lat="47.404521" lon="10.169269">
<ele>1100.4</ele>
<time>2014-05-01T08:46:30Z</time>
<speed>7.2</speed>
</trkpt>
<trkpt lat="47.404499" lon="10.168684">
<ele>1096.4</ele>
<time>2014-05-01T08:46:35Z</time>
<speed>9.4</speed>
</trkpt>
<trkpt lat="47.404496" lon="10.168038">
<ele>1089.6</ele>
<time>2014-05-01T08:46:40Z</time>
<speed>9.6</speed>
</trkpt>
<trkpt lat="47.404484" lon="10.167400">
<ele>1088.0</ele>
<time>2014-05-01T08:46:45Z</time>
<speed>9.8</speed>
</trkpt>
<trkpt lat="47.404499" lon="10.166745">
<ele>1086.8</ele>
<time>2014-05-01T08:46:50Z</time>
<speed>9.9</speed>
</trkpt>
<trkpt lat="47.404584" lon="10.166126">
<ele>1083.4</ele>
<time>2014-05-01T08:46:55Z</time>
<speed>8.6</speed>
</trkpt>
<trkpt lat="47.404679" lon="10.165587">
<ele>1079.6</ele>
<time>2014-05-01T08:47:00Z</time>
<speed>8.0</speed>
</trkpt>
<trkpt lat="47.404780" lon="10.165063">
<ele>1079.0</ele>
<time>2014-05-01T08:47:05Z</time>
<speed>7.4</speed>
</trkpt>
<trkpt lat="47.404919" lon="10.164706">
<ele>1074.8</ele>
<time>2014-05-01T08:47:10Z</time>
<speed>5.6</speed>
</trkpt>
<trkpt lat="47.405083" lon="10.164546">
<ele>1072.0</ele>
<time>2014-05-01T08:47:15Z</time>
<speed>2.5</speed>
</trkpt>
<trkpt lat="47.405099" lon="10.164516">
<ele>1069.4</ele>
<time>2014-05-01T08:47:25Z</time>
<speed>0.4</speed>
</trkpt>
<trkpt lat="47.405077" lon="10.164518">
<ele>1068.0</ele>
<time>2014-05-01T08:47:44Z</time>
<speed>0.3</speed>
</trkpt>
<trkpt lat="47.405119" lon="10.164539">
<ele>1068.6</ele>
<time>2014-05-01T08:47:49Z</time>
<speed>1.4</speed>
</trkpt>
<trkpt lat="47.405218" lon="10.164648">
<ele>1068.4</ele>
<time>2014-05-01T08:47:54Z</time>
<speed>3.3</speed>
</trkpt>
<trkpt lat="47.405332" lon="10.164901">
<ele>1065.8</ele>
<time>2014-05-01T08:47:59Z</time>
<speed>5.0</speed>
</trkpt>
<trkpt lat="47.405450" lon="10.165161">
<ele>1066.2</ele>
<time>2014-05-01T08:48:04Z</time>
<speed>4.3</speed>
</trkpt>
<trkpt lat="47.405549" lon="10.165396">
<ele>1065.0</ele>
<time>2014-05-01T08:48:09Z</time>
<speed>4.3</speed>
</trkpt>
<trkpt lat="47.405662" lon="10.165673">
<ele>1064.2</ele>
<time>2014-05-01T08:48:14Z</time>
<speed>5.4</speed>
</trkpt>
<trkpt lat="47.405804" lon="10.166000">
<ele>1064.6</ele>
<time>2014-05-01T08:48:19Z</time>
<speed>6.0</speed>
</trkpt>
<trkpt lat="47.405930" lon="10.166336">
<ele>1066.6</ele>
<time>2014-05-01T08:48:24Z</time>
<speed>5.3</speed>
</trkpt>
<trkpt lat="47.406053" lon="10.166628">
<ele>1064.8</ele>
<time>2014-05-01T08:48:29Z</time>
<speed>5.1</speed>
</trkpt>
<trkpt lat="47.406167" lon="10.166923">
<ele>1069.4</ele>
<time>2014-05-01T08:48:34Z</time>
<speed>4.8</speed>
</trkpt>
<trkpt lat="47.406347" lon="10.166986">
<ele>1071.4</ele>
<time>2014-05-01T08:48:39Z</time>
<speed>4.4</speed>
</trkpt>
<trkpt lat="47.406524" lon="10.166903">
<ele>1069.0</ele>
<time>2014-05-01T08:48:44Z</time>
<speed>4.0</speed>
</trkpt>
<trkpt lat="47.406698" lon="10.166963">
<ele>1071.6</ele>
<time>2014-05-01T08:48:49Z</time>
<speed>4.2</speed>
</trkpt>
<trkpt lat="47.406866" lon="10.167091">
<ele>1071.2</ele>
<time>2014-05-01T08:48:54Z</time>
<speed>4.3</speed>
</trkpt>
<trkpt lat="47.407042" lon="10.167225">
<ele>1070.4</ele>
<time>2014-05-01T08:48:59Z</time>
<speed>4.3</speed>
</trkpt>
<trkpt lat="47.407192" lon="10.167310">
<ele>1072.0</ele>
<time>2014-05-01T08:49:04Z</time>
<speed>2.6</speed>
</trkpt>
<trkpt lat="47.407318" lon="10.167352">
<ele>1071.0</ele>
<time>2014-05-01T08:49:09Z</time>
<speed>2.9</speed>
</trkpt>
<trkpt lat="47.407432" lon="10.167312">
<ele>1072.6</ele>
<time>2014-05-01T08:49:14Z</time>
<speed>2.5</speed>
</trkpt>
<trkpt lat="47.407515" lon="10.167253">
<ele>1073.4</ele>
<time>2014-05-01T08:49:19Z</time>
<speed>1.7</speed>
</trkpt>
<trkpt lat="47.407545" lon="10.167181">
<ele>1072.8</ele>
<time>2014-05-01T08:50:25Z</time>
<speed>0.5</speed>
</trkpt>
<trkpt lat="47.407554" lon="10.167198">
<ele>1074.0</ele>
<time>2014-05-01T08:50:33Z</time>
<speed>0.6</speed>
</trkpt>
<trkpt lat="47.407565" lon="10.167322">
<ele>1073.4</ele>
<time>2014-05-01T08:50:38Z</time>
<speed>3.0</speed>
</trkpt>
<trkpt lat="47.407581" lon="10.167568">
<ele>1073.4</ele>
<time>2014-05-01T08:50:43Z</time>
<speed>4.4</speed>
</trkpt>
<trkpt lat="47.407540" lon="10.167938">
<ele>1070.4</ele>
<time>2014-05-01T08:50:48Z</time>
<speed>5.9</speed>
</trkpt>
<trkpt lat="47.407413" lon="10.168383">
<ele>1071.2</ele>
<time>2014-05-01T08:50:53Z</time>
<speed>7.4</speed>
</trkpt>
<trkpt lat="47.407257" lon="10.168875">
<ele>1071.2</ele>
<time>2014-05-01T08:50:58Z</time>
<speed>8.3</speed>
</trkpt>
<trkpt lat="47.407136" lon="10.169432">
<ele>1068.2</ele>
<time>2014-05-01T08:51:03Z</time>
<speed>9.0</speed>
</trkpt>
<trkpt lat="47.407098" lon="10.170050">
<ele>1067.0</ele>
<time>2014-05-01T08:51:08Z</time>
<speed>9.5</speed>
</trkpt>
<trkpt lat="47.407045" lon="10.170691">
<ele>1064.8</ele>
<time>2014-05-01T08:51:13Z</time>
<speed>9.7</speed>
</trkpt>
<trkpt lat="47.406994" lon="10.171326">
<ele>1062.0</ele>
<time>2014-05-01T08:51:18Z</time>
<speed>9.6</speed>
</trkpt>
<trkpt lat="47.406922" lon="10.171959">
<ele>1060.8</ele>
<time>2014-05-01T08:51:23Z</time>
<speed>9.5</speed>
</trkpt>
<trkpt lat="47.406767" lon="10.172552">
<ele>1059.4</ele>
<time>2014-05-01T08:51:28Z</time>
<speed>9.7</speed>
</trkpt>
<trkpt lat="47.406585" lon="10.173156">
<ele>1058.4</ele>
<time>2014-05-01T08:51:33Z</time>
<speed>10.1</speed>
</trkpt>
<trkpt lat="47.406390" lon="10.173765">
<ele>1058.8</ele>
<time>2014-05-01T08:51:38Z</time>
<speed>9.6</speed>
</trkpt>
<trkpt lat="47.406285" lon="10.174322">
<ele>1056.8</ele>
<time>2014-05-01T08:51:43Z</time>
<speed>8.6</speed>
</trkpt>
<trkpt lat="47.406300" lon="10.174895">
<ele>1055.4</ele>
<time>2014-05-01T08:51:48Z</time>
<speed>8.1</speed>
</trkpt>
<trkpt lat="47.406349" lon="10.175415">
<ele>1059.0</ele>
<time>2014-05-01T08:51:53Z</time>
<speed>7.9</speed>
</trkpt>
<trkpt lat="47.406448" lon="10.175918">
<ele>1057.0</ele>
<time>2014-05-01T08:51:58Z</time>
<speed>7.6</speed>
</trkpt>
<trkpt lat="47.406499" lon="10.176422">
<ele>1056.6</ele>
<time>2014-05-01T08:52:03Z</time>
<speed>7.7</speed>
</trkpt>
<trkpt lat="47.406526" lon="10.176944">
<ele>1059.0</ele>
<time>2014-05-01T08:52:08Z</time>
<speed>8.0</speed>
</trkpt>
<trkpt lat="47.406572" lon="10.177491">
<ele>1060.4</ele>
<time>2014-05-01T08:52:13Z</time>
<speed>8.3</speed>
</trkpt>
<trkpt lat="47.406632" lon="10.178050">
<ele>1060.0</ele>
<time>2014-05-01T08:52:18Z</time>
<speed>8.8</speed>
</trkpt>
<trkpt lat="47.406707" lon="10.178646">
<ele>1059.8</ele>
<time>2014-05-01T08:52:23Z</time>
<speed>9.4</speed>
</trkpt>
<trkpt lat="47.406799" lon="10.179264">
<ele>1059.6</ele>
<time>2014-05-01T08:52:28Z</time>
<speed>9.5</speed>
</trkpt>
<trkpt lat="47.406938" lon="10.179834">
<ele>1057.0</ele>
<time>2014-05-01T08:52:33Z</time>
<speed>8.8</speed>
</trkpt>
<trkpt lat="47.407035" lon="10.180368">
<ele>1058.2</ele>
<time>2014-05-01T08:52:38Z</time>
<speed>8.1</speed>
</trkpt>
<trkpt lat="47.407104" lon="10.180893">
<ele>1057.8</ele>
<time>2014-05-01T08:52:43Z</time>
<speed>8.1</speed>
</trkpt>
<trkpt lat="47.407133" lon="10.181418">
<ele>1060.0</ele>
<time>2014-05-01T08:52:48Z</time>
<speed>8.0</speed>
</trkpt>
<trkpt lat="47.407145" lon="10.181970">
<ele>1058.6</ele>
<time>2014-05-01T08:52:53Z</time>
<speed>8.1</speed>
</trkpt>
<trkpt lat="47.407171" lon="10.182510">
<ele>1064.0</ele>
<time>2014-05-01T08:52:58Z</time>
<speed>8.1</speed>
</trkpt>
<trkpt lat="47.407175" lon="10.183057">
<ele>1061.6</ele>
<time>2014-05-01T08:53:03Z</time>
<speed>8.2</speed>
</trkpt>
<trkpt lat="47.407165" lon="10.183592">
<ele>1060.8</ele>
<time>2014-05-01T08:53:08Z</time>
<speed>7.9</speed>
</trkpt>
<trkpt lat="47.407129" lon="10.184156">
<ele>1064.0</ele>
<time>2014-05-01T08:53:13Z</time>
<speed>8.3</speed>
</trkpt>
<trkpt lat="47.407114" lon="10.184688">
<ele>1062.6</ele>
<time>2014-05-01T08:53:18Z</time>
<speed>7.8</speed>
</trkpt>
<trkpt lat="47.407099" lon="10.185226">
<ele>1062.8</ele>
<time>2014-05-01T08:53:23Z</time>
<speed>8.3</speed>
</trkpt>
<trkpt lat="47.407086" lon="10.185796">
<ele>1062.8</ele>
<time>2014-05-01T08:53:28Z</time>
<speed>8.8</speed>
</trkpt>
<trkpt lat="47.407072" lon="10.186385">
<ele>1059.4</ele>
<time>2014-05-01T08:53:33Z</time>
<speed>9.0</speed>
</trkpt>
<trkpt lat="47.407105" lon="10.187000">
<ele>1062.6</ele>
<time>2014-05-01T08:53:38Z</time>
<speed>9.2</speed>
</trkpt>
<trkpt lat="47.407170" lon="10.187623">
<ele>1061.2</ele>
<time>2014-05-01T08:53:43Z</time>
<speed>9.5</speed>
</trkpt>
<trkpt lat="47.407245" lon="10.188308">
<ele>1059.4</ele>
<time>2014-05-01T08:53:48Z</time>
<speed>11.2</speed>
</trkpt>
<trkpt lat="47.407319" lon="10.189044">
<ele>1055.2</ele>
<time>2014-05-01T08:53:53Z</time>
<speed>12.4</speed>
</trkpt>
<trkpt lat="47.407354" lon="10.189807">
<ele>1047.8</ele>
<time>2014-05-01T08:53:58Z</time>
<speed>10.9</speed>
</trkpt>
<trkpt lat="47.407378" lon="10.190542">
<ele>1042.8</ele>
<time>2014-05-01T08:54:03Z</time>
<speed>11.0</speed>
</trkpt>
<trkpt lat="47.407508" lon="10.191187">
<ele>1036.4</ele>
<time>2014-05-01T08:54:08Z</time>
<speed>10.7</speed>
</trkpt>
<trkpt lat="47.407728" lon="10.191807">
<ele>1029.4</ele>
<time>2014-05-01T08:54:13Z</time>
<speed>11.2</speed>
</trkpt>
<trkpt lat="47.407876" lon="10.192510">
<ele>1022.6</ele>
<time>2014-05-01T08:54:18Z</time>
<speed>11.2</speed>
</trkpt>
<trkpt lat="47.407805" lon="10.193240">
<ele>1015.8</ele>
<time>2014-05-01T08:54:23Z</time>
<speed>10.7</speed>
</trkpt>
<trkpt lat="47.407675" lon="10.193900">
<ele>1012.0</ele>
<time>2014-05-01T08:54:28Z</time>
<speed>10.2</speed>
</trkpt>
<trkpt lat="47.407763" lon="10.194530">
<ele>1011.4</ele>
<time>2014-05-01T08:54:33Z</time>
<speed>9.7</speed>
</trkpt>
<trkpt lat="47.407898" lon="10.195105">
<ele>1008.4</ele>
<time>2014-05-01T08:54:38Z</time>
<speed>9.3</speed>
</trkpt>
<trkpt lat="47.407944" lon="10.195741">
<ele>1004.6</ele>
<time>2014-05-01T08:54:43Z</time>
<speed>9.7</speed>
</trkpt>
<trkpt lat="47.407928" lon="10.196419">
<ele>1003.8</ele>
<time>2014-05-01T08:54:48Z</time>
<speed>9.9</speed>
</trkpt>
<trkpt lat="47.407895" lon="10.197104">
<ele>1000.8</ele>
<time>2014-05-01T08:54:53Z</time>
<speed>10.3</speed>
</trkpt>
<trkpt lat="47.407806" lon="10.197796">
<ele>999.6</ele>
<time>2014-05-01T08:54:58Z</time>
<speed>10.8</speed>
</trkpt>
<trkpt lat="47.407694" lon="10.198533">
<ele>1002.2</ele>
<time>2014-05-01T08:55:03Z</time>
<speed>9.9</speed>
</trkpt>
<trkpt lat="47.407832" lon="10.199274">
<ele>1000.6</ele>
<time>2014-05-01T08:55:08Z</time>
<speed>11.4</speed>
</trkpt>
<trkpt lat="47.407907" lon="10.199952">
<ele>1001.4</ele>
<time>2014-05-01T08:55:13Z</time>
<speed>10.1</speed>
</trkpt>
<trkpt lat="47.407850" lon="10.200689">
<ele>1000.0</ele>
<time>2014-05-01T08:55:18Z</time>
<speed>10.8</speed>
</trkpt>
<trkpt lat="47.407794" lon="10.201431">
<ele>1000.0</ele>
<time>2014-05-01T08:55:23Z</time>
<speed>10.2</speed>
</trkpt>
<trkpt lat="47.407604" lon="10.201973">
<ele>999.6</ele>
<time>2014-05-01T08:55:28Z</time>
<speed>9.5</speed>
</trkpt>
<trkpt lat="47.407467" lon="10.202531">
<ele>999.4</ele>
<time>2014-05-01T08:55:33Z</time>
<speed>10.9</speed>
</trkpt>
<trkpt lat="47.407422" lon="10.203384">
<ele>1001.0</ele>
<time>2014-05-01T08:55:38Z</time>
<speed>12.6</speed>
</trkpt>
<trkpt lat="47.407545" lon="10.204309">
<ele>997.0</ele>
<time>2014-05-01T08:55:43Z</time>
<speed>11.1</speed>
</trkpt>
<trkpt lat="47.407548" lon="10.205040">
<ele>994.2</ele>
<time>2014-05-01T08:55:48Z</time>
<speed>10.4</speed>
</trkpt>
<trkpt lat="47.407305" lon="10.205558">
<ele>989.8</ele>
<time>2014-05-01T08:55:53Z</time>
<speed>10.5</speed>
</trkpt>
<trkpt lat="47.407100" lon="10.206174">
<ele>982.6</ele>
<time>2014-05-01T08:55:58Z</time>
<speed>10.8</speed>
</trkpt>
<trkpt lat="47.407004" lon="10.206876">
<ele>983.0</ele>
<time>2014-05-01T08:56:03Z</time>
<speed>11.8</speed>
</trkpt>
<trkpt lat="47.407050" lon="10.207772">
<ele>977.4</ele>
<time>2014-05-01T08:56:08Z</time>
<speed>13.9</speed>
</trkpt>
<trkpt lat="47.406962" lon="10.208589">
<ele>975.6</ele>
<time>2014-05-01T08:56:13Z</time>
<speed>11.9</speed>
</trkpt>
<trkpt lat="47.406985" lon="10.209323">
<ele>972.6</ele>
<time>2014-05-01T08:56:18Z</time>
<speed>10.1</speed>
</trkpt>
<trkpt lat="47.407023" lon="10.209906">
<ele>974.8</ele>
<time>2014-05-01T08:56:23Z</time>
<speed>9.1</speed>
</trkpt>
<trkpt lat="47.406988" lon="10.210542">
<ele>967.8</ele>
<time>2014-05-01T08:56:28Z</time>
<speed>9.4</speed>
</trkpt>
<trkpt lat="47.406978" lon="10.211174">
<ele>965.2</ele>
<time>2014-05-01T08:56:33Z</time>
<speed>9.3</speed>
</trkpt>
<trkpt lat="47.406931" lon="10.211788">
<ele>962.4</ele>
<time>2014-05-01T08:56:38Z</time>
<speed>9.0</speed>
</trkpt>
<trkpt lat="47.406804" lon="10.212352">
<ele>962.0</ele>
<time>2014-05-01T08:56:43Z</time>
<speed>9.0</speed>
</trkpt>
<trkpt lat="47.406711" lon="10.212970">
<ele>955.2</ele>
<time>2014-05-01T08:56:48Z</time>
<speed>10.7</speed>
</trkpt>
<trkpt lat="47.406721" lon="10.213759">
<ele>946.2</ele>
<time>2014-05-01T08:56:53Z</time>
<speed>13.0</speed>
</trkpt>
<trkpt lat="47.406741" lon="10.214584">
<ele>939.0</ele>
<time>2014-05-01T08:56:58Z</time>
<speed>12.0</speed>
</trkpt>
<trkpt lat="47.406911" lon="10.215317">
<ele>933.8</ele>
<time>2014-05-01T08:57:03Z</time>
<speed>11.0</speed>
</trkpt>
<trkpt lat="47.406926" lon="10.216046">
<ele>931.0</ele>
<time>2014-05-01T08:57:08Z</time>
<speed>11.2</speed>
</trkpt>
<trkpt lat="47.406686" lon="10.216654">
<ele>926.8</ele>
<time>2014-05-01T08:57:13Z</time>
<speed>11.3</speed>
</trkpt>
<trkpt lat="47.406457" lon="10.217269">
<ele>921.8</ele>
<time>2014-05-01T08:57:18Z</time>
<speed>9.9</speed>
</trkpt>
<trkpt lat="47.406450" lon="10.218006">
<ele>922.4</ele>
<time>2014-05-01T08:57:23Z</time>
<speed>11.6</speed>
</trkpt>
<trkpt lat="47.406475" lon="10.218770">
<ele>920.2</ele>
<time>2014-05-01T08:57:28Z</time>
<speed>11.3</speed>
</trkpt>
<trkpt lat="47.406660" lon="10.219480">
<ele>917.2</ele>
<time>2014-05-01T08:57:34Z</time>
<speed>8.9</speed>
</trkpt>
<trkpt lat="47.406855" lon="10.220094">
<ele>913.0</ele>
<time>2014-05-01T08:57:40Z</time>
<speed>8.1</speed>
</trkpt>
<trkpt lat="47.406937" lon="10.220625">
<ele>914.8</ele>
<time>2014-05-01T08:57:45Z</time>
<speed>7.3</speed>
</trkpt>
<trkpt lat="47.406961" lon="10.221081">
<ele>914.8</ele>
<time>2014-05-01T08:57:50Z</time>
<speed>6.7</speed>
</trkpt>
<trkpt lat="47.406875" lon="10.221534">
<ele>911.4</ele>
<time>2014-05-01T08:57:55Z</time>
<speed>6.7</speed>
</trkpt>
<trkpt lat="47.406779" lon="10.221937">
<ele>910.4</ele>
<time>2014-05-01T08:58:00Z</time>
<speed>5.5</speed>
</trkpt>
<trkpt lat="47.406803" lon="10.222269">
<ele>911.2</ele>
<time>2014-05-01T08:58:05Z</time>
<speed>5.5</speed>
</trkpt>
<trkpt lat="47.406891" lon="10.222676">
<ele>909.6</ele>
<time>2014-05-01T08:58:10Z</time>
<speed>7.6</speed>
</trkpt>
<trkpt lat="47.406941" lon="10.223232">
<ele>912.2</ele>
<time>2014-05-01T08:58:15Z</time>
<speed>9.7</speed>
</trkpt>
<trkpt lat="47.407000" lon="10.223957">
<ele>904.8</ele>
<time>2014-05-01T08:58:20Z</time>
<speed>12.0</speed>
</trkpt>
<trkpt lat="47.407108" lon="10.224796">
<ele>899.6</ele>
<time>2014-05-01T08:58:25Z</time>
<speed>13.5</speed>
</trkpt>
<trkpt lat="47.407300" lon="10.225615">
<ele>895.0</ele>
<time>2014-05-01T08:58:30Z</time>
<speed>11.0</speed>
</trkpt>
<trkpt lat="47.407490" lon="10.226119">
<ele>887.8</ele>
<time>2014-05-01T08:58:35Z</time>
<speed>6.5</speed>
</trkpt>
<trkpt lat="47.407673" lon="10.226480">
<ele>888.4</ele>
<time>2014-05-01T08:58:40Z</time>
<speed>7.6</speed>
</trkpt>
<trkpt lat="47.407927" lon="10.226912">
<ele>886.2</ele>
<time>2014-05-01T08:58:45Z</time>
<speed>9.2</speed>
</trkpt>
<trkpt lat="47.408269" lon="10.227293">
<ele>884.2</ele>
<time>2014-05-01T08:58:50Z</time>
<speed>9.6</speed>
</trkpt>
<trkpt lat="47.408638" lon="10.227645">
<ele>885.6</ele>
<time>2014-05-01T08:58:55Z</time>
<speed>9.9</speed>
</trkpt>
<trkpt lat="47.409016" lon="10.228002">
<ele>883.2</ele>
<time>2014-05-01T08:59:00Z</time>
<speed>10.0</speed>
</trkpt>
<trkpt lat="47.409394" lon="10.228368">
<ele>881.0</ele>
<time>2014-05-01T08:59:05Z</time>
<speed>10.0</speed>
</trkpt>
<trkpt lat="47.409777" lon="10.228734">
<ele>878.8</ele>
<time>2014-05-01T08:59:10Z</time>
<speed>10.2</speed>
</trkpt>
<trkpt lat="47.410148" lon="10.229116">
<ele>875.2</ele>
<time>2014-05-01T08:59:15Z</time>
<speed>10.0</speed>
</trkpt>
<trkpt lat="47.410507" lon="10.229510">
<ele>875.6</ele>
<time>2014-05-01T08:59:20Z</time>
<speed>9.7</speed>
</trkpt>
<trkpt lat="47.410838" lon="10.229930">
<ele>873.4</ele>
<time>2014-05-01T08:59:25Z</time>
<speed>9.5</speed>
</trkpt>
<trkpt lat="47.411160" lon="10.230351">
<ele>875.6</ele>
<time>2014-05-01T08:59:30Z</time>
<speed>9.6</speed>
</trkpt>
<trkpt lat="47.411480" lon="10.230799">
<ele>874.8</ele>
<time>2014-05-01T08:59:35Z</time>
<speed>9.7</speed>
</trkpt>
<trkpt lat="47.411745" lon="10.231314">
<ele>871.4</ele>
<time>2014-05-01T08:59:40Z</time>
<speed>9.8</speed>
</trkpt>
<trkpt lat="47.411970" lon="10.231893">
<ele>870.2</ele>
<time>2014-05-01T08:59:45Z</time>
<speed>10.4</speed>
</trkpt>
<trkpt lat="47.412205" lon="10.232497">
<ele>868.6</ele>
<time>2014-05-01T08:59:50Z</time>
<speed>10.4</speed>
</trkpt>
<trkpt lat="47.412446" lon="10.233061">
<ele>869.4</ele>
<time>2014-05-01T08:59:55Z</time>
<speed>9.8</speed>
</trkpt>
<trkpt lat="47.412689" lon="10.233574">
<ele>864.4</ele>
<time>2014-05-01T09:00:00Z</time>
<speed>8.7</speed>
</trkpt>
<trkpt lat="47.412947" lon="10.233993">
<ele>866.8</ele>
<time>2014-05-01T09:00:05Z</time>
<speed>8.2</speed>
</trkpt>
<trkpt lat="47.413210" lon="10.234361">
<ele>866.8</ele>
<time>2014-05-01T09:00:10Z</time>
<speed>7.9</speed>
</trkpt>
<trkpt lat="47.413465" lon="10.234662">
<ele>867.0</ele>
<time>2014-05-01T09:00:15Z</time>
<speed>7.0</speed>
</trkpt>
<trkpt lat="47.413750" lon="10.234837">
<ele>869.0</ele>
<time>2014-05-01T09:00:20Z</time>
<speed>6.9</speed>
</trkpt>
<trkpt lat="47.414031" lon="10.235014">
<ele>867.4</ele>
<time>2014-05-01T09:00:25Z</time>
<speed>6.9</speed>
</trkpt>
<trkpt lat="47.414309" lon="10.235240">
<ele>867.0</ele>
<time>2014-05-01T09:00:30Z</time>
<speed>7.0</speed>
</trkpt>
<trkpt lat="47.414594" lon="10.235456">
<ele>867.8</ele>
<time>2014-05-01T09:00:35Z</time>
<speed>7.3</speed>
</trkpt>
<trkpt lat="47.414897" lon="10.235588">
<ele>865.2</ele>
<time>2014-05-01T09:00:40Z</time>
<speed>7.0</speed>
</trkpt>
<trkpt lat="47.415211" lon="10.235721">
<ele>866.0</ele>
<time>2014-05-01T09:00:45Z</time>
<speed>7.3</speed>
</trkpt>
<trkpt lat="47.415525" lon="10.235933">
<ele>863.8</ele>
<time>2014-05-01T09:00:50Z</time>
<speed>7.7</speed>
</trkpt>
<trkpt lat="47.415830" lon="10.236165">
<ele>863.4</ele>
<time>2014-05-01T09:00:55Z</time>
<speed>7.6</speed>
</trkpt>
<trkpt lat="47.416137" lon="10.236370">
<ele>866.0</ele>
<time>2014-05-01T09:01:00Z</time>
<speed>7.5</speed>
</trkpt>
<trkpt lat="47.416448" lon="10.236585">
<ele>863.8</ele>
<time>2014-05-01T09:01:05Z</time>
<speed>7.8</speed>
</trkpt>
<trkpt lat="47.416763" lon="10.236834">
<ele>863.0</ele>
<time>2014-05-01T09:01:10Z</time>
<speed>8.1</speed>
</trkpt>
<trkpt lat="47.417086" lon="10.237074">
<ele>862.2</ele>
<time>2014-05-01T09:01:15Z</time>
<speed>7.9</speed>
</trkpt>
<trkpt lat="47.417386" lon="10.237298">
<ele>860.0</ele>
<time>2014-05-01T09:01:20Z</time>
<speed>7.6</speed>
</trkpt>
<trkpt lat="47.417692" lon="10.237550">
<ele>858.8</ele>
<time>2014-05-01T09:01:25Z</time>
<speed>8.5</speed>
</trkpt>
<trkpt lat="47.417999" lon="10.237993">
<ele>854.6</ele>
<time>2014-05-01T09:01:30Z</time>
<speed>11.2</speed>
</trkpt>
<trkpt lat="47.418265" lon="10.238697">
<ele>849.6</ele>
<time>2014-05-01T09:01:35Z</time>
<speed>12.7</speed>
</trkpt>
<trkpt lat="47.418599" lon="10.239354">
<ele>840.4</ele>
<time>2014-05-01T09:01:40Z</time>
<speed>12.1</speed>
</trkpt>
<trkpt lat="47.418837" lon="10.240096">
<ele>839.4</ele>
<time>2014-05-01T09:01:45Z</time>
<speed>12.0</speed>
</trkpt>
<trkpt lat="47.418935" lon="10.240773">
<ele>839.0</ele>
<time>2014-05-01T09:01:50Z</time>
<speed>8.3</speed>
</trkpt>
<trkpt lat="47.419061" lon="10.241115">
<ele>839.8</ele>
<time>2014-05-01T09:01:55Z</time>
<speed>4.9</speed>
</trkpt>
<trkpt lat="47.419216" lon="10.241355">
<ele>842.6</ele>
<time>2014-05-01T09:02:00Z</time>
<speed>4.8</speed>
</trkpt>
<trkpt lat="47.419321" lon="10.241561">
<ele>842.8</ele>
<time>2014-05-01T09:02:05Z</time>
<speed>2.1</speed>
</trkpt>
<trkpt lat="47.419340" lon="10.241668">
<ele>843.8</ele>
<time>2014-05-01T09:02:10Z</time>
<speed>2.9</speed>
</trkpt>
<trkpt lat="47.419448" lon="10.241813">
<ele>847.2</ele>
<time>2014-05-01T09:02:15Z</time>
<speed>3.1</speed>
</trkpt>
<trkpt lat="47.419509" lon="10.242009">
<ele>847.8</ele>
<time>2014-05-01T09:02:20Z</time>
<speed>3.3</speed>
</trkpt>
<trkpt lat="47.419533" lon="10.242226">
<ele>850.6</ele>
<time>2014-05-01T09:02:25Z</time>
<speed>2.8</speed>
</trkpt>
<trkpt lat="47.419527" lon="10.242429">
<ele>849.2</ele>
<time>2014-05-01T09:02:31Z</time>
<speed>2.2</speed>
</trkpt>
<trkpt lat="47.419543" lon="10.242552">
<ele>851.6</ele>
<time>2014-05-01T09:02:36Z</time>
<speed>2.3</speed>
</trkpt>
<trkpt lat="47.419562" lon="10.242715">
<ele>854.4</ele>
<time>2014-05-01T09:02:41Z</time>
<speed>2.6</speed>
</trkpt>
<trkpt lat="47.419550" lon="10.242894">
<ele>853.8</ele>
<time>2014-05-01T09:02:46Z</time>
<speed>2.4</speed>
</trkpt>
<trkpt lat="47.419566" lon="10.243039">
<ele>857.2</ele>
<time>2014-05-01T09:02:51Z</time>
<speed>2.7</speed>
</trkpt>
<trkpt lat="47.419565" lon="10.243203">
<ele>856.2</ele>
<time>2014-05-01T09:02:56Z</time>
<speed>2.5</speed>
</trkpt>
<trkpt lat="47.419569" lon="10.243381">
<ele>860.0</ele>
<time>2014-05-01T09:03:01Z</time>
<speed>2.5</speed>
</trkpt>
<trkpt lat="47.419594" lon="10.243541">
<ele>858.2</ele>
<time>2014-05-01T09:03:06Z</time>
<speed>2.4</speed>
</trkpt>
<trkpt lat="47.419637" lon="10.243702">
<ele>860.4</ele>
<time>2014-05-01T09:03:11Z</time>
<speed>2.4</speed>
</trkpt>
<trkpt lat="47.419706" lon="10.243843">
<ele>862.8</ele>
<time>2014-05-01T09:03:16Z</time>
<speed>2.5</speed>
</trkpt>
<trkpt lat="47.419800" lon="10.243934">
<ele>860.6</ele>
<time>2014-05-01T09:03:21Z</time>
<speed>2.3</speed>
</trkpt>
<trkpt lat="47.419909" lon="10.243986">
<ele>864.2</ele>
<time>2014-05-01T09:03:26Z</time>
<speed>2.5</speed>
</trkpt>
<trkpt lat="47.420017" lon="10.244026">
<ele>863.4</ele>
<time>2014-05-01T09:03:31Z</time>
<speed>2.4</speed>
</trkpt>
<trkpt lat="47.420124" lon="10.244072">
<ele>865.2</ele>
<time>2014-05-01T09:03:36Z</time>
<speed>2.3</speed>
</trkpt>
<trkpt lat="47.420237" lon="10.244116">
<ele>864.6</ele>
<time>2014-05-01T09:03:41Z</time>
<speed>2.5</speed>
</trkpt>
<trkpt lat="47.420347" lon="10.244159">
<ele>867.0</ele>
<time>2014-05-01T09:03:46Z</time>
<speed>2.1</speed>
</trkpt>
<trkpt lat="47.420416" lon="10.244239">
<ele>866.2</ele>
<time>2014-05-01T09:03:51Z</time>
<speed>2.4</speed>
</trkpt>
<trkpt lat="47.420450" lon="10.244390">
<ele>866.0</ele>
<time>2014-05-01T09:03:56Z</time>
<speed>2.2</speed>
</trkpt>
<trkpt lat="47.420464" lon="10.244551">
<ele>871.8</ele>
<time>2014-05-01T09:04:01Z</time>
<speed>2.3</speed>
</trkpt>
<trkpt lat="47.420473" lon="10.244722">
<ele>872.4</ele>
<time>2014-05-01T09:04:06Z</time>
<speed>2.7</speed>
</trkpt>
<trkpt lat="47.420493" lon="10.244894">
<ele>876.4</ele>
<time>2014-05-01T09:04:11Z</time>
<speed>2.5</speed>
</trkpt>
<trkpt lat="47.420536" lon="10.245054">
<ele>877.0</ele>
<time>2014-05-01T09:04:16Z</time>
<speed>2.3</speed>
</trkpt>
<trkpt lat="47.420596" lon="10.245193">
<ele>878.6</ele>
<time>2014-05-01T09:04:21Z</time>
<speed>2.5</speed>
</trkpt>
<trkpt lat="47.420662" lon="10.245321">
<ele>877.8</ele>
<time>2014-05-01T09:04:26Z</time>
<speed>2.3</speed>
</trkpt>
<trkpt lat="47.420709" lon="10.245458">
<ele>880.6</ele>
<time>2014-05-01T09:04:31Z</time>
<speed>2.1</speed>
</trkpt>
<trkpt lat="47.420757" lon="10.245585">
<ele>883.6</ele>
<time>2014-05-01T09:04:36Z</time>
<speed>2.1</speed>
</trkpt>
<trkpt lat="47.420813" lon="10.245697">
<ele>886.0</ele>
<time>2014-05-01T09:04:41Z</time>
<speed>2.1</speed>
</trkpt>
<trkpt lat="47.420864" lon="10.245816">
<ele>886.4</ele>
<time>2014-05-01T09:04:46Z</time>
<speed>2.1</speed>
</trkpt>
<trkpt lat="47.420910" lon="10.245933">
<ele>888.2</ele>
<time>2014-05-01T09:04:51Z</time>
<speed>2.0</speed>
</trkpt>
<trkpt lat="47.420940" lon="10.246062">
<ele>890.2</ele>
<time>2014-05-01T09:04:56Z</time>
<speed>2.0</speed>
</trkpt>
<trkpt lat="47.420973" lon="10.246193">
<ele>888.0</ele>
<time>2014-05-01T09:05:01Z</time>
<speed>2.2</speed>
</trkpt>
<trkpt lat="47.421021" lon="10.246322">
<ele>889.6</ele>
<time>2014-05-01T09:05:06Z</time>
<speed>2.3</speed>
</trkpt>
<trkpt lat="47.421081" lon="10.246455">
<ele>890.6</ele>
<time>2014-05-01T09:05:11Z</time>
<speed>2.4</speed>
</trkpt>
<trkpt lat="47.421132" lon="10.246564">
<ele>889.4</ele>
<time>2014-05-01T09:05:16Z</time>
<speed>1.9</speed>
</trkpt>
<trkpt lat="47.421181" lon="10.246703">
<ele>887.6</ele>
<time>2014-05-01T09:05:21Z</time>
<speed>3.2</speed>
</trkpt>
<trkpt lat="47.421254" lon="10.246911">
<ele>891.2</ele>
<time>2014-05-01T09:05:26Z</time>
<speed>4.1</speed>
</trkpt>
<trkpt lat="47.421298" lon="10.247210">
<ele>894.2</ele>
<time>2014-05-01T09:05:31Z</time>
<speed>4.8</speed>
</trkpt>
<trkpt lat="47.421292" lon="10.247542">
<ele>894.4</ele>
<time>2014-05-01T09:05:36Z</time>
<speed>5.1</speed>
</trkpt>
<trkpt lat="47.421282" lon="10.247886">
<ele>895.2</ele>
<time>2014-05-01T09:05:41Z</time>
<speed>5.2</speed>
</trkpt>
<trkpt lat="47.421266" lon="10.248235">
<ele>890.4</ele>
<time>2014-05-01T09:05:46Z</time>
<speed>5.1</speed>
</trkpt>
<trkpt lat="47.421259" lon="10.248572">
<ele>890.2</ele>
<time>2014-05-01T09:05:51Z</time>
<speed>5.1</speed>
</trkpt>
<trkpt lat="47.421248" lon="10.248912">
<ele>892.0</ele>
<time>2014-05-01T09:05:56Z</time>
<speed>4.8</speed>
</trkpt>
<trkpt lat="47.421236" lon="10.249241">
<ele>896.6</ele>
<time>2014-05-01T09:06:01Z</time>
<speed>5.0</speed>
</trkpt>
<trkpt lat="47.421231" lon="10.249567">
<ele>895.0</ele>
<time>2014-05-01T09:06:06Z</time>
<speed>4.9</speed>
</trkpt>
<trkpt lat="47.421229" lon="10.249896">
<ele>898.4</ele>
<time>2014-05-01T09:06:11Z</time>
<speed>4.9</speed>
</trkpt>
<trkpt lat="47.421247" lon="10.250219">
<ele>897.8</ele>
<time>2014-05-01T09:06:16Z</time>
<speed>4.6</speed>
</trkpt>
<trkpt lat="47.421290" lon="10.250505">
<ele>898.2</ele>
<time>2014-05-01T09:06:21Z</time>
<speed>3.8</speed>
</trkpt>
<trkpt lat="47.421257" lon="10.250751">
<ele>901.4</ele>
<time>2014-05-01T09:06:26Z</time>
<speed>3.4</speed>
</trkpt>
<trkpt lat="47.421177" lon="10.251003">
<ele>900.2</ele>
<time>2014-05-01T09:06:31Z</time>
<speed>4.3</speed>
</trkpt>
<trkpt lat="47.421038" lon="10.251270">
<ele>897.6</ele>
<time>2014-05-01T09:06:36Z</time>
<speed>6.5</speed>
</trkpt>
<trkpt lat="47.420706" lon="10.251504">
<ele>901.2</ele>
<time>2014-05-01T09:06:41Z</time>
<speed>9.2</speed>
</trkpt>
<trkpt lat="47.420335" lon="10.251768">
<ele>900.6</ele>
<time>2014-05-01T09:06:46Z</time>
<speed>8.0</speed>
</trkpt>
<trkpt lat="47.420071" lon="10.252080">
<ele>900.4</ele>
<time>2014-05-01T09:06:51Z</time>
<speed>7.1</speed>
</trkpt>
<trkpt lat="47.419819" lon="10.252400">
<ele>900.0</ele>
<time>2014-05-01T09:06:56Z</time>
<speed>7.5</speed>
</trkpt>
<trkpt lat="47.419477" lon="10.252427">
<ele>896.6</ele>
<time>2014-05-01T09:07:01Z</time>
<speed>7.0</speed>
</trkpt>
<trkpt lat="47.419191" lon="10.252069">
<ele>896.0</ele>
<time>2014-05-01T09:07:06Z</time>
<speed>8.1</speed>
</trkpt>
<trkpt lat="47.418947" lon="10.252127">
<ele>891.4</ele>
<time>2014-05-01T09:07:11Z</time>
<speed>5.6</speed>
</trkpt>
<trkpt lat="47.418528" lon="10.252334">
<ele>893.0</ele>
<time>2014-05-01T09:07:16Z</time>
<speed>6.8</speed>
</trkpt>
<trkpt lat="47.418091" lon="10.252511">
<ele>891.6</ele>
<time>2014-05-01T09:07:22Z</time>
<speed>7.0</speed>
</trkpt>
<trkpt lat="47.417813" lon="10.252728">
<ele>890.0</ele>
<time>2014-05-01T09:07:27Z</time>
<speed>6.7</speed>
</trkpt>
<trkpt lat="47.417554" lon="10.252902">
<ele>883.8</ele>
<time>2014-05-01T09:07:32Z</time>
<speed>6.6</speed>
</trkpt>
<trkpt lat="47.417299" lon="10.252916">
<ele>885.4</ele>
<time>2014-05-01T09:07:37Z</time>
<speed>5.8</speed>
</trkpt>
<trkpt lat="47.417116" lon="10.252648">
<ele>878.4</ele>
<time>2014-05-01T09:07:42Z</time>
<speed>5.7</speed>
</trkpt>
<trkpt lat="47.416887" lon="10.252396">
<ele>873.2</ele>
<time>2014-05-01T09:07:47Z</time>
<speed>6.4</speed>
</trkpt>
<trkpt lat="47.416628" lon="10.252273">
<ele>870.2</ele>
<time>2014-05-01T09:07:52Z</time>
<speed>5.7</speed>
</trkpt>
<trkpt lat="47.416375" lon="10.252045">
<ele>867.2</ele>
<time>2014-05-01T09:07:57Z</time>
<speed>7.3</speed>
</trkpt>
<trkpt lat="47.416100" lon="10.251719">
<ele>862.4</ele>
<time>2014-05-01T09:08:02Z</time>
<speed>8.0</speed>
</trkpt>
<trkpt lat="47.415913" lon="10.251407">
<ele>856.8</ele>
<time>2014-05-01T09:08:07Z</time>
<speed>4.9</speed>
</trkpt>
<trkpt lat="47.415846" lon="10.251018">
<ele>857.0</ele>
<time>2014-05-01T09:08:12Z</time>
<speed>5.0</speed>
</trkpt>
<trkpt lat="47.415724" lon="10.250514">
<ele>851.6</ele>
<time>2014-05-01T09:08:18Z</time>
<speed>6.3</speed>
</trkpt>
<trkpt lat="47.415668" lon="10.250194">
<ele>852.8</ele>
<time>2014-05-01T09:08:23Z</time>
<speed>4.8</speed>
</trkpt>
<trkpt lat="47.415554" lon="10.249900">
<ele>851.4</ele>
<time>2014-05-01T09:08:28Z</time>
<speed>5.4</speed>
</trkpt>
<trkpt lat="47.415386" lon="10.249600">
<ele>851.4</ele>
<time>2014-05-01T09:08:33Z</time>
<speed>6.3</speed>
</trkpt>
<trkpt lat="47.415191" lon="10.249310">
<ele>852.2</ele>
<time>2014-05-01T09:08:38Z</time>
<speed>5.6</speed>
</trkpt>
<trkpt lat="47.415027" lon="10.248970">
<ele>848.8</ele>
<time>2014-05-01T09:08:43Z</time>
<speed>6.1</speed>
</trkpt>
<trkpt lat="47.414980" lon="10.248610">
<ele>848.2</ele>
<time>2014-05-01T09:08:48Z</time>
<speed>4.8</speed>
</trkpt>
<trkpt lat="47.415027" lon="10.248360">
<ele>848.6</ele>
<time>2014-05-01T09:08:53Z</time>
<speed>4.3</speed>
</trkpt>
<trkpt lat="47.415003" lon="10.248072">
<ele>850.0</ele>
<time>2014-05-01T09:08:58Z</time>
<speed>4.7</speed>
</trkpt>
<trkpt lat="47.414844" lon="10.247823">
<ele>850.6</ele>
<time>2014-05-01T09:09:03Z</time>
<speed>4.4</speed>
</trkpt>
<trkpt lat="47.414727" lon="10.247535">
<ele>848.8</ele>
<time>2014-05-01T09:09:08Z</time>
<speed>4.4</speed>
</trkpt>
<trkpt lat="47.414611" lon="10.247287">
<ele>847.8</ele>
<time>2014-05-01T09:09:13Z</time>
<speed>4.2</speed>
</trkpt>
<trkpt lat="47.414546" lon="10.247080">
<ele>848.2</ele>
<time>2014-05-01T09:09:18Z</time>
<speed>1.8</speed>
</trkpt>
<trkpt lat="47.414517" lon="10.246962">
<ele>845.8</ele>
<time>2014-05-01T09:09:23Z</time>
<speed>2.3</speed>
</trkpt>
<trkpt lat="47.414489" lon="10.246823">
<ele>846.8</ele>
<time>2014-05-01T09:09:28Z</time>
<speed>1.9</speed>
</trkpt>
<trkpt lat="47.414446" lon="10.246690">
<ele>846.8</ele>
<time>2014-05-01T09:09:33Z</time>
<speed>2.7</speed>
</trkpt>
<trkpt lat="47.414498" lon="10.246524">
<ele>850.6</ele>
<time>2014-05-01T09:09:38Z</time>
<speed>2.7</speed>
</trkpt>
<trkpt lat="47.414551" lon="10.246370">
<ele>850.8</ele>
<time>2014-05-01T09:09:43Z</time>
<speed>2.3</speed>
</trkpt>
<trkpt lat="47.414600" lon="10.246225">
<ele>850.4</ele>
<time>2014-05-01T09:09:48Z</time>
<speed>2.7</speed>
</trkpt>
<trkpt lat="47.414648" lon="10.246077">
<ele>851.0</ele>
<time>2014-05-01T09:09:53Z</time>
<speed>2.2</speed>
</trkpt>
<trkpt lat="47.414692" lon="10.245916">
<ele>851.0</ele>
<time>2014-05-01T09:09:58Z</time>
<speed>2.6</speed>
</trkpt>
<trkpt lat="47.414685" lon="10.245741">
<ele>850.6</ele>
<time>2014-05-01T09:10:03Z</time>
<speed>2.1</speed>
</trkpt>
<trkpt lat="47.414655" lon="10.245536">
<ele>847.8</ele>
<time>2014-05-01T09:10:08Z</time>
<speed>2.8</speed>
</trkpt>
<trkpt lat="47.414676" lon="10.245312">
<ele>849.0</ele>
<time>2014-05-01T09:10:13Z</time>
<speed>4.3</speed>
</trkpt>
<trkpt lat="47.414672" lon="10.245057">
<ele>849.2</ele>
<time>2014-05-01T09:10:18Z</time>
<speed>2.1</speed>
</trkpt>
<trkpt lat="47.414635" lon="10.244694">
<ele>854.6</ele>
<time>2014-05-01T09:10:23Z</time>
<speed>4.5</speed>
</trkpt>
<trkpt lat="47.414559" lon="10.244406">
<ele>852.0</ele>
<time>2014-05-01T09:10:28Z</time>
<speed>4.0</speed>
</trkpt>
<trkpt lat="47.414542" lon="10.244025">
<ele>849.6</ele>
<time>2014-05-01T09:10:33Z</time>
<speed>6.2</speed>
</trkpt>
<trkpt lat="47.414518" lon="10.243682">
<ele>849.6</ele>
<time>2014-05-01T09:10:38Z</time>
<speed>3.7</speed>
</trkpt>
<trkpt lat="47.414539" lon="10.243446">
<ele>852.6</ele>
<time>2014-05-01T09:10:43Z</time>
<speed>4.4</speed>
</trkpt>
<trkpt lat="47.414625" lon="10.243118">
<ele>853.2</ele>
<time>2014-05-01T09:10:48Z</time>
<speed>2.8</speed>
</trkpt>
<trkpt lat="47.414706" lon="10.242956">
<ele>856.2</ele>
<time>2014-05-01T09:10:53Z</time>
<speed>2.4</speed>
</trkpt>
<trkpt lat="47.414749" lon="10.242835">
<ele>857.2</ele>
<time>2014-05-01T09:10:58Z</time>
<speed>2.3</speed>
</trkpt>
<trkpt lat="47.414794" lon="10.242705">
<ele>859.6</ele>
<time>2014-05-01T09:11:03Z</time>
<speed>1.4</speed>
</trkpt>
<trkpt lat="47.414875" lon="10.242690">
<ele>859.4</ele>
<time>2014-05-01T09:11:08Z</time>
<speed>1.3</speed>
</trkpt>
<trkpt lat="47.414960" lon="10.242728">
<ele>859.4</ele>
<time>2014-05-01T09:11:13Z</time>
<speed>1.6</speed>
</trkpt>
<trkpt lat="47.415129" lon="10.242727">
<ele>858.6</ele>
<time>2014-05-01T09:11:18Z</time>
<speed>2.6</speed>
</trkpt>
<trkpt lat="47.415267" lon="10.242577">
<ele>855.2</ele>
<time>2014-05-01T09:11:23Z</time>
<speed>3.5</speed>
</trkpt>
<trkpt lat="47.415422" lon="10.242545">
<ele>853.8</ele>
<time>2014-05-01T09:11:28Z</time>
<speed>2.7</speed>
</trkpt>
<trkpt lat="47.415588" lon="10.242506">
<ele>847.2</ele>
<time>2014-05-01T09:11:33Z</time>
<speed>3.3</speed>
</trkpt>
<trkpt lat="47.415700" lon="10.242433">
<ele>849.8</ele>
<time>2014-05-01T09:11:38Z</time>
<speed>1.7</speed>
</trkpt>
<trkpt lat="47.415875" lon="10.242446">
<ele>847.2</ele>
<time>2014-05-01T09:11:43Z</time>
<speed>2.7</speed>
</trkpt>
<trkpt lat="47.416063" lon="10.242372">
<ele>846.2</ele>
<time>2014-05-01T09:11:48Z</time>
<speed>3.3</speed>
</trkpt>
<trkpt lat="47.416207" lon="10.242201">
<ele>847.6</ele>
<time>2014-05-01T09:11:53Z</time>
<speed>2.3</speed>
</trkpt>
<trkpt lat="47.416141" lon="10.242119">
<ele>845.2</ele>
<time>2014-05-01T09:11:58Z</time>
<speed>1.4</speed>
</trkpt>
<trkpt lat="47.416022" lon="10.242152">
<ele>843.8</ele>
<time>2014-05-01T09:12:03Z</time>
<speed>2.5</speed>
</trkpt>
<trkpt lat="47.415905" lon="10.242150">
<ele>838.0</ele>
<time>2014-05-01T09:12:08Z</time>
<speed>3.0</speed>
</trkpt>
<trkpt lat="47.415620" lon="10.242215">
<ele>834.2</ele>
<time>2014-05-01T09:12:13Z</time>
<speed>7.1</speed>
</trkpt>
<trkpt lat="47.415276" lon="10.242189">
<ele>831.4</ele>
<time>2014-05-01T09:12:18Z</time>
<speed>6.7</speed>
</trkpt>
<trkpt lat="47.414938" lon="10.242006">
<ele>828.0</ele>
<time>2014-05-01T09:12:24Z</time>
<speed>6.4</speed>
</trkpt>
<trkpt lat="47.414647" lon="10.241896">
<ele>826.6</ele>
<time>2014-05-01T09:12:29Z</time>
<speed>3.6</speed>
</trkpt>
<trkpt lat="47.414474" lon="10.241918">
<ele>824.6</ele>
<time>2014-05-01T09:12:34Z</time>
<speed>4.0</speed>
</trkpt>
<trkpt lat="47.414395" lon="10.242255">
<ele>826.4</ele>
<time>2014-05-01T09:12:39Z</time>
<speed>3.1</speed>
</trkpt>
<trkpt lat="47.414338" lon="10.242262">
<ele>829.4</ele>
<time>2014-05-01T09:12:44Z</time>
<speed>2.2</speed>
</trkpt>
<trkpt lat="47.414265" lon="10.242195">
<ele>825.0</ele>
<time>2014-05-01T09:12:49Z</time>
<speed>3.0</speed>
</trkpt>
<trkpt lat="47.414235" lon="10.241957">
<ele>825.0</ele>
<time>2014-05-01T09:12:54Z</time>
<speed>4.5</speed>
</trkpt>
<trkpt lat="47.414164" lon="10.241656">
<ele>824.4</ele>
<time>2014-05-01T09:12:59Z</time>
<speed>5.5</speed>
</trkpt>
<trkpt lat="47.413930" lon="10.241505">
<ele>823.2</ele>
<time>2014-05-01T09:13:04Z</time>
<speed>5.4</speed>
</trkpt>
<trkpt lat="47.413666" lon="10.241346">
<ele>820.4</ele>
<time>2014-05-01T09:13:09Z</time>
<speed>7.1</speed>
</trkpt>
<trkpt lat="47.413382" lon="10.241153">
<ele>821.6</ele>
<time>2014-05-01T09:13:14Z</time>
<speed>6.7</speed>
</trkpt>
<trkpt lat="47.413190" lon="10.240950">
<ele>817.8</ele>
<time>2014-05-01T09:13:19Z</time>
<speed>2.7</speed>
</trkpt>
<trkpt lat="47.413052" lon="10.241130">
<ele>816.4</ele>
<time>2014-05-01T09:13:24Z</time>
<speed>4.9</speed>
</trkpt>
<trkpt lat="47.412881" lon="10.241354">
<ele>819.4</ele>
<time>2014-05-01T09:13:29Z</time>
<speed>3.8</speed>
</trkpt>
<trkpt lat="47.412788" lon="10.241674">
<ele>814.6</ele>
<time>2014-05-01T09:13:34Z</time>
<speed>4.9</speed>
</trkpt>
<trkpt lat="47.412748" lon="10.242047">
<ele>816.4</ele>
<time>2014-05-01T09:13:39Z</time>
<speed>5.5</speed>
</trkpt>
<trkpt lat="47.412692" lon="10.242500">
<ele>813.0</ele>
<time>2014-05-01T09:13:44Z</time>
<speed>6.0</speed>
</trkpt>
<trkpt lat="47.412661" lon="10.242959">
<ele>816.4</ele>
<time>2014-05-01T09:13:49Z</time>
<speed>4.0</speed>
</trkpt>
<trkpt lat="47.412588" lon="10.243330">
<ele>814.2</ele>
<time>2014-05-01T09:13:54Z</time>
<speed>6.7</speed>
</trkpt>
<trkpt lat="47.412591" lon="10.243766">
<ele>814.8</ele>
<time>2014-05-01T09:13:59Z</time>
<speed>5.7</speed>
</trkpt>
<trkpt lat="47.412656" lon="10.244119">
<ele>811.6</ele>
<time>2014-05-01T09:14:04Z</time>
<speed>4.2</speed>
</trkpt>
<trkpt lat="47.412598" lon="10.244280">
<ele>810.2</ele>
<time>2014-05-01T09:14:09Z</time>
<speed>0.3</speed>
</trkpt>
<trkpt lat="47.412588" lon="10.244276">
<ele>810.4</ele>
<time>2014-05-01T09:14:14Z</time>
<speed>0.5</speed>
</trkpt>
<trkpt lat="47.412548" lon="10.244303">
<ele>813.0</ele>
<time>2014-05-01T09:14:19Z</time>
<speed>1.1</speed>
</trkpt>
<trkpt lat="47.412491" lon="10.244353">
<ele>814.4</ele>
<time>2014-05-01T09:14:24Z</time>
<speed>1.1</speed>
</trkpt>
<trkpt lat="47.412435" lon="10.244391">
<ele>815.2</ele>
<time>2014-05-01T09:14:29Z</time>
<speed>0.6</speed>
</trkpt>
<trkpt lat="47.412385" lon="10.244464">
<ele>817.2</ele>
<time>2014-05-01T09:14:34Z</time>
<speed>1.1</speed>
</trkpt>
<trkpt lat="47.412353" lon="10.244514">
<ele>818.8</ele>
<time>2014-05-01T09:14:39Z</time>
<speed>0.5</speed>
</trkpt>
<trkpt lat="47.412333" lon="10.244546">
<ele>816.4</ele>
<time>2014-05-01T09:14:44Z</time>
<speed>0.6</speed>
</trkpt>
<trkpt lat="47.412281" lon="10.244609">
<ele>817.8</ele>
<time>2014-05-01T09:14:49Z</time>
<speed>0.8</speed>
</trkpt>
<trkpt lat="47.412231" lon="10.244543">
<ele>816.0</ele>
<time>2014-05-01T09:15:11Z</time>
<speed>1.0</speed>
</trkpt>
<trkpt lat="47.412221" lon="10.244549">
<ele>814.0</ele>
<time>2014-05-01T09:15:42Z</time>
<speed>0.8</speed>
</trkpt>
<trkpt lat="47.412151" lon="10.244618">
<ele>814.8</ele>
<time>2014-05-01T09:15:47Z</time>
<speed>1.5</speed>
</trkpt>
<trkpt lat="47.412076" lon="10.244675">
<ele>813.2</ele>
<time>2014-05-01T09:15:52Z</time>
<speed>1.3</speed>
</trkpt>
<trkpt lat="47.412024" lon="10.244654">
<ele>813.2</ele>
<time>2014-05-01T09:15:57Z</time>
<speed>1.2</speed>
</trkpt>
<trkpt lat="47.411939" lon="10.244646">
<ele>813.4</ele>
<time>2014-05-01T09:16:02Z</time>
<speed>1.8</speed>
</trkpt>
<trkpt lat="47.411827" lon="10.244665">
<ele>814.6</ele>
<time>2014-05-01T09:16:07Z</time>
<speed>1.7</speed>
</trkpt>
<trkpt lat="47.411711" lon="10.244688">
<ele>817.8</ele>
<time>2014-05-01T09:16:12Z</time>
<speed>1.9</speed>
</trkpt>
<trkpt lat="47.411629" lon="10.244731">
<ele>818.2</ele>
<time>2014-05-01T09:16:17Z</time>
<speed>1.5</speed>
</trkpt>
<trkpt lat="47.411538" lon="10.244785">
<ele>819.2</ele>
<time>2014-05-01T09:16:22Z</time>
<speed>1.3</speed>
</trkpt>
<trkpt lat="47.411449" lon="10.244829">
<ele>824.0</ele>
<time>2014-05-01T09:16:27Z</time>
<speed>1.5</speed>
</trkpt>
<trkpt lat="47.411367" lon="10.244815">
<ele>825.2</ele>
<time>2014-05-01T09:16:32Z</time>
<speed>1.5</speed>
</trkpt>
<trkpt lat="47.411273" lon="10.244835">
<ele>824.4</ele>
<time>2014-05-01T09:16:37Z</time>
<speed>1.4</speed>
</trkpt>
<trkpt lat="47.411197" lon="10.244822">
<ele>826.2</ele>
<time>2014-05-01T09:16:42Z</time>
<speed>1.1</speed>
</trkpt>
<trkpt lat="47.411116" lon="10.244834">
<ele>828.0</ele>
<time>2014-05-01T09:16:47Z</time>
<speed>0.5</speed>
</trkpt>
<trkpt lat="47.411060" lon="10.244779">
<ele>830.6</ele>
<time>2014-05-01T09:16:52Z</time>
<speed>0.8</speed>
</trkpt>
<trkpt lat="47.411019" lon="10.244784">
<ele>832.6</ele>
<time>2014-05-01T09:16:57Z</time>
<speed>0.9</speed>
</trkpt>
<trkpt lat="47.410936" lon="10.244768">
<ele>833.8</ele>
<time>2014-05-01T09:17:02Z</time>
<speed>1.2</speed>
</trkpt>
<trkpt lat="47.410853" lon="10.244785">
<ele>838.2</ele>
<time>2014-05-01T09:17:07Z</time>
<speed>1.3</speed>
</trkpt>
<trkpt lat="47.410784" lon="10.244813">
<ele>845.6</ele>
<time>2014-05-01T09:17:12Z</time>
<speed>1.5</speed>
</trkpt>
<trkpt lat="47.410724" lon="10.244874">
<ele>846.4</ele>
<time>2014-05-01T09:17:17Z</time>
<speed>1.0</speed>
</trkpt>
<trkpt lat="47.410673" lon="10.244858">
<ele>851.4</ele>
<time>2014-05-01T09:17:23Z</time>
<speed>0.7</speed>
</trkpt>
<trkpt lat="47.410606" lon="10.244976">
<ele>852.6</ele>
<time>2014-05-01T09:17:29Z</time>
<speed>1.1</speed>
</trkpt>
<trkpt lat="47.410540" lon="10.245017">
<ele>855.0</ele>
<time>2014-05-01T09:17:34Z</time>
<speed>1.0</speed>
</trkpt>
<trkpt lat="47.410505" lon="10.245104">
<ele>853.6</ele>
<time>2014-05-01T09:17:39Z</time>
<speed>0.6</speed>
</trkpt>
<trkpt lat="47.410472" lon="10.245184">
<ele>860.2</ele>
<time>2014-05-01T09:17:44Z</time>
<speed>1.6</speed>
</trkpt>
<trkpt lat="47.410396" lon="10.245291">
<ele>856.8</ele>
<time>2014-05-01T09:17:49Z</time>
<speed>1.1</speed>
</trkpt>
<trkpt lat="47.410332" lon="10.245332">
<ele>860.2</ele>
<time>2014-05-01T09:17:54Z</time>
<speed>1.3</speed>
</trkpt>
<trkpt lat="47.410253" lon="10.245364">
<ele>860.6</ele>
<time>2014-05-01T09:17:59Z</time>
<speed>1.3</speed>
</trkpt>
<trkpt lat="47.410183" lon="10.245410">
<ele>863.6</ele>
<time>2014-05-01T09:18:04Z</time>
<speed>1.2</speed>
</trkpt>
<trkpt lat="47.410122" lon="10.245460">
<ele>864.0</ele>
<time>2014-05-01T09:18:09Z</time>
<speed>0.7</speed>
</trkpt>
<trkpt lat="47.410087" lon="10.245510">
<ele>865.0</ele>
<time>2014-05-01T09:18:14Z</time>
<speed>1.2</speed>
</trkpt>
<trkpt lat="47.410036" lon="10.245568">
<ele>864.6</ele>
<time>2014-05-01T09:18:19Z</time>
<speed>1.1</speed>
</trkpt>
<trkpt lat="47.409966" lon="10.245626">
<ele>865.4</ele>
<time>2014-05-01T09:18:24Z</time>
<speed>1.7</speed>
</trkpt>
<trkpt lat="47.409910" lon="10.245690">
<ele>865.6</ele>
<time>2014-05-01T09:18:29Z</time>
<speed>1.0</speed>
</trkpt>
<trkpt lat="47.409893" lon="10.245783">
<ele>865.8</ele>
<time>2014-05-01T09:18:34Z</time>
<speed>0.6</speed>
</trkpt>
<trkpt lat="47.409851" lon="10.245894">
<ele>867.4</ele>
<time>2014-05-01T09:18:39Z</time>
<speed>1.3</speed>
</trkpt>
<trkpt lat="47.409808" lon="10.246017">
<ele>871.8</ele>
<time>2014-05-01T09:18:44Z</time>
<speed>1.4</speed>
</trkpt>
<trkpt lat="47.409783" lon="10.246124">
<ele>869.2</ele>
<time>2014-05-01T09:18:49Z</time>
<speed>1.2</speed>
</trkpt>
<trkpt lat="47.409799" lon="10.246253">
<ele>872.0</ele>
<time>2014-05-01T09:18:54Z</time>
<speed>1.7</speed>
</trkpt>
<trkpt lat="47.409838" lon="10.246354">
<ele>869.8</ele>
<time>2014-05-01T09:18:59Z</time>
<speed>1.3</speed>
</trkpt>
<trkpt lat="47.409866" lon="10.246443">
<ele>867.6</ele>
<time>2014-05-01T09:19:04Z</time>
<speed>0.9</speed>
</trkpt>
<trkpt lat="47.409836" lon="10.246538">
<ele>869.2</ele>
<time>2014-05-01T09:19:09Z</time>
<speed>1.3</speed>
</trkpt>
<trkpt lat="47.409810" lon="10.246610">
<ele>868.6</ele>
<time>2014-05-01T09:19:14Z</time>
<speed>1.2</speed>
</trkpt>
<trkpt lat="47.409797" lon="10.246739">
<ele>868.2</ele>
<time>2014-05-01T09:19:19Z</time>
<speed>1.3</speed>
</trkpt>
<trkpt lat="47.409805" lon="10.246857">
<ele>869.4</ele>
<time>2014-05-01T09:19:24Z</time>
<speed>1.3</speed>
</trkpt>
<trkpt lat="47.409828" lon="10.246960">
<ele>870.4</ele>
<time>2014-05-01T09:19:29Z</time>
<speed>1.3</speed>
</trkpt>
<trkpt lat="47.409849" lon="10.247072">
<ele>868.0</ele>
<time>2014-05-01T09:19:34Z</time>
<speed>0.8</speed>
</trkpt>
<trkpt lat="47.409881" lon="10.247162">
<ele>868.8</ele>
<time>2014-05-01T09:19:39Z</time>
<speed>1.3</speed>
</trkpt>
<trkpt lat="47.409906" lon="10.247272">
<ele>870.0</ele>
<time>2014-05-01T09:19:44Z</time>
<speed>2.0</speed>
</trkpt>
<trkpt lat="47.409932" lon="10.247395">
<ele>869.4</ele>
<time>2014-05-01T09:19:49Z</time>
<speed>1.3</speed>
</trkpt>
<trkpt lat="47.409953" lon="10.247534">
<ele>870.8</ele>
<time>2014-05-01T09:19:54Z</time>
<speed>1.4</speed>
</trkpt>
<trkpt lat="47.410032" lon="10.247609">
<ele>872.6</ele>
<time>2014-05-01T09:19:59Z</time>
<speed>1.5</speed>
</trkpt>
<trkpt lat="47.410096" lon="10.247730">
<ele>874.4</ele>
<time>2014-05-01T09:20:04Z</time>
<speed>2.0</speed>
</trkpt>
<trkpt lat="47.410216" lon="10.247884">
<ele>873.8</ele>
<time>2014-05-01T09:20:09Z</time>
<speed>3.4</speed>
</trkpt>
<trkpt lat="47.410223" lon="10.248149">
<ele>875.0</ele>
<time>2014-05-01T09:20:14Z</time>
<speed>4.3</speed>
</trkpt>
<trkpt lat="47.410191" lon="10.248449">
<ele>871.2</ele>
<time>2014-05-01T09:20:19Z</time>
<speed>4.3</speed>
</trkpt>
<trkpt lat="47.410165" lon="10.248747">
<ele>873.2</ele>
<time>2014-05-01T09:20:24Z</time>
<speed>3.9</speed>
</trkpt>
<trkpt lat="47.410129" lon="10.248964">
<ele>873.8</ele>
<time>2014-05-01T09:20:29Z</time>
<speed>3.5</speed>
</trkpt>
<trkpt lat="47.410044" lon="10.249271">
<ele>870.8</ele>
<time>2014-05-01T09:20:34Z</time>
<speed>5.2</speed>
</trkpt>
<trkpt lat="47.410024" lon="10.249749">
<ele>873.6</ele>
<time>2014-05-01T09:20:39Z</time>
<speed>5.5</speed>
</trkpt>
<trkpt lat="47.410072" lon="10.250018">
<ele>875.0</ele>
<time>2014-05-01T09:20:44Z</time>
<speed>3.9</speed>
</trkpt>
<trkpt lat="47.410036" lon="10.250217">
<ele>872.2</ele>
<time>2014-05-01T09:20:49Z</time>
<speed>3.0</speed>
</trkpt>
<trkpt lat="47.409963" lon="10.250366">
<ele>875.0</ele>
<time>2014-05-01T09:20:54Z</time>
<speed>2.9</speed>
</trkpt>
<trkpt lat="47.409902" lon="10.250528">
<ele>879.0</ele>
<time>2014-05-01T09:20:59Z</time>
<speed>2.9</speed>
</trkpt>
<trkpt lat="47.409876" lon="10.250741">
<ele>875.0</ele>
<time>2014-05-01T09:21:04Z</time>
<speed>3.0</speed>
</trkpt>
<trkpt lat="47.409855" lon="10.250969">
<ele>878.2</ele>
<time>2014-05-01T09:21:09Z</time>
<speed>3.2</speed>
</trkpt>
<trkpt lat="47.409845" lon="10.251204">
<ele>878.6</ele>
<time>2014-05-01T09:21:14Z</time>
<speed>3.8</speed>
</trkpt>
<trkpt lat="47.409835" lon="10.251475">
<ele>879.8</ele>
<time>2014-05-01T09:21:19Z</time>
<speed>4.2</speed>
</trkpt>
<trkpt lat="47.409837" lon="10.251786">
<ele>880.0</ele>
<time>2014-05-01T09:21:24Z</time>
<speed>5.1</speed>
</trkpt>
<trkpt lat="47.409844" lon="10.252130">
<ele>880.2</ele>
<time>2014-05-01T09:21:29Z</time>
<speed>5.1</speed>
</trkpt>
<trkpt lat="47.409915" lon="10.252449">
<ele>880.8</ele>
<time>2014-05-01T09:21:34Z</time>
<speed>5.3</speed>
</trkpt>
<trkpt lat="47.410116" lon="10.252672">
<ele>879.6</ele>
<time>2014-05-01T09:21:39Z</time>
<speed>5.2</speed>
</trkpt>
<trkpt lat="47.410335" lon="10.252861">
<ele>881.2</ele>
<time>2014-05-01T09:21:44Z</time>
<speed>5.3</speed>
</trkpt>
<trkpt lat="47.410542" lon="10.253086">
<ele>883.6</ele>
<time>2014-05-01T09:21:49Z</time>
<speed>6.0</speed>
</trkpt>
<trkpt lat="47.410492" lon="10.253391">
<ele>884.2</ele>
<time>2014-05-01T09:21:54Z</time>
<speed>4.6</speed>
</trkpt>
<trkpt lat="47.410374" lon="10.253562">
<ele>885.2</ele>
<time>2014-05-01T09:21:59Z</time>
<speed>3.2</speed>
</trkpt>
<trkpt lat="47.410280" lon="10.253741">
<ele>885.2</ele>
<time>2014-05-01T09:22:04Z</time>
<speed>3.2</speed>
</trkpt>
<trkpt lat="47.410187" lon="10.253900">
<ele>887.4</ele>
<time>2014-05-01T09:22:09Z</time>
<speed>2.7</speed>
</trkpt>
<trkpt lat="47.410094" lon="10.254067">
<ele>888.0</ele>
<time>2014-05-01T09:22:14Z</time>
<speed>2.5</speed>
</trkpt>
<trkpt lat="47.410210" lon="10.254260">
<ele>886.4</ele>
<time>2014-05-01T09:22:19Z</time>
<speed>3.3</speed>
</trkpt>
<trkpt lat="47.410356" lon="10.254404">
<ele>888.0</ele>
<time>2014-05-01T09:22:24Z</time>
<speed>3.6</speed>
</trkpt>
<trkpt lat="47.410478" lon="10.254570">
<ele>894.0</ele>
<time>2014-05-01T09:22:29Z</time>
<speed>3.7</speed>
</trkpt>
<trkpt lat="47.410627" lon="10.254782">
<ele>892.6</ele>
<time>2014-05-01T09:22:35Z</time>
<speed>3.9</speed>
</trkpt>
<trkpt lat="47.410773" lon="10.254988">
<ele>892.6</ele>
<time>2014-05-01T09:22:40Z</time>
<speed>4.9</speed>
</trkpt>
<trkpt lat="47.410927" lon="10.255276">
<ele>893.6</ele>
<time>2014-05-01T09:22:45Z</time>
<speed>5.9</speed>
</trkpt>
<trkpt lat="47.411069" lon="10.255690">
<ele>893.0</ele>
<time>2014-05-01T09:22:50Z</time>
<speed>7.6</speed>
</trkpt>
<trkpt lat="47.411230" lon="10.256181">
<ele>892.4</ele>
<time>2014-05-01T09:22:55Z</time>
<speed>8.3</speed>
</trkpt>
<trkpt lat="47.411411" lon="10.256667">
<ele>891.2</ele>
<time>2014-05-01T09:23:00Z</time>
<speed>7.9</speed>
</trkpt>
<trkpt lat="47.411649" lon="10.257015">
<ele>889.6</ele>
<time>2014-05-01T09:23:05Z</time>
<speed>7.7</speed>
</trkpt>
<trkpt lat="47.412002" lon="10.257262">
<ele>884.6</ele>
<time>2014-05-01T09:23:10Z</time>
<speed>8.6</speed>
</trkpt>
<trkpt lat="47.412398" lon="10.257213">
<ele>883.4</ele>
<time>2014-05-01T09:23:15Z</time>
<speed>9.7</speed>
</trkpt>
<trkpt lat="47.412884" lon="10.257325">
<ele>878.6</ele>
<time>2014-05-01T09:23:20Z</time>
<speed>11.8</speed>
</trkpt>
<trkpt lat="47.413376" lon="10.257690">
<ele>876.0</ele>
<time>2014-05-01T09:23:25Z</time>
<speed>11.4</speed>
</trkpt>
<trkpt lat="47.413780" lon="10.258088">
<ele>874.4</ele>
<time>2014-05-01T09:23:30Z</time>
<speed>10.2</speed>
</trkpt>
<trkpt lat="47.414050" lon="10.258495">
<ele>870.8</ele>
<time>2014-05-01T09:23:35Z</time>
<speed>5.7</speed>
</trkpt>
<trkpt lat="47.414217" lon="10.258683">
<ele>867.6</ele>
<time>2014-05-01T09:23:40Z</time>
<speed>3.1</speed>
</trkpt>
<trkpt lat="47.414310" lon="10.258453">
<ele>871.0</ele>
<time>2014-05-01T09:23:45Z</time>
<speed>3.7</speed>
</trkpt>
<trkpt lat="47.414452" lon="10.258225">
<ele>871.2</ele>
<time>2014-05-01T09:23:50Z</time>
<speed>5.4</speed>
</trkpt>
<trkpt lat="47.414577" lon="10.257900">
<ele>869.8</ele>
<time>2014-05-01T09:23:55Z</time>
<speed>5.8</speed>
</trkpt>
<trkpt lat="47.414766" lon="10.257626">
<ele>869.4</ele>
<time>2014-05-01T09:24:00Z</time>
<speed>6.5</speed>
</trkpt>
<trkpt lat="47.415004" lon="10.257513">
<ele>872.6</ele>
<time>2014-05-01T09:24:05Z</time>
<speed>4.7</speed>
</trkpt>
<trkpt lat="47.415100" lon="10.257129">
<ele>868.8</ele>
<time>2014-05-01T09:24:10Z</time>
<speed>5.7</speed>
</trkpt>
<trkpt lat="47.415264" lon="10.257058">
<ele>865.4</ele>
<time>2014-05-01T09:24:15Z</time>
<speed>4.0</speed>
</trkpt>
<trkpt lat="47.415409" lon="10.257209">
<ele>867.0</ele>
<time>2014-05-01T09:24:20Z</time>
<speed>3.5</speed>
</trkpt>
<trkpt lat="47.415471" lon="10.257286">
<ele>868.8</ele>
<time>2014-05-01T09:24:33Z</time>
<speed>0.3</speed>
</trkpt>
<trkpt lat="47.415493" lon="10.257247">
<ele>870.6</ele>
<time>2014-05-01T09:24:38Z</time>
<speed>1.7</speed>
</trkpt>
<trkpt lat="47.415441" lon="10.257225">
<ele>866.6</ele>
<time>2014-05-01T09:24:43Z</time>
<speed>1.9</speed>
</trkpt>
<trkpt lat="47.415511" lon="10.257344">
<ele>869.6</ele>
<time>2014-05-01T09:24:48Z</time>
<speed>2.3</speed>
</trkpt>
<trkpt lat="47.415505" lon="10.257488">
<ele>873.0</ele>
<time>2014-05-01T09:24:53Z</time>
<speed>2.0</speed>
</trkpt>
<trkpt lat="47.415570" lon="10.257463">
<ele>870.8</ele>
<time>2014-05-01T09:24:58Z</time>
<speed>3.7</speed>
</trkpt>
<trkpt lat="47.415726" lon="10.257252">
<ele>870.8</ele>
<time>2014-05-01T09:25:03Z</time>
<speed>5.0</speed>
</trkpt>
<trkpt lat="47.415978" lon="10.257184">
<ele>871.8</ele>
<time>2014-05-01T09:25:08Z</time>
<speed>5.5</speed>
</trkpt>
<trkpt lat="47.416231" lon="10.257192">
<ele>870.8</ele>
<time>2014-05-01T09:25:13Z</time>
<speed>5.8</speed>
</trkpt>
<trkpt lat="47.416512" lon="10.257245">
<ele>868.4</ele>
<time>2014-05-01T09:25:18Z</time>
<speed>6.3</speed>
</trkpt>
<trkpt lat="47.416781" lon="10.257354">
<ele>869.2</ele>
<time>2014-05-01T09:25:23Z</time>
<speed>5.3</speed>
</trkpt>
<trkpt lat="47.416992" lon="10.257489">
<ele>868.6</ele>
<time>2014-05-01T09:25:28Z</time>
<speed>4.7</speed>
</trkpt>
<trkpt lat="47.417178" lon="10.257633">
<ele>867.4</ele>
<time>2014-05-01T09:25:33Z</time>
<speed>4.7</speed>
</trkpt>
<trkpt lat="47.417393" lon="10.257794">
<ele>867.0</ele>
<time>2014-05-01T09:25:38Z</time>
<speed>4.8</speed>
</trkpt>
<trkpt lat="47.417605" lon="10.258000">
<ele>862.8</ele>
<time>2014-05-01T09:25:43Z</time>
<speed>6.3</speed>
</trkpt>
<trkpt lat="47.417825" lon="10.258248">
<ele>862.8</ele>
<time>2014-05-01T09:25:48Z</time>
<speed>5.2</speed>
</trkpt>
<trkpt lat="47.418005" lon="10.258341">
<ele>863.6</ele>
<time>2014-05-01T09:25:53Z</time>
<speed>2.5</speed>
</trkpt>
<trkpt lat="47.418113" lon="10.258385">
<ele>862.0</ele>
<time>2014-05-01T09:25:58Z</time>
<speed>2.6</speed>
</trkpt>
<trkpt lat="47.418220" lon="10.258421">
<ele>865.4</ele>
<time>2014-05-01T09:26:03Z</time>
<speed>2.4</speed>
</trkpt>
<trkpt lat="47.418325" lon="10.258440">
<ele>864.4</ele>
<time>2014-05-01T09:26:08Z</time>
<speed>2.5</speed>
</trkpt>
<trkpt lat="47.418428" lon="10.258474">
<ele>866.6</ele>
<time>2014-05-01T09:26:13Z</time>
<speed>2.3</speed>
</trkpt>
<trkpt lat="47.418541" lon="10.258523">
<ele>866.8</ele>
<time>2014-05-01T09:26:18Z</time>
<speed>2.2</speed>
</trkpt>
<trkpt lat="47.418643" lon="10.258529">
<ele>867.8</ele>
<time>2014-05-01T09:26:23Z</time>
<speed>2.0</speed>
</trkpt>
<trkpt lat="47.418755" lon="10.258520">
<ele>870.4</ele>
<time>2014-05-01T09:26:28Z</time>
<speed>2.2</speed>
</trkpt>
<trkpt lat="47.418862" lon="10.258583">
<ele>870.6</ele>
<time>2014-05-01T09:26:33Z</time>
<speed>2.5</speed>
</trkpt>
<trkpt lat="47.418969" lon="10.258670">
<ele>870.4</ele>
<time>2014-05-01T09:26:38Z</time>
<speed>2.5</speed>
</trkpt>
<trkpt lat="47.419094" lon="10.258714">
<ele>868.6</ele>
<time>2014-05-01T09:26:43Z</time>
<speed>2.7</speed>
</trkpt>
<trkpt lat="47.419217" lon="10.258751">
<ele>868.6</ele>
<time>2014-05-01T09:26:48Z</time>
<speed>2.4</speed>
</trkpt>
<trkpt lat="47.419343" lon="10.258747">
<ele>869.6</ele>
<time>2014-05-01T09:26:53Z</time>
<speed>2.6</speed>
</trkpt>
<trkpt lat="47.419476" lon="10.258718">
<ele>871.4</ele>
<time>2014-05-01T09:26:58Z</time>
<speed>2.9</speed>
</trkpt>
<trkpt lat="47.419538" lon="10.258714">
<ele>867.6</ele>
<time>2014-05-01T09:27:06Z</time>
<speed>0.3</speed>
</trkpt>
<trkpt lat="47.419540" lon="10.258730">
<ele>868.2</ele>
<time>2014-05-01T09:27:11Z</time>
<speed>0.5</speed>
</trkpt>
<trkpt lat="47.419555" lon="10.258750">
<ele>869.0</ele>
<time>2014-05-01T09:27:16Z</time>
<speed>0.6</speed>
</trkpt>
<trkpt lat="47.419569" lon="10.258779">
<ele>868.0</ele>
<time>2014-05-01T09:27:28Z</time>
<speed>0.9</speed>
</trkpt>
<trkpt lat="47.419656" lon="10.258717">
<ele>866.6</ele>
<time>2014-05-01T09:27:33Z</time>
<speed>2.4</speed>
</trkpt>
<trkpt lat="47.419806" lon="10.258799">
<ele>868.0</ele>
<time>2014-05-01T09:27:39Z</time>
<speed>2.7</speed>
</trkpt>
<trkpt lat="47.419946" lon="10.258934">
<ele>862.8</ele>
<time>2014-05-01T09:27:44Z</time>
<speed>3.2</speed>
</trkpt>
<trkpt lat="47.420102" lon="10.259012">
<ele>862.8</ele>
<time>2014-05-01T09:27:49Z</time>
<speed>3.2</speed>
</trkpt>
<trkpt lat="47.420253" lon="10.259071">
<ele>862.4</ele>
<time>2014-05-01T09:27:54Z</time>
<speed>1.3</speed>
</trkpt>
<trkpt lat="47.420328" lon="10.259155">
<ele>860.0</ele>
<time>2014-05-01T09:27:59Z</time>
<speed>1.5</speed>
</trkpt>
<trkpt lat="47.420428" lon="10.259213">
<ele>860.8</ele>
<time>2014-05-01T09:28:04Z</time>
<speed>0.7</speed>
</trkpt>
<trkpt lat="47.420508" lon="10.259288">
<ele>858.8</ele>
<time>2014-05-01T09:28:09Z</time>
<speed>1.1</speed>
</trkpt>
<trkpt lat="47.420622" lon="10.259396">
<ele>860.2</ele>
<time>2014-05-01T09:28:14Z</time>
<speed>2.0</speed>
</trkpt>
<trkpt lat="47.420749" lon="10.259450">
<ele>859.2</ele>
<time>2014-05-01T09:28:19Z</time>
<speed>1.8</speed>
</trkpt>
<trkpt lat="47.420881" lon="10.259536">
<ele>857.4</ele>
<time>2014-05-01T09:28:24Z</time>
<speed>1.9</speed>
</trkpt>
<trkpt lat="47.420996" lon="10.259551">
<ele>857.0</ele>
<time>2014-05-01T09:28:29Z</time>
<speed>1.4</speed>
</trkpt>
<trkpt lat="47.421143" lon="10.259616">
<ele>853.6</ele>
<time>2014-05-01T09:28:34Z</time>
<speed>1.6</speed>
</trkpt>
<trkpt lat="47.421235" lon="10.259669">
<ele>852.0</ele>
<time>2014-05-01T09:28:39Z</time>
<speed>1.7</speed>
</trkpt>
<trkpt lat="47.421352" lon="10.259709">
<ele>850.4</ele>
<time>2014-05-01T09:28:44Z</time>
<speed>2.2</speed>
</trkpt>
<trkpt lat="47.421541" lon="10.259854">
<ele>849.2</ele>
<time>2014-05-01T09:28:49Z</time>
<speed>4.5</speed>
</trkpt>
<trkpt lat="47.421738" lon="10.260077">
<ele>846.0</ele>
<time>2014-05-01T09:28:54Z</time>
<speed>4.2</speed>
</trkpt>
<trkpt lat="47.421942" lon="10.260316">
<ele>839.8</ele>
<time>2014-05-01T09:28:59Z</time>
<speed>4.4</speed>
</trkpt>
<trkpt lat="47.422326" lon="10.260492">
<ele>841.6</ele>
<time>2014-05-01T09:29:04Z</time>
<speed>7.0</speed>
</trkpt>
<trkpt lat="47.422478" lon="10.260541">
<ele>841.4</ele>
<time>2014-05-01T09:29:09Z</time>
<speed>2.1</speed>
</trkpt>
<trkpt lat="47.422638" lon="10.260625">
<ele>839.2</ele>
<time>2014-05-01T09:29:14Z</time>
<speed>2.9</speed>
</trkpt>
<trkpt lat="47.422790" lon="10.260722">
<ele>837.4</ele>
<time>2014-05-01T09:29:19Z</time>
<speed>2.4</speed>
</trkpt>
<trkpt lat="47.423024" lon="10.260856">
<ele>836.4</ele>
<time>2014-05-01T09:29:24Z</time>
<speed>3.9</speed>
</trkpt>
<trkpt lat="47.423200" lon="10.261166">
<ele>832.0</ele>
<time>2014-05-01T09:29:29Z</time>
<speed>4.9</speed>
</trkpt>
<trkpt lat="47.423336" lon="10.261374">
<ele>834.0</ele>
<time>2014-05-01T09:29:34Z</time>
<speed>3.8</speed>
</trkpt>
<trkpt lat="47.423445" lon="10.261672">
<ele>835.4</ele>
<time>2014-05-01T09:29:39Z</time>
<speed>3.4</speed>
</trkpt>
<trkpt lat="47.423524" lon="10.261934">
<ele>837.8</ele>
<time>2014-05-01T09:29:44Z</time>
<speed>3.0</speed>
</trkpt>
<trkpt lat="47.423591" lon="10.262256">
<ele>834.8</ele>
<time>2014-05-01T09:29:49Z</time>
<speed>3.4</speed>
</trkpt>
<trkpt lat="47.423601" lon="10.262641">
<ele>832.6</ele>
<time>2014-05-01T09:29:54Z</time>
<speed>3.2</speed>
</trkpt>
<trkpt lat="47.423626" lon="10.262966">
<ele>827.6</ele>
<time>2014-05-01T09:29:59Z</time>
<speed>3.3</speed>
</trkpt>
<trkpt lat="47.423686" lon="10.263194">
<ele>826.8</ele>
<time>2014-05-01T09:30:04Z</time>
<speed>4.3</speed>
</trkpt>
<trkpt lat="47.423835" lon="10.263433">
<ele>823.8</ele>
<time>2014-05-01T09:30:09Z</time>
<speed>4.3</speed>
</trkpt>
<trkpt lat="47.423934" lon="10.263685">
<ele>821.6</ele>
<time>2014-05-01T09:30:14Z</time>
<speed>4.9</speed>
</trkpt>
<trkpt lat="47.423996" lon="10.264007">
<ele>819.2</ele>
<time>2014-05-01T09:30:19Z</time>
<speed>5.1</speed>
</trkpt>
<trkpt lat="47.424057" lon="10.264327">
<ele>817.0</ele>
<time>2014-05-01T09:30:24Z</time>
<speed>4.7</speed>
</trkpt>
<trkpt lat="47.424176" lon="10.264561">
<ele>814.0</ele>
<time>2014-05-01T09:30:29Z</time>
<speed>3.5</speed>
</trkpt>
<trkpt lat="47.424220" lon="10.264826">
<ele>810.6</ele>
<time>2014-05-01T09:30:34Z</time>
<speed>4.1</speed>
</trkpt>
<trkpt lat="47.424260" lon="10.265123">
<ele>807.2</ele>
<time>2014-05-01T09:30:39Z</time>
<speed>4.0</speed>
</trkpt>
<trkpt lat="47.424294" lon="10.265472">
<ele>806.6</ele>
<time>2014-05-01T09:30:44Z</time>
<speed>5.8</speed>
</trkpt>
<trkpt lat="47.424326" lon="10.265838">
<ele>808.2</ele>
<time>2014-05-01T09:30:49Z</time>
<speed>4.0</speed>
</trkpt>
<trkpt lat="47.424463" lon="10.266057">
<ele>807.2</ele>
<time>2014-05-01T09:30:54Z</time>
<speed>4.3</speed>
</trkpt>
<trkpt lat="47.424611" lon="10.266270">
<ele>804.2</ele>
<time>2014-05-01T09:30:59Z</time>
<speed>4.7</speed>
</trkpt>
<trkpt lat="47.424818" lon="10.266481">
<ele>801.4</ele>
<time>2014-05-01T09:31:04Z</time>
<speed>4.9</speed>
</trkpt>
<trkpt lat="47.424905" lon="10.266662">
<ele>798.2</ele>
<time>2014-05-01T09:31:09Z</time>
<speed>3.9</speed>
</trkpt>
<trkpt lat="47.425008" lon="10.266924">
<ele>794.2</ele>
<time>2014-05-01T09:31:14Z</time>
<speed>3.9</speed>
</trkpt>
<trkpt lat="47.425031" lon="10.267149">
<ele>793.4</ele>
<time>2014-05-01T09:31:19Z</time>
<speed>3.4</speed>
</trkpt>
<trkpt lat="47.424933" lon="10.267305">
<ele>795.2</ele>
<time>2014-05-01T09:31:24Z</time>
<speed>2.3</speed>
</trkpt>
<trkpt lat="47.424737" lon="10.267379">
<ele>794.6</ele>
<time>2014-05-01T09:31:29Z</time>
<speed>5.8</speed>
</trkpt>
<trkpt lat="47.424478" lon="10.267538">
<ele>791.2</ele>
<time>2014-05-01T09:31:34Z</time>
<speed>6.4</speed>
</trkpt>
<trkpt lat="47.424209" lon="10.267514">
<ele>791.8</ele>
<time>2014-05-01T09:31:39Z</time>
<speed>5.7</speed>
</trkpt>
<trkpt lat="47.424071" lon="10.267884">
<ele>789.2</ele>
<time>2014-05-01T09:31:44Z</time>
<speed>6.5</speed>
</trkpt>
<trkpt lat="47.423907" lon="10.268280">
<ele>790.2</ele>
<time>2014-05-01T09:31:49Z</time>
<speed>7.1</speed>
</trkpt>
<trkpt lat="47.423641" lon="10.268621">
<ele>786.8</ele>
<time>2014-05-01T09:31:54Z</time>
<speed>7.5</speed>
</trkpt>
<trkpt lat="47.423341" lon="10.268901">
<ele>788.2</ele>
<time>2014-05-01T09:31:59Z</time>
<speed>7.7</speed>
</trkpt>
<trkpt lat="47.423072" lon="10.269113">
<ele>790.0</ele>
<time>2014-05-01T09:32:04Z</time>
<speed>5.7</speed>
</trkpt>
<trkpt lat="47.422823" lon="10.269080">
<ele>790.0</ele>
<time>2014-05-01T09:32:09Z</time>
<speed>6.1</speed>
</trkpt>
<trkpt lat="47.422579" lon="10.268841">
<ele>787.8</ele>
<time>2014-05-01T09:32:14Z</time>
<speed>6.5</speed>
</trkpt>
<trkpt lat="47.422337" lon="10.268589">
<ele>787.6</ele>
<time>2014-05-01T09:32:19Z</time>
<speed>6.4</speed>
</trkpt>
<trkpt lat="47.422043" lon="10.268526">
<ele>790.0</ele>
<time>2014-05-01T09:32:24Z</time>
<speed>6.7</speed>
</trkpt>
<trkpt lat="47.421756" lon="10.268354">
<ele>785.8</ele>
<time>2014-05-01T09:32:29Z</time>
<speed>7.0</speed>
</trkpt>
<trkpt lat="47.421527" lon="10.268053">
<ele>786.0</ele>
<time>2014-05-01T09:32:34Z</time>
<speed>6.5</speed>
</trkpt>
<trkpt lat="47.421275" lon="10.267798">
<ele>786.2</ele>
<time>2014-05-01T09:32:39Z</time>
<speed>6.8</speed>
</trkpt>
<trkpt lat="47.420984" lon="10.267608">
<ele>783.6</ele>
<time>2014-05-01T09:32:44Z</time>
<speed>7.2</speed>
</trkpt>
<trkpt lat="47.420673" lon="10.267475">
<ele>785.6</ele>
<time>2014-05-01T09:32:49Z</time>
<speed>6.8</speed>
</trkpt>
<trkpt lat="47.420396" lon="10.267555">
<ele>787.0</ele>
<time>2014-05-01T09:32:54Z</time>
<speed>5.7</speed>
</trkpt>
<trkpt lat="47.420326" lon="10.267871">
<ele>785.2</ele>
<time>2014-05-01T09:32:59Z</time>
<speed>4.8</speed>
</trkpt>
<trkpt lat="47.420266" lon="10.268174">
<ele>785.0</ele>
<time>2014-05-01T09:33:04Z</time>
<speed>3.7</speed>
</trkpt>
<trkpt lat="47.420042" lon="10.268255">
<ele>787.6</ele>
<time>2014-05-01T09:33:09Z</time>
<speed>5.2</speed>
</trkpt>
<trkpt lat="47.419814" lon="10.268420">
<ele>785.2</ele>
<time>2014-05-01T09:33:14Z</time>
<speed>5.5</speed>
</trkpt>
<trkpt lat="47.419575" lon="10.268469">
<ele>788.0</ele>
<time>2014-05-01T09:33:19Z</time>
<speed>3.4</speed>
</trkpt>
<trkpt lat="47.419406" lon="10.268450">
<ele>790.4</ele>
<time>2014-05-01T09:33:24Z</time>
<speed>2.1</speed>
</trkpt>
<trkpt lat="47.419283" lon="10.268453">
<ele>792.4</ele>
<time>2014-05-01T09:33:29Z</time>
<speed>2.1</speed>
</trkpt>
<trkpt lat="47.419162" lon="10.268429">
<ele>794.6</ele>
<time>2014-05-01T09:33:34Z</time>
<speed>2.4</speed>
</trkpt>
<trkpt lat="47.419060" lon="10.268385">
<ele>792.8</ele>
<time>2014-05-01T09:33:39Z</time>
<speed>2.5</speed>
</trkpt>
<trkpt lat="47.418963" lon="10.268374">
<ele>793.4</ele>
<time>2014-05-01T09:33:44Z</time>
<speed>2.4</speed>
</trkpt>
<trkpt lat="47.418820" lon="10.268350">
<ele>793.6</ele>
<time>2014-05-01T09:33:49Z</time>
<speed>3.9</speed>
</trkpt>
<trkpt lat="47.418507" lon="10.268522">
<ele>792.0</ele>
<time>2014-05-01T09:33:54Z</time>
<speed>6.4</speed>
</trkpt>
<trkpt lat="47.418266" lon="10.268705">
<ele>793.0</ele>
<time>2014-05-01T09:33:59Z</time>
<speed>3.6</speed>
</trkpt>
<trkpt lat="47.418127" lon="10.268787">
<ele>794.6</ele>
<time>2014-05-01T09:34:04Z</time>
<speed>1.8</speed>
</trkpt>
<trkpt lat="47.418028" lon="10.268852">
<ele>794.8</ele>
<time>2014-05-01T09:34:09Z</time>
<speed>2.6</speed>
</trkpt>
<trkpt lat="47.417862" lon="10.269007">
<ele>793.4</ele>
<time>2014-05-01T09:34:14Z</time>
<speed>6.6</speed>
</trkpt>
<trkpt lat="47.417672" lon="10.269244">
<ele>793.0</ele>
<time>2014-05-01T09:34:19Z</time>
<speed>3.3</speed>
</trkpt>
<trkpt lat="47.417559" lon="10.269316">
<ele>794.0</ele>
<time>2014-05-01T09:34:24Z</time>
<speed>2.5</speed>
</trkpt>
<trkpt lat="47.417404" lon="10.269360">
<ele>795.6</ele>
<time>2014-05-01T09:34:29Z</time>
<speed>3.6</speed>
</trkpt>
<trkpt lat="47.417240" lon="10.269382">
<ele>795.2</ele>
<time>2014-05-01T09:34:34Z</time>
<speed>2.9</speed>
</trkpt>
<trkpt lat="47.417178" lon="10.269053">
<ele>796.0</ele>
<time>2014-05-01T09:34:39Z</time>
<speed>5.9</speed>
</trkpt>
<trkpt lat="47.417016" lon="10.268680">
<ele>795.0</ele>
<time>2014-05-01T09:34:44Z</time>
<speed>6.2</speed>
</trkpt>
<trkpt lat="47.416757" lon="10.268402">
<ele>798.6</ele>
<time>2014-05-01T09:34:49Z</time>
<speed>6.7</speed>
</trkpt>
<trkpt lat="47.416516" lon="10.268034">
<ele>797.2</ele>
<time>2014-05-01T09:34:54Z</time>
<speed>7.0</speed>
</trkpt>
<trkpt lat="47.416377" lon="10.267679">
<ele>797.0</ele>
<time>2014-05-01T09:34:59Z</time>
<speed>5.8</speed>
</trkpt>
<trkpt lat="47.416326" lon="10.267349">
<ele>800.0</ele>
<time>2014-05-01T09:35:04Z</time>
<speed>4.3</speed>
</trkpt>
<trkpt lat="47.416336" lon="10.267074">
<ele>802.0</ele>
<time>2014-05-01T09:35:09Z</time>
<speed>3.2</speed>
</trkpt>
<trkpt lat="47.416261" lon="10.266847">
<ele>802.8</ele>
<time>2014-05-01T09:35:14Z</time>
<speed>4.3</speed>
</trkpt>
<trkpt lat="47.416316" lon="10.266538">
<ele>800.6</ele>
<time>2014-05-01T09:35:19Z</time>
<speed>5.2</speed>
</trkpt>
<trkpt lat="47.416344" lon="10.266195">
<ele>799.2</ele>
<time>2014-05-01T09:35:24Z</time>
<speed>5.1</speed>
</trkpt>
<trkpt lat="47.416334" lon="10.265835">
<ele>799.2</ele>
<time>2014-05-01T09:35:29Z</time>
<speed>4.9</speed>
</trkpt>
<trkpt lat="47.416443" lon="10.265561">
<ele>800.0</ele>
<time>2014-05-01T09:35:34Z</time>
<speed>4.8</speed>
</trkpt>
<trkpt lat="47.416559" lon="10.265304">
<ele>800.2</ele>
<time>2014-05-01T09:35:39Z</time>
<speed>4.5</speed>
</trkpt>
<trkpt lat="47.416663" lon="10.265045">
<ele>804.2</ele>
<time>2014-05-01T09:35:44Z</time>
<speed>4.3</speed>
</trkpt>
<trkpt lat="47.416768" lon="10.264772">
<ele>804.0</ele>
<time>2014-05-01T09:35:49Z</time>
<speed>4.1</speed>
</trkpt>
<trkpt lat="47.416771" lon="10.264513">
<ele>802.0</ele>
<time>2014-05-01T09:35:54Z</time>
<speed>3.1</speed>
</trkpt>
<trkpt lat="47.416685" lon="10.264294">
<ele>804.4</ele>
<time>2014-05-01T09:35:59Z</time>
<speed>3.3</speed>
</trkpt>
<trkpt lat="47.416498" lon="10.264142">
<ele>805.2</ele>
<time>2014-05-01T09:36:04Z</time>
<speed>3.4</speed>
</trkpt>
<trkpt lat="47.416317" lon="10.264072">
<ele>809.2</ele>
<time>2014-05-01T09:36:09Z</time>
<speed>3.5</speed>
</trkpt>
<trkpt lat="47.416166" lon="10.264009">
<ele>807.2</ele>
<time>2014-05-01T09:36:14Z</time>
<speed>3.4</speed>
</trkpt>
<trkpt lat="47.415997" lon="10.263989">
<ele>810.4</ele>
<time>2014-05-01T09:36:19Z</time>
<speed>4.0</speed>
</trkpt>
<trkpt lat="47.415809" lon="10.263933">
<ele>810.6</ele>
<time>2014-05-01T09:36:24Z</time>
<speed>4.1</speed>
</trkpt>
<trkpt lat="47.415631" lon="10.263873">
<ele>809.8</ele>
<time>2014-05-01T09:36:29Z</time>
<speed>4.2</speed>
</trkpt>
<trkpt lat="47.415444" lon="10.263763">
<ele>813.0</ele>
<time>2014-05-01T09:36:34Z</time>
<speed>4.6</speed>
</trkpt>
<trkpt lat="47.415251" lon="10.263630">
<ele>813.0</ele>
<time>2014-05-01T09:36:39Z</time>
<speed>4.8</speed>
</trkpt>
<trkpt lat="47.415058" lon="10.263505">
<ele>812.6</ele>
<time>2014-05-01T09:36:44Z</time>
<speed>4.8</speed>
</trkpt>
<trkpt lat="47.414854" lon="10.263382">
<ele>812.2</ele>
<time>2014-05-01T09:36:49Z</time>
<speed>4.8</speed>
</trkpt>
<trkpt lat="47.414664" lon="10.263271">
<ele>813.6</ele>
<time>2014-05-01T09:36:54Z</time>
<speed>4.4</speed>
</trkpt>
<trkpt lat="47.414480" lon="10.263123">
<ele>814.0</ele>
<time>2014-05-01T09:36:59Z</time>
<speed>4.7</speed>
</trkpt>
<trkpt lat="47.414296" lon="10.262964">
<ele>812.0</ele>
<time>2014-05-01T09:37:04Z</time>
<speed>4.5</speed>
</trkpt>
<trkpt lat="47.414101" lon="10.262857">
<ele>812.4</ele>
<time>2014-05-01T09:37:09Z</time>
<speed>4.6</speed>
</trkpt>
<trkpt lat="47.413923" lon="10.262799">
<ele>815.6</ele>
<time>2014-05-01T09:37:14Z</time>
<speed>2.9</speed>
</trkpt>
<trkpt lat="47.413844" lon="10.262742">
<ele>815.6</ele>
<time>2014-05-01T09:37:20Z</time>
<speed>1.3</speed>
</trkpt>
<trkpt lat="47.413707" lon="10.262680">
<ele>817.2</ele>
<time>2014-05-01T09:37:25Z</time>
<speed>5.3</speed>
</trkpt>
<trkpt lat="47.413400" lon="10.262705">
<ele>813.4</ele>
<time>2014-05-01T09:37:30Z</time>
<speed>8.0</speed>
</trkpt>
<trkpt lat="47.412990" lon="10.262800">
<ele>809.8</ele>
<time>2014-05-01T09:37:35Z</time>
<speed>10.2</speed>
</trkpt>
<trkpt lat="47.412498" lon="10.263017">
<ele>807.6</ele>
<time>2014-05-01T09:37:40Z</time>
<speed>11.8</speed>
</trkpt>
<trkpt lat="47.412039" lon="10.263426">
<ele>800.8</ele>
<time>2014-05-01T09:37:45Z</time>
<speed>11.4</speed>
</trkpt>
<trkpt lat="47.411817" lon="10.264197">
<ele>801.4</ele>
<time>2014-05-01T09:37:50Z</time>
<speed>11.7</speed>
</trkpt>
<trkpt lat="47.411795" lon="10.264876">
<ele>799.4</ele>
<time>2014-05-01T09:37:55Z</time>
<speed>7.3</speed>
</trkpt>
<trkpt lat="47.411707" lon="10.265053">
<ele>796.4</ele>
<time>2014-05-01T09:38:00Z</time>
<speed>3.7</speed>
</trkpt>
<trkpt lat="47.411486" lon="10.264944">
<ele>794.0</ele>
<time>2014-05-01T09:38:05Z</time>
<speed>6.6</speed>
</trkpt>
<trkpt lat="47.411332" lon="10.264572">
<ele>796.0</ele>
<time>2014-05-01T09:38:10Z</time>
<speed>6.6</speed>
</trkpt>
<trkpt lat="47.411174" lon="10.264207">
<ele>797.4</ele>
<time>2014-05-01T09:38:15Z</time>
<speed>7.0</speed>
</trkpt>
<trkpt lat="47.410911" lon="10.263895">
<ele>795.4</ele>
<time>2014-05-01T09:38:20Z</time>
<speed>7.3</speed>
</trkpt>
<trkpt lat="47.410645" lon="10.263602">
<ele>794.6</ele>
<time>2014-05-01T09:38:25Z</time>
<speed>7.3</speed>
</trkpt>
<trkpt lat="47.410369" lon="10.263313">
<ele>795.8</ele>
<time>2014-05-01T09:38:30Z</time>
<speed>7.7</speed>
</trkpt>
<trkpt lat="47.410071" lon="10.263056">
<ele>795.0</ele>
<time>2014-05-01T09:38:35Z</time>
<speed>7.7</speed>
</trkpt>
<trkpt lat="47.409779" lon="10.262799">
<ele>794.6</ele>
<time>2014-05-01T09:38:40Z</time>
<speed>7.2</speed>
</trkpt>
<trkpt lat="47.409496" lon="10.262608">
<ele>795.4</ele>
<time>2014-05-01T09:38:45Z</time>
<speed>6.5</speed>
</trkpt>
<trkpt lat="47.409206" lon="10.262534">
<ele>795.8</ele>
<time>2014-05-01T09:38:50Z</time>
<speed>5.4</speed>
</trkpt>
<trkpt lat="47.408926" lon="10.262569">
<ele>795.4</ele>
<time>2014-05-01T09:38:55Z</time>
<speed>6.3</speed>
</trkpt>
<trkpt lat="47.408612" lon="10.262639">
<ele>795.2</ele>
<time>2014-05-01T09:39:00Z</time>
<speed>6.5</speed>
</trkpt>
<trkpt lat="47.408264" lon="10.262696">
<ele>795.8</ele>
<time>2014-05-01T09:39:05Z</time>
<speed>7.1</speed>
</trkpt>
<trkpt lat="47.407921" lon="10.262651">
<ele>795.0</ele>
<time>2014-05-01T09:39:10Z</time>
<speed>7.1</speed>
</trkpt>
<trkpt lat="47.407596" lon="10.262592">
<ele>796.2</ele>
<time>2014-05-01T09:39:15Z</time>
<speed>7.1</speed>
</trkpt>
<trkpt lat="47.407265" lon="10.262613">
<ele>796.8</ele>
<time>2014-05-01T09:39:20Z</time>
<speed>6.7</speed>
</trkpt>
<trkpt lat="47.406959" lon="10.262739">
<ele>796.6</ele>
<time>2014-05-01T09:39:25Z</time>
<speed>6.8</speed>
</trkpt>
<trkpt lat="47.406665" lon="10.263002">
<ele>797.4</ele>
<time>2014-05-01T09:39:30Z</time>
<speed>6.8</speed>
</trkpt>
<trkpt lat="47.406398" lon="10.263255">
<ele>799.0</ele>
<time>2014-05-01T09:39:35Z</time>
<speed>6.6</speed>
</trkpt>
<trkpt lat="47.406119" lon="10.263473">
<ele>798.6</ele>
<time>2014-05-01T09:39:40Z</time>
<speed>6.8</speed>
</trkpt>
<trkpt lat="47.405833" lon="10.263633">
<ele>799.4</ele>
<time>2014-05-01T09:39:45Z</time>
<speed>6.8</speed>
</trkpt>
<trkpt lat="47.405517" lon="10.263764">
<ele>799.0</ele>
<time>2014-05-01T09:39:50Z</time>
<speed>7.5</speed>
</trkpt>
<trkpt lat="47.405208" lon="10.263828">
<ele>798.0</ele>
<time>2014-05-01T09:39:55Z</time>
<speed>6.4</speed>
</trkpt>
<trkpt lat="47.404906" lon="10.263884">
<ele>798.4</ele>
<time>2014-05-01T09:40:00Z</time>
<speed>6.8</speed>
</trkpt>
<trkpt lat="47.404575" lon="10.263976">
<ele>800.0</ele>
<time>2014-05-01T09:40:05Z</time>
<speed>7.0</speed>
</trkpt>
<trkpt lat="47.404261" lon="10.264036">
<ele>800.4</ele>
<time>2014-05-01T09:40:10Z</time>
<speed>6.8</speed>
</trkpt>
<trkpt lat="47.403951" lon="10.264039">
<ele>799.8</ele>
<time>2014-05-01T09:40:15Z</time>
<speed>6.7</speed>
</trkpt>
<trkpt lat="47.403646" lon="10.263964">
<ele>798.8</ele>
<time>2014-05-01T09:40:20Z</time>
<speed>6.7</speed>
</trkpt>
<trkpt lat="47.403345" lon="10.263858">
<ele>798.6</ele>
<time>2014-05-01T09:40:25Z</time>
<speed>6.6</speed>
</trkpt>
<trkpt lat="47.403029" lon="10.263795">
<ele>798.2</ele>
<time>2014-05-01T09:40:30Z</time>
<speed>6.3</speed>
</trkpt>
<trkpt lat="47.402734" lon="10.263761">
<ele>799.0</ele>
<time>2014-05-01T09:40:35Z</time>
<speed>5.8</speed>
</trkpt>
<trkpt lat="47.402531" lon="10.263883">
<ele>800.2</ele>
<time>2014-05-01T09:40:40Z</time>
<speed>4.8</speed>
</trkpt>
<trkpt lat="47.402784" lon="10.264168">
<ele>797.8</ele>
<time>2014-05-01T09:40:45Z</time>
<speed>7.4</speed>
</trkpt>
<trkpt lat="47.403046" lon="10.264510">
<ele>795.6</ele>
<time>2014-05-01T09:40:50Z</time>
<speed>7.6</speed>
</trkpt>
<trkpt lat="47.403215" lon="10.264948">
<ele>797.6</ele>
<time>2014-05-01T09:40:55Z</time>
<speed>7.3</speed>
</trkpt>
<trkpt lat="47.403400" lon="10.265350">
<ele>797.8</ele>
<time>2014-05-01T09:41:00Z</time>
<speed>7.3</speed>
</trkpt>
<trkpt lat="47.403685" lon="10.265621">
<ele>796.6</ele>
<time>2014-05-01T09:41:05Z</time>
<speed>7.6</speed>
</trkpt>
<trkpt lat="47.403915" lon="10.265964">
<ele>797.4</ele>
<time>2014-05-01T09:41:10Z</time>
<speed>7.5</speed>
</trkpt>
<trkpt lat="47.403997" lon="10.266453">
<ele>799.4</ele>
<time>2014-05-01T09:41:15Z</time>
<speed>7.6</speed>
</trkpt>
<trkpt lat="47.404069" lon="10.267042">
<ele>800.4</ele>
<time>2014-05-01T09:41:21Z</time>
<speed>7.4</speed>
</trkpt>
<trkpt lat="47.404125" lon="10.267498">
<ele>800.0</ele>
<time>2014-05-01T09:41:26Z</time>
<speed>7.2</speed>
</trkpt>
<trkpt lat="47.404158" lon="10.267968">
<ele>799.2</ele>
<time>2014-05-01T09:41:31Z</time>
<speed>7.0</speed>
</trkpt>
<trkpt lat="47.404183" lon="10.268408">
<ele>800.0</ele>
<time>2014-05-01T09:41:36Z</time>
<speed>6.6</speed>
</trkpt>
<trkpt lat="47.404301" lon="10.268795">
<ele>803.4</ele>
<time>2014-05-01T09:41:41Z</time>
<speed>6.8</speed>
</trkpt>
<trkpt lat="47.404522" lon="10.269093">
<ele>801.2</ele>
<time>2014-05-01T09:41:46Z</time>
<speed>6.5</speed>
</trkpt>
<trkpt lat="47.404714" lon="10.269409">
<ele>802.0</ele>
<time>2014-05-01T09:41:51Z</time>
<speed>6.2</speed>
</trkpt>
<trkpt lat="47.404872" lon="10.269731">
<ele>803.6</ele>
<time>2014-05-01T09:41:56Z</time>
<speed>5.3</speed>
</trkpt>
<trkpt lat="47.405001" lon="10.270010">
<ele>800.4</ele>
<time>2014-05-01T09:42:01Z</time>
<speed>4.8</speed>
</trkpt>
<trkpt lat="47.404959" lon="10.270277">
<ele>802.4</ele>
<time>2014-05-01T09:42:06Z</time>
<speed>4.6</speed>
</trkpt>
<trkpt lat="47.404837" lon="10.270621">
<ele>802.2</ele>
<time>2014-05-01T09:42:11Z</time>
<speed>5.5</speed>
</trkpt>
<trkpt lat="47.404756" lon="10.270992">
<ele>802.8</ele>
<time>2014-05-01T09:42:16Z</time>
<speed>5.4</speed>
</trkpt>
<trkpt lat="47.404642" lon="10.271335">
<ele>804.6</ele>
<time>2014-05-01T09:42:21Z</time>
<speed>5.4</speed>
</trkpt>
<trkpt lat="47.404553" lon="10.271720">
<ele>807.2</ele>
<time>2014-05-01T09:42:26Z</time>
<speed>6.0</speed>
</trkpt>
<trkpt lat="47.404459" lon="10.272089">
<ele>806.0</ele>
<time>2014-05-01T09:42:31Z</time>
<speed>6.1</speed>
</trkpt>
<trkpt lat="47.404396" lon="10.272523">
<ele>810.6</ele>
<time>2014-05-01T09:42:36Z</time>
<speed>5.9</speed>
</trkpt>
<trkpt lat="47.404357" lon="10.272964">
<ele>809.0</ele>
<time>2014-05-01T09:42:41Z</time>
<speed>6.1</speed>
</trkpt>
<trkpt lat="47.404368" lon="10.273342">
<ele>810.0</ele>
<time>2014-05-01T09:42:46Z</time>
<speed>4.8</speed>
</trkpt>
</trkseg>
</trk>
</gpx>
